[[{"header":{"parameterUnit":"m.s-1","parameterCategory":1,"la1":31.0,"la2":29.5877,"lo1":-88.7671,"lo2":-86.6584,"dy":0.0162,"dx":0.0185,"nx":115,"ny":88,"refTime":"2024-04-27T00:00:00:Z","depth":0,"parameterNumber":2,"parameterNumberName":"U-component_of_WINDS"},"data":[0.0,0.0,0.0,0.0,0.0,0.0,0.0,0.0,0.0,0.0,0.0,0.0,0.0,0.0,0.0,0.0,0.0,0.0,0.0,0.0,0.0,0.0,0.0,0.0,0.0,0.0,0.0,0.0,0.0,0.0,0.0,0.0,0.0,0.0,0.0,0.0,0.0,0.0,0.0,0.0,0.0,0.0,0.0,0.0,0.0,0.0,0.0,0.0,0.0,0.0,0.0,0.0,0.0,0.0,0.0,0.0,0.0,0.0,0.0,0.0,0.0,0.0,0.0,0.0,0.0,0.0,0.0,0.0,0.0,0.0,0.0,0.0,0.0,0.0,0.0,0.0,0.0,0.0,0.0,0.0,0.0,0.0,0.0,0.0,0.0,0.0,0.0,0.0,0.0,0.0,0.0,0.0,0.0,0.0,0.0,0.0,0.0,0.0,0.0,0.0,0.0,0.0,0.0,0.0,0.0,0.0,0.0,0.0,0.0,0.0,0.0,0.0,0.0,0.0,0.0,0.0,0.0,0.0,0.0,0.0,0.0,0.0,0.0,0.0,0.0,0.0,0.0,0.0,0.0,0.0,0.0,0.0,0.0,0.0,0.0,0.0,0.0,0.0,0.0,0.0,0.0,0.0,0.0,0.0,0.0,0.0,0.0,0.0,0.0,0.0,0.0,0.0,0.0,0.0,0.0,0.0,0.0,0.0,0.0,0.0,0.0,0.0,0.0,0.0,0.0,0.0,0.0,0.0,0.0,0.0,0.0,0.0,0.0,0.0,0.0,0.0,0.0,0.0,0.0,0.0,0.0,0.0,0.0,0.0,0.0,0.0,0.0,0.0,0.0,0.0,0.0,0.0,0.0,0.0,0.0,0.0,0.0,0.0,0.0,0.0,0.0,0.0,0.0,0.0,0.0,0.0,0.0,0.0,0.0,0.0,0.0,0.0,0.0,0.0,0.0,0.0,0.0,0.0,0.0,0.0,0.0,0.0,0.0,0.0,0.0,0.0,0.0,0.0,0.0,0.0,0.0,0.0,0.0,0.0,0.0,0.0,0.0,0.0,0.0,0.0,0.0,0.0,0.0,0.0,0.0,0.0,0.0,0.0,0.0,0.0,0.0,0.0,0.0,0.0,0.0,0.0,0.0,0.0,0.0,0.0,0.0,0.0,0.0,0.0,0.0,0.0,0.0,0.0,0.0,0.0,0.0,0.0,0.0,0.0,0.0,0.0,0.0,0.0,0.0,0.0,0.0,0.0,0.0,0.0,0.0,0.0,0.0,0.0,0.0,0.0,0.0,0.0,0.0,0.0,0.0,0.0,0.0,0.0,0.0,0.0,0.0,0.0,0.0,0.0,0.0,0.0,0.0,0.0,0.0,0.0,0.0,0.0,0.0,0.0,0.0,0.0,0.0,0.0,0.0,0.0,0.0,0.0,0.0,0.0,0.0,0.0,0.0,0.0,0.0,0.0,0.0,0.0,0.0,0.0,0.0,0.0,0.0,0.0,0.0,0.0,0.0,0.0,0.0,0.0,0.0,0.0,0.0,0.0,0.0,0.0,0.0,0.0,0.0,0.0,0.0,0.0,0.0,0.0,0.0,0.0,0.0,0.0,0.0,0.0,0.0,0.0,0.0,0.0,0.0,0.0,0.0,0.0,0.0,0.0,0.0,0.0,0.0,0.0,0.0,0.0,0.0,0.0,0.0,0.0,0.0,0.0,0.0,0.0,0.0,0.0,0.0,0.0,0.0,0.0,0.0,0.0,0.0,0.0,0.0,0.0,0.0,0.0,0.0,0.0,0.0,0.0,0.0,0.0,0.0,0.0,0.0,0.0,0.0,0.0,0.0,0.0,0.0,0.0,0.0,0.0,0.0,0.0,0.0,0.0,0.0,0.0,0.0,0.0,0.0,0.0,0.0,0.0,0.0,0.0,0.0,0.0,0.0,0.0,0.0,0.0,0.0,0.0,0.0,0.0,0.0,0.0,0.0,0.0,0.0,0.0,0.0,0.0,0.0,0.0,0.0,0.0,0.0,0.0,0.0,0.0,0.0,0.0,0.0,0.0,0.0,0.0,0.0,0.0,0.0,0.0,0.0,0.0,0.0,0.0,0.0,0.0,0.0,0.0,0.0,0.0,0.0,0.0,0.0,0.0,0.0,0.0,0.0,0.0,0.0,0.0,0.0,0.0,0.0,0.0,0.0,0.0,0.0,0.0,0.0,0.0,0.0,0.0,0.0,0.0,0.0,0.0,0.0,0.0,0.0,0.0,0.0,0.0,0.0,0.0,0.0,0.0,0.0,0.0,0.0,0.0,0.0,0.0,0.0,0.0,0.0,0.0,0.0,0.0,0.0,0.0,0.0,0.0,0.0,0.0,0.0,0.0,0.0,0.0,0.0,0.0,0.0,0.0,0.0,0.0,0.0,0.0,0.0,0.0,0.0,0.0,0.0,0.0,0.0,0.0,0.0,0.0,0.0,0.0,0.0,0.0,0.0,0.0,0.0,0.0,0.0,0.0,0.0,0.0,0.0,0.0,0.0,0.0,0.0,0.0,0.0,0.0,0.0,0.0,0.0,0.0,0.0,0.0,0.0,0.0,0.0,0.0,0.0,0.0,0.0,0.0,0.0,0.0,0.0,0.0,0.0,0.0,0.0,0.0,0.0,0.0,0.0,0.0,0.0,0.0,0.0,0.0,0.0,0.0,0.0,0.0,0.0,0.0,0.0,0.0,0.0,0.0,0.0,0.0,0.0,0.0,0.0,0.0,0.0,0.0,0.0,0.0,0.0,0.0,0.0,0.0,0.0,0.0,0.0,0.0,0.0,0.0,0.0,0.0,0.0,0.0,0.0,0.0,0.0,0.0,0.0,0.0,0.0,0.0,0.0,0.0,0.0,0.0,0.0,0.0,0.0,0.0,0.0,0.0,0.0,0.0,0.0,0.0,0.0,0.0,0.0,0.0,0.0,0.0,0.0,0.0,0.0,0.0,0.0,0.0,0.0,0.0,0.0,0.0,0.0,0.0,0.0,0.0,0.0,0.0,0.0,0.0,0.0,0.0,0.0,0.0,0.0,0.0,0.0,0.0,0.0,0.0,0.0,0.0,0.0,0.0,0.0,0.0,0.0,0.0,0.0,0.0,0.0,0.0,0.0,0.0,0.0,0.0,0.0,0.0,0.0,0.0,0.0,0.0,0.0,0.0,0.0,0.0,0.0,0.0,0.0,0.0,0.0,0.0,0.0,0.0,0.0,0.0,0.0,0.0,0.0,0.0,0.0,0.0,0.0,0.0,0.0,0.0,0.0,0.0,0.0,0.0,0.0,0.0,0.0,0.0,0.0,0.0,0.0,0.0,0.0,0.0,0.0,0.0,0.0,0.0,0.0,0.0,0.0,0.0,0.0,0.0,0.0,0.0,0.0,0.0,0.0,0.0,0.0,0.0,0.0,0.0,0.0,0.0,0.0,0.0,0.0,0.0,0.0,0.0,0.0,0.0,0.0,0.0,0.0,0.0,0.0,0.0,0.0,0.0,0.0,0.0,0.0,0.0,0.0,0.0,0.0,0.0,0.0,0.0,0.0,0.0,0.0,0.0,0.0,0.0,0.0,0.0,0.0,0.0,0.0,0.0,0.0,0.0,0.0,0.0,0.0,0.0,0.0,0.0,0.0,0.0,0.0,0.0,0.0,0.0,0.0,0.0,0.0,0.0,0.0,0.0,0.0,0.0,0.0,0.0,0.0,0.0,0.0,0.0,0.0,0.0,0.0,0.0,0.0,0.0,0.0,0.0,0.0,0.0,0.0,0.0,0.0,0.0,0.0,0.0,0.0,0.0,0.0,0.0,0.0,0.0,0.0,0.0,0.0,0.0,0.0,0.0,0.0,0.0,0.0,0.0,0.0,0.0,0.0,0.0,0.0,0.0,0.0,0.0,0.0,0.0,0.0,0.0,0.0,0.0,0.0,0.0,0.0,0.0,0.0,0.0,0.0,0.0,0.0,0.0,0.0,0.0,0.0,0.0,0.0,0.0,0.0,0.0,0.0,0.0,0.0,0.0,0.0,0.0,0.0,0.0,0.0,0.0,0.0,0.0,0.0,0.0,0.0,0.0,0.0,0.0,0.0,0.0,0.0,0.0,0.0,0.0,0.0,0.0,0.0,0.0,0.0,0.0,0.0,0.0,0.0,0.0,0.0,0.0,0.0,0.0,0.0,0.0,0.0,0.0,0.0,0.0,0.0,0.0,0.0,0.0,0.0,0.0,0.0,0.0,0.0,0.0,0.0,0.0,0.0,0.0,-4.6684,0.0,0.0,0.0,0.0,0.0,0.0,0.0,0.0,0.0,0.0,0.0,0.0,0.0,0.0,0.0,0.0,0.0,0.0,0.0,0.0,0.0,0.0,0.0,0.0,0.0,0.0,0.0,0.0,0.0,0.0,0.0,0.0,0.0,0.0,0.0,0.0,0.0,0.0,0.0,0.0,0.0,0.0,0.0,0.0,0.0,0.0,0.0,0.0,0.0,0.0,0.0,0.0,0.0,0.0,0.0,0.0,0.0,0.0,0.0,0.0,0.0,0.0,0.0,0.0,0.0,0.0,0.0,0.0,0.0,0.0,0.0,0.0,0.0,0.0,0.0,0.0,0.0,0.0,0.0,0.0,0.0,0.0,0.0,0.0,0.0,0.0,0.0,0.0,0.0,0.0,0.0,0.0,0.0,0.0,0.0,0.0,0.0,0.0,0.0,0.0,0.0,0.0,0.0,0.0,0.0,0.0,0.0,0.0,0.0,0.0,-4.9018,-4.8984,-4.8277,-4.7564,-4.6819,0.0,0.0,0.0,0.0,0.0,0.0,0.0,0.0,0.0,0.0,0.0,0.0,0.0,0.0,0.0,0.0,0.0,0.0,0.0,0.0,0.0,0.0,0.0,0.0,0.0,0.0,0.0,0.0,0.0,0.0,0.0,0.0,0.0,0.0,0.0,0.0,0.0,0.0,0.0,0.0,0.0,0.0,0.0,0.0,0.0,0.0,0.0,0.0,0.0,0.0,0.0,0.0,0.0,0.0,0.0,0.0,0.0,0.0,0.0,0.0,0.0,0.0,0.0,0.0,0.0,0.0,0.0,0.0,0.0,0.0,0.0,0.0,0.0,0.0,0.0,0.0,0.0,0.0,0.0,0.0,0.0,0.0,0.0,0.0,0.0,0.0,0.0,0.0,0.0,0.0,0.0,0.0,0.0,0.0,0.0,0.0,0.0,0.0,0.0,0.0,0.0,0.0,0.0,0.0,0.0,0.0,0.0,0.0,0.0,0.0,0.0,0.0,-4.9221,-4.8477,-4.7564,0.0,0.0,0.0,0.0,0.0,0.0,0.0,0.0,0.0,0.0,0.0,0.0,0.0,0.0,0.0,0.0,0.0,0.0,0.0,0.0,0.0,0.0,0.0,0.0,0.0,0.0,0.0,0.0,0.0,0.0,0.0,0.0,0.0,0.0,0.0,0.0,0.0,0.0,0.0,0.0,0.0,0.0,0.0,0.0,0.0,0.0,0.0,0.0,0.0,0.0,0.0,0.0,0.0,0.0,0.0,0.0,0.0,0.0,0.0,0.0,0.0,0.0,0.0,0.0,0.0,0.0,0.0,0.0,0.0,0.0,0.0,0.0,0.0,0.0,0.0,0.0,0.0,0.0,0.0,0.0,0.0,0.0,0.0,0.0,0.0,0.0,0.0,0.0,0.0,0.0,0.0,0.0,0.0,0.0,0.0,0.0,0.0,0.0,0.0,0.0,0.0,0.0,0.0,0.0,0.0,0.0,0.0,0.0,0.0,0.0,-4.9965,-5.1928,-5.1928,0.0,-4.9796,0.0,0.0,0.0,0.0,0.0,0.0,0.0,0.0,0.0,0.0,0.0,0.0,0.0,0.0,0.0,0.0,0.0,0.0,0.0,0.0,0.0,0.0,0.0,0.0,0.0,0.0,0.0,0.0,0.0,0.0,0.0,0.0,0.0,0.0,0.0,0.0,0.0,0.0,0.0,0.0,0.0,0.0,0.0,0.0,0.0,0.0,0.0,0.0,0.0,0.0,0.0,0.0,0.0,0.0,0.0,0.0,0.0,0.0,0.0,0.0,0.0,0.0,0.0,0.0,0.0,0.0,0.0,0.0,0.0,0.0,0.0,0.0,0.0,0.0,0.0,0.0,0.0,0.0,0.0,0.0,0.0,0.0,0.0,0.0,0.0,0.0,0.0,0.0,0.0,0.0,0.0,0.0,0.0,0.0,0.0,0.0,0.0,0.0,0.0,0.0,0.0,0.0,0.0,0.0,0.0,0.0,0.0,0.0,0.0,0.0,-5.0507,-5.2266,-5.1454,-5.0304,0.0,0.0,0.0,0.0,0.0,0.0,0.0,0.0,0.0,0.0,0.0,0.0,0.0,0.0,0.0,0.0,0.0,0.0,0.0,0.0,0.0,0.0,0.0,0.0,0.0,0.0,0.0,0.0,0.0,0.0,0.0,0.0,0.0,0.0,0.0,0.0,0.0,0.0,0.0,0.0,0.0,0.0,0.0,0.0,0.0,0.0,0.0,0.0,0.0,0.0,0.0,0.0,0.0,0.0,0.0,0.0,0.0,0.0,0.0,0.0,0.0,0.0,0.0,0.0,0.0,0.0,0.0,0.0,0.0,0.0,0.0,0.0,0.0,0.0,0.0,0.0,0.0,0.0,0.0,0.0,0.0,0.0,0.0,0.0,0.0,0.0,0.0,0.0,0.0,0.0,0.0,0.0,0.0,0.0,0.0,0.0,0.0,0.0,0.0,0.0,0.0,0.0,0.0,0.0,0.0,0.0,0.0,0.0,0.0,0.0,-5.0574,-5.1116,-5.2469,-5.098,-4.9492,-4.8244,0.0,0.0,0.0,0.0,0.0,0.0,0.0,0.0,0.0,0.0,0.0,0.0,0.0,0.0,0.0,0.0,0.0,0.0,0.0,0.0,0.0,0.0,0.0,0.0,0.0,0.0,0.0,0.0,0.0,0.0,0.0,0.0,0.0,0.0,0.0,0.0,0.0,0.0,0.0,0.0,0.0,0.0,0.0,0.0,0.0,0.0,0.0,0.0,0.0,0.0,0.0,0.0,0.0,0.0,0.0,0.0,0.0,0.0,0.0,0.0,0.0,0.0,0.0,0.0,0.0,0.0,0.0,0.0,0.0,0.0,0.0,0.0,0.0,0.0,0.0,0.0,0.0,0.0,0.0,0.0,0.0,0.0,0.0,0.0,0.0,0.0,0.0,0.0,0.0,0.0,0.0,0.0,0.0,0.0,0.0,0.0,0.0,0.0,0.0,0.0,0.0,0.0,0.0,0.0,0.0,0.0,0.0,0.0,-5.5006,-5.2503,-5.1894,-5.3315,-5.1251,-4.9729,0.0,0.0,0.0,0.0,0.0,0.0,0.0,0.0,0.0,0.0,0.0,0.0,0.0,0.0,0.0,0.0,0.0,0.0,0.0,0.0,0.0,0.0,0.0,0.0,0.0,0.0,0.0,0.0,0.0,0.0,0.0,0.0,0.0,0.0,0.0,0.0,0.0,0.0,0.0,0.0,0.0,0.0,0.0,0.0,0.0,0.0,0.0,0.0,0.0,0.0,0.0,0.0,0.0,0.0,0.0,0.0,0.0,0.0,0.0,0.0,0.0,0.0,0.0,0.0,0.0,0.0,0.0,0.0,0.0,0.0,0.0,0.0,0.0,0.0,0.0,0.0,0.0,0.0,0.0,0.0,0.0,0.0,0.0,0.0,0.0,0.0,0.0,0.0,0.0,0.0,0.0,0.0,0.0,0.0,0.0,0.0,0.0,0.0,0.0,0.0,0.0,0.0,0.0,0.0,0.0,0.0,0.0,0.0,0.0,-4.9932,-5.0304,-5.1217,-5.257,-5.0101,-4.8815,0.0,0.0,0.0,0.0,0.0,0.0,0.0,0.0,0.0,0.0,0.0,0.0,0.0,0.0,0.0,0.0,0.0,0.0,0.0,0.0,0.0,0.0,0.0,0.0,0.0,0.0,0.0,0.0,0.0,0.0,0.0,0.0,0.0,0.0,0.0,0.0,0.0,0.0,0.0,0.0,0.0,0.0,0.0,0.0,0.0,0.0,0.0,0.0,0.0,0.0,0.0,0.0,0.0,0.0,0.0,0.0,0.0,0.0,0.0,0.0,0.0,0.0,0.0,0.0,0.0,0.0,0.0,0.0,0.0,0.0,0.0,0.0,0.0,0.0,0.0,0.0,0.0,0.0,0.0,0.0,0.0,0.0,0.0,0.0,0.0,0.0,0.0,0.0,0.0,0.0,0.0,0.0,0.0,0.0,0.0,0.0,0.0,0.0,0.0,0.0,0.0,0.0,0.0,0.0,0.0,0.0,0.0,0.0,0.0,-4.7902,0.0,-5.1454,-5.115,-4.9086,-4.7564,0.0,0.0,0.0,0.0,0.0,0.0,0.0,0.0,0.0,0.0,0.0,0.0,0.0,0.0,0.0,0.0,0.0,0.0,0.0,0.0,0.0,0.0,0.0,0.0,0.0,0.0,0.0,0.0,0.0,0.0,0.0,0.0,0.0,0.0,0.0,0.0,0.0,0.0,0.0,0.0,0.0,0.0,0.0,0.0,0.0,0.0,0.0,0.0,0.0,0.0,0.0,0.0,0.0,0.0,0.0,0.0,0.0,0.0,0.0,0.0,0.0,0.0,0.0,0.0,0.0,0.0,0.0,0.0,0.0,0.0,0.0,0.0,0.0,0.0,0.0,0.0,0.0,0.0,0.0,0.0,0.0,0.0,0.0,0.0,0.0,0.0,0.0,0.0,0.0,0.0,0.0,0.0,0.0,0.0,0.0,0.0,0.0,0.0,0.0,0.0,0.0,0.0,0.0,0.0,0.0,0.0,0.0,0.0,-4.7192,-4.9932,-5.2841,-5.2672,-4.9255,-4.8342,-4.621,0.0,0.0,0.0,0.0,0.0,0.0,0.0,0.0,0.0,0.0,0.0,0.0,0.0,0.0,0.0,0.0,0.0,0.0,0.0,0.0,0.0,0.0,0.0,0.0,0.0,0.0,0.0,0.0,0.0,0.0,0.0,0.0,0.0,0.0,0.0,0.0,0.0,0.0,0.0,0.0,0.0,0.0,0.0,0.0,0.0,0.0,0.0,0.0,0.0,0.0,0.0,0.0,0.0,0.0,0.0,0.0,0.0,0.0,0.0,0.0,0.0,0.0,0.0,0.0,0.0,0.0,0.0,0.0,0.0,0.0,0.0,0.0,0.0,0.0,0.0,0.0,0.0,0.0,0.0,0.0,0.0,0.0,0.0,0.0,0.0,0.0,0.0,0.0,0.0,0.0,0.0,0.0,0.0,0.0,0.0,0.0,0.0,0.0,0.0,0.0,0.0,0.0,0.0,0.0,0.0,0.0,0.0,0.0,0.0,-4.7902,-5.0234,-5.1928,-5.2672,-4.8646,-4.7056,0.0,0.0,0.0,0.0,0.0,0.0,0.0,0.0,0.0,0.0,0.0,0.0,0.0,0.0,0.0,0.0,0.0,0.0,0.0,0.0,0.0,0.0,0.0,0.0,0.0,0.0,0.0,0.0,0.0,0.0,0.0,0.0,0.0,0.0,0.0,0.0,0.0,0.0,0.0,0.0,0.0,0.0,0.0,0.0,0.0,0.0,0.0,0.0,0.0,0.0,0.0,0.0,0.0,0.0,0.0,0.0,0.0,0.0,0.0,0.0,0.0,0.0,0.0,0.0,0.0,0.0,0.0,0.0,0.0,0.0,0.0,0.0,0.0,0.0,0.0,0.0,0.0,0.0,0.0,0.0,0.0,0.0,0.0,0.0,0.0,0.0,0.0,0.0,0.0,0.0,0.0,0.0,0.0,0.0,0.0,0.0,0.0,0.0,0.0,0.0,0.0,0.0,0.0,0.0,0.0,0.0,0.0,0.0,0.0,-4.9864,-5.186,-5.3213,-5.3721,-4.956,-4.7767,-4.8612,0.0,0.0,0.0,0.0,0.0,0.0,0.0,0.0,0.0,0.0,0.0,0.0,0.0,0.0,0.0,0.0,0.0,0.0,0.0,0.0,0.0,0.0,0.0,0.0,0.0,0.0,0.0,0.0,0.0,0.0,0.0,0.0,0.0,0.0,0.0,0.0,0.0,0.0,0.0,0.0,0.0,0.0,0.0,0.0,0.0,0.0,0.0,0.0,0.0,0.0,0.0,0.0,0.0,0.0,0.0,0.0,0.0,0.0,0.0,0.0,0.0,0.0,0.0,0.0,0.0,0.0,0.0,0.0,0.0,0.0,0.0,0.0,0.0,0.0,0.0,0.0,0.0,0.0,0.0,0.0,0.0,0.0,0.0,0.0,0.0,0.0,0.0,0.0,0.0,0.0,0.0,0.0,0.0,0.0,0.0,0.0,0.0,0.0,0.0,0.0,0.0,0.0,0.0,0.0,0.0,0.0,0.0,0.0,-5.4837,-5.707,-5.6562,-5.3044,-5.1217,-4.8646,0.0,0.0,0.0,0.0,0.0,0.0,0.0,0.0,0.0,0.0,0.0,0.0,0.0,0.0,0.0,0.0,0.0,0.0,0.0,0.0,0.0,0.0,0.0,0.0,0.0,0.0,0.0,0.0,0.0,0.0,0.0,0.0,0.0,0.0,0.0,0.0,0.0,0.0,0.0,0.0,0.0,0.0,0.0,0.0,0.0,0.0,0.0,0.0,0.0,0.0,0.0,0.0,0.0,0.0,0.0,0.0,0.0,0.0,0.0,0.0,0.0,0.0,0.0,0.0,0.0,0.0,0.0,0.0,0.0,0.0,0.0,0.0,0.0,0.0,0.0,0.0,0.0,0.0,0.0,0.0,0.0,0.0,0.0,0.0,0.0,0.0,0.0,0.0,0.0,0.0,0.0,0.0,0.0,0.0,0.0,0.0,0.0,0.0,0.0,0.0,0.0,0.0,0.0,0.0,0.0,0.0,0.0,0.0,0.0,-5.7848,-6.1129,-6.1603,-5.8964,-5.4837,-5.2164,0.0,0.0,0.0,0.0,0.0,0.0,0.0,0.0,0.0,0.0,0.0,0.0,0.0,0.0,0.0,0.0,0.0,0.0,0.0,0.0,0.0,0.0,0.0,0.0,0.0,0.0,0.0,0.0,0.0,0.0,0.0,0.0,0.0,0.0,0.0,0.0,0.0,0.0,0.0,0.0,0.0,0.0,0.0,0.0,0.0,0.0,0.0,0.0,0.0,0.0,0.0,0.0,0.0,0.0,0.0,0.0,0.0,0.0,0.0,0.0,0.0,0.0,0.0,0.0,0.0,0.0,0.0,0.0,0.0,0.0,0.0,0.0,0.0,0.0,0.0,0.0,0.0,0.0,0.0,0.0,0.0,0.0,0.0,0.0,0.0,0.0,0.0,0.0,0.0,0.0,0.0,0.0,0.0,0.0,0.0,0.0,0.0,0.0,0.0,0.0,0.0,0.0,0.0,0.0,0.0,0.0,0.0,0.0,-5.6415,-5.9856,-6.2724,-6.3857,-6.3146,-5.9321,-5.5716,0.0,0.0,0.0,0.0,0.0,0.0,0.0,0.0,0.0,0.0,0.0,0.0,0.0,0.0,0.0,0.0,0.0,0.0,0.0,0.0,0.0,0.0,0.0,0.0,0.0,0.0,0.0,0.0,0.0,0.0,0.0,0.0,0.0,0.0,0.0,0.0,0.0,0.0,0.0,0.0,0.0,0.0,0.0,0.0,0.0,0.0,0.0,0.0,0.0,0.0,0.0,0.0,0.0,0.0,0.0,0.0,0.0,0.0,0.0,0.0,0.0,0.0,0.0,0.0,0.0,0.0,0.0,0.0,0.0,0.0,0.0,0.0,0.0,0.0,0.0,0.0,0.0,0.0,0.0,0.0,0.0,0.0,0.0,0.0,0.0,0.0,0.0,0.0,0.0,0.0,0.0,0.0,0.0,0.0,0.0,0.0,0.0,0.0,0.0,0.0,0.0,0.0,0.0,0.0,0.0,0.0,0.0,0.0,-5.7058,-6.1168,-6.3095,-6.4528,-6.5492,-6.3373,-5.8856,0.0,0.0,0.0,0.0,0.0,0.0,0.0,0.0,0.0,0.0,0.0,0.0,0.0,0.0,0.0,0.0,0.0,0.0,0.0,0.0,0.0,0.0,0.0,0.0,0.0,0.0,0.0,0.0,0.0,0.0,0.0,0.0,0.0,0.0,0.0,0.0,0.0,0.0,0.0,0.0,0.0,0.0,0.0,0.0,0.0,0.0,0.0,0.0,0.0,0.0,0.0,0.0,0.0,0.0,0.0,0.0,0.0,0.0,0.0,0.0,0.0,0.0,0.0,0.0,0.0,0.0,0.0,0.0,0.0,0.0,0.0,0.0,0.0,0.0,0.0,0.0,0.0,0.0,0.0,0.0,0.0,0.0,0.0,0.0,0.0,0.0,0.0,0.0,0.0,0.0,0.0,0.0,0.0,0.0,0.0,0.0,0.0,0.0,0.0,0.0,0.0,0.0,0.0,0.0,0.0,0.0,0.0,0.0,-5.7912,-6.1506,-6.4688,-6.5924,-6.5045,-6.2167,-5.8763,0.0,0.0,0.0,0.0,0.0,0.0,0.0,0.0,0.0,0.0,0.0,0.0,0.0,0.0,0.0,0.0,0.0,0.0,0.0,0.0,0.0,0.0,0.0,0.0,0.0,0.0,0.0,0.0,0.0,0.0,0.0,0.0,0.0,0.0,0.0,0.0,0.0,0.0,0.0,0.0,0.0,0.0,0.0,0.0,0.0,0.0,0.0,0.0,-4.979,0.0,0.0,0.0,0.0,0.0,0.0,0.0,0.0,0.0,0.0,0.0,0.0,0.0,0.0,0.0,0.0,0.0,0.0,0.0,0.0,0.0,0.0,0.0,0.0,0.0,0.0,0.0,0.0,0.0,0.0,0.0,0.0,0.0,0.0,0.0,0.0,0.0,0.0,0.0,0.0,0.0,0.0,0.0,0.0,0.0,0.0,0.0,0.0,0.0,0.0,0.0,0.0,0.0,0.0,0.0,0.0,0.0,0.0,0.0,-5.8074,-6.2067,-6.411,-6.502,-6.476,-6.1655,-5.8335,0.0,0.0,0.0,0.0,0.0,0.0,0.0,0.0,0.0,0.0,0.0,0.0,0.0,0.0,0.0,0.0,0.0,0.0,0.0,0.0,0.0,0.0,0.0,0.0,0.0,0.0,0.0,0.0,0.0,0.0,0.0,0.0,0.0,0.0,0.0,0.0,0.0,0.0,0.0,0.0,0.0,0.0,0.0,0.0,0.0,0.0,0.0,0.0,0.0,0.0,0.0,0.0,0.0,0.0,0.0,0.0,0.0,0.0,0.0,0.0,0.0,0.0,0.0,0.0,0.0,0.0,0.0,0.0,0.0,0.0,0.0,0.0,0.0,0.0,0.0,0.0,0.0,0.0,0.0,0.0,0.0,0.0,0.0,0.0,0.0,0.0,0.0,0.0,0.0,0.0,0.0,0.0,0.0,0.0,0.0,0.0,0.0,0.0,0.0,0.0,0.0,0.0,0.0,0.0,0.0,0.0,0.0,-5.363,-5.7611,-6.2364,-6.2975,-6.3617,-6.4542,-6.1481,-5.782,-5.3804,0.0,0.0,0.0,0.0,0.0,0.0,0.0,0.0,0.0,0.0,0.0,0.0,0.0,0.0,0.0,0.0,0.0,0.0,0.0,0.0,0.0,0.0,0.0,0.0,0.0,0.0,0.0,0.0,0.0,0.0,0.0,0.0,0.0,0.0,0.0,0.0,0.0,0.0,-4.7575,-5.0165,0.0,0.0,0.0,0.0,0.0,0.0,0.0,0.0,-4.892,0.0,0.0,0.0,0.0,0.0,0.0,0.0,0.0,0.0,0.0,0.0,0.0,0.0,0.0,0.0,0.0,0.0,0.0,0.0,0.0,0.0,0.0,0.0,0.0,0.0,0.0,0.0,0.0,0.0,0.0,0.0,0.0,0.0,0.0,0.0,0.0,0.0,0.0,0.0,0.0,0.0,0.0,0.0,0.0,0.0,0.0,0.0,0.0,0.0,0.0,0.0,0.0,0.0,0.0,0.0,0.0,-5.1818,-5.3049,-5.6404,-6.2031,-6.3249,-6.3727,-6.3354,-6.1212,-5.774,-5.3028,0.0,0.0,0.0,0.0,0.0,0.0,0.0,0.0,0.0,0.0,0.0,0.0,0.0,0.0,0.0,0.0,0.0,0.0,0.0,0.0,0.0,0.0,0.0,0.0,0.0,0.0,0.0,0.0,0.0,0.0,0.0,0.0,0.0,0.0,0.0,0.0,0.0,0.0,0.0,-5.2605,-5.399,0.0,0.0,0.0,0.0,0.0,0.0,0.0,0.0,-4.941,0.0,0.0,0.0,0.0,0.0,0.0,0.0,0.0,0.0,0.0,0.0,0.0,0.0,0.0,0.0,0.0,0.0,0.0,0.0,0.0,0.0,0.0,0.0,0.0,0.0,0.0,0.0,0.0,0.0,0.0,0.0,0.0,0.0,0.0,0.0,0.0,0.0,0.0,0.0,0.0,0.0,0.0,0.0,0.0,0.0,0.0,0.0,0.0,0.0,0.0,0.0,0.0,0.0,0.0,0.0,-5.0587,-5.3653,-5.7603,-6.2421,-6.3199,-6.3378,-6.2989,-5.9159,-5.528,0.0,0.0,0.0,0.0,0.0,0.0,0.0,0.0,0.0,0.0,0.0,0.0,0.0,0.0,0.0,0.0,0.0,0.0,0.0,0.0,0.0,0.0,0.0,0.0,0.0,0.0,0.0,0.0,0.0,0.0,0.0,0.0,0.0,0.0,0.0,0.0,0.0,0.0,0.0,0.0,-5.1664,-5.2672,-5.2109,0.0,0.0,0.0,0.0,0.0,0.0,-4.876,-4.8845,0.0,0.0,0.0,0.0,0.0,0.0,0.0,0.0,0.0,0.0,0.0,0.0,0.0,0.0,0.0,0.0,0.0,0.0,0.0,0.0,0.0,0.0,0.0,0.0,0.0,0.0,0.0,0.0,0.0,0.0,0.0,0.0,0.0,0.0,0.0,0.0,0.0,0.0,0.0,0.0,0.0,0.0,0.0,0.0,0.0,0.0,0.0,0.0,0.0,0.0,0.0,0.0,0.0,0.0,0.0,-4.9494,-5.4102,-5.865,-6.2897,-6.3137,-6.3019,-6.281,-5.7752,-5.3443,0.0,0.0,0.0,0.0,0.0,0.0,0.0,0.0,0.0,0.0,0.0,0.0,0.0,0.0,0.0,0.0,0.0,0.0,0.0,0.0,0.0,0.0,0.0,0.0,0.0,0.0,0.0,0.0,0.0,0.0,0.0,0.0,0.0,0.0,0.0,0.0,0.0,0.0,0.0,0.0,0.0,-5.1828,-5.2815,-5.1439,0.0,0.0,0.0,0.0,-4.9075,-4.9194,0.0,0.0,0.0,0.0,0.0,0.0,0.0,0.0,0.0,0.0,0.0,0.0,0.0,0.0,0.0,0.0,0.0,0.0,0.0,0.0,0.0,0.0,0.0,0.0,0.0,0.0,0.0,0.0,0.0,0.0,0.0,0.0,0.0,0.0,0.0,0.0,0.0,0.0,0.0,0.0,0.0,0.0,0.0,0.0,0.0,0.0,0.0,0.0,0.0,0.0,0.0,0.0,0.0,0.0,0.0,0.0,-4.9927,-5.3025,-5.7304,-6.2807,-6.3137,-6.278,-6.2181,-5.9249,-5.5059,0.0,0.0,0.0,0.0,0.0,0.0,0.0,0.0,0.0,0.0,0.0,0.0,0.0,0.0,0.0,0.0,0.0,0.0,0.0,0.0,0.0,0.0,0.0,0.0,0.0,0.0,0.0,0.0,0.0,0.0,0.0,0.0,0.0,0.0,0.0,0.0,0.0,0.0,0.0,0.0,0.0,-5.47,-5.2606,-5.3084,-5.3443,0.0,0.0,-5.1738,-5.1738,-5.2247,0.0,0.0,0.0,0.0,0.0,0.0,0.0,0.0,0.0,0.0,0.0,0.0,0.0,0.0,0.0,0.0,0.0,0.0,0.0,0.0,0.0,0.0,0.0,0.0,0.0,0.0,0.0,0.0,0.0,0.0,0.0,0.0,0.0,0.0,0.0,0.0,0.0,0.0,0.0,0.0,0.0,0.0,0.0,0.0,0.0,0.0,0.0,0.0,0.0,0.0,0.0,0.0,0.0,0.0,0.0,-4.5783,-5.0136,-5.3922,-5.8022,-6.2331,-6.251,-6.2211,-6.1523,-5.7154,-5.2695,0.0,0.0,0.0,0.0,0.0,0.0,0.0,0.0,0.0,0.0,0.0,0.0,0.0,0.0,0.0,0.0,0.0,0.0,0.0,0.0,0.0,0.0,0.0,0.0,0.0,0.0,0.0,0.0,0.0,0.0,0.0,0.0,0.0,0.0,0.0,0.0,0.0,0.0,0.0,0.0,0.0,0.0,-5.5388,-5.479,0.0,0.0,0.0,-5.3473,-5.3832,0.0,0.0,0.0,0.0,0.0,0.0,0.0,0.0,0.0,0.0,0.0,0.0,0.0,0.0,0.0,0.0,0.0,0.0,0.0,0.0,0.0,0.0,0.0,0.0,0.0,0.0,0.0,0.0,0.0,0.0,0.0,0.0,0.0,0.0,0.0,0.0,0.0,0.0,0.0,0.0,0.0,0.0,0.0,0.0,0.0,0.0,0.0,0.0,0.0,0.0,0.0,0.0,0.0,0.0,0.0,0.0,0.0,-5.0166,-5.476,-5.871,-6.1972,-6.2091,-6.1702,-6.0805,-5.5867,0.0,0.0,0.0,0.0,0.0,0.0,0.0,0.0,0.0,0.0,0.0,0.0,0.0,0.0,0.0,0.0,0.0,0.0,0.0,0.0,0.0,0.0,0.0,0.0,0.0,0.0,0.0,-3.5489,0.0,0.0,0.0,0.0,0.0,0.0,0.0,0.0,0.0,0.0,0.0,0.0,0.0,0.0,-5.3743,-5.7363,-5.6346,-5.5807,0.0,0.0,-5.5538,-5.5867,-5.5508,-5.4112,0.0,0.0,0.0,0.0,0.0,0.0,0.0,0.0,0.0,0.0,0.0,0.0,0.0,0.0,0.0,0.0,0.0,0.0,0.0,0.0,0.0,0.0,0.0,0.0,0.0,0.0,0.0,0.0,0.0,0.0,0.0,0.0,0.0,0.0,0.0,0.0,0.0,0.0,0.0,0.0,0.0,0.0,0.0,0.0,0.0,0.0,0.0,0.0,0.0,0.0,0.0,0.0,0.0,0.0,-4.6279,-5.0196,-5.476,-5.871,-6.1942,-6.2091,-6.1463,-6.0146,-5.7393,-5.3174,0.0,0.0,0.0,0.0,0.0,0.0,0.0,0.0,0.0,0.0,0.0,0.0,0.0,0.0,0.0,0.0,0.0,0.0,0.0,0.0,0.0,0.0,0.0,0.0,0.0,0.0,0.0,0.0,0.0,0.0,0.0,0.0,0.0,0.0,0.0,0.0,0.0,0.0,0.0,0.0,0.0,-5.4102,-5.6795,-5.7573,-5.8351,0.0,-5.9249,-5.859,-5.8022,-5.7872,-5.6555,-5.2695,0.0,0.0,0.0,0.0,0.0,0.0,0.0,0.0,0.0,0.0,0.0,0.0,0.0,0.0,0.0,0.0,0.0,0.0,0.0,0.0,0.0,0.0,0.0,0.0,0.0,0.0,0.0,0.0,0.0,0.0,0.0,0.0,0.0,0.0,0.0,0.0,0.0,0.0,0.0,0.0,0.0,0.0,0.0,0.0,0.0,0.0,0.0,0.0,0.0,0.0,0.0,0.0,0.0,-4.6471,-4.9613,-5.4192,-5.7932,-6.0715,-6.0864,-6.0416,-5.9488,-5.6555,-5.2366,0.0,0.0,0.0,0.0,0.0,0.0,0.0,0.0,0.0,0.0,0.0,0.0,0.0,0.0,0.0,0.0,0.0,0.0,0.0,0.0,0.0,0.0,0.0,0.0,0.0,0.0,0.0,0.0,-3.6118,-3.6267,-3.6626,0.0,0.0,0.0,0.0,0.0,0.0,0.0,0.0,0.0,0.0,-5.4581,-5.8411,-5.9189,0.0,0.0,-6.1014,-6.0416,-6.0565,-5.883,-5.6436,-5.3324,-5.105,0.0,0.0,0.0,0.0,0.0,0.0,0.0,0.0,0.0,0.0,0.0,0.0,0.0,0.0,0.0,0.0,0.0,0.0,0.0,0.0,0.0,0.0,0.0,0.0,0.0,0.0,0.0,0.0,0.0,0.0,0.0,0.0,0.0,0.0,0.0,0.0,0.0,0.0,0.0,0.0,0.0,0.0,0.0,0.0,0.0,0.0,0.0,0.0,0.0,0.0,0.0,0.0,-4.6501,-4.903,-5.3762,-5.7334,-5.9757,-5.9997,-5.9668,-5.877,-5.6017,-5.2217,0.0,0.0,0.0,0.0,0.0,0.0,0.0,0.0,0.0,0.0,0.0,0.0,0.0,0.0,0.0,0.0,0.0,0.0,0.0,0.0,0.0,0.0,0.0,0.0,0.0,0.0,0.0,0.0,-3.6596,-3.6567,-3.6806,0.0,0.0,0.0,0.0,0.0,0.0,0.0,0.0,0.0,0.0,-5.5628,-5.9787,-6.0565,-6.1253,-6.2839,-6.1972,-6.1224,-6.1463,-5.9338,-5.6795,-5.4192,0.0,0.0,0.0,0.0,0.0,0.0,0.0,0.0,0.0,0.0,0.0,0.0,0.0,0.0,0.0,0.0,0.0,0.0,0.0,0.0,0.0,0.0,0.0,0.0,0.0,0.0,0.0,-4.3988,0.0,0.0,-4.3329,0.0,0.0,0.0,0.0,0.0,0.0,0.0,0.0,0.0,0.0,0.0,0.0,0.0,0.0,0.0,0.0,0.0,0.0,0.0,0.0,0.0,0.0,-4.6292,-4.8327,-5.3522,-5.7124,-5.9069,-5.9727,-5.9458,-5.8171,-5.6196,-5.3264,-4.9239,0.0,0.0,0.0,0.0,0.0,0.0,0.0,0.0,0.0,0.0,0.0,0.0,0.0,0.0,0.0,0.0,0.0,0.0,0.0,0.0,0.0,0.0,0.0,0.0,0.0,0.0,-3.7285,-3.6836,-3.6237,0.0,0.0,0.0,0.0,0.0,0.0,0.0,0.0,0.0,-5.075,-5.4042,-5.7304,-6.0565,-6.1613,-6.2241,-6.2959,-6.1972,-6.0924,-6.0326,-5.9518,-5.8171,0.0,0.0,0.0,0.0,0.0,0.0,0.0,0.0,0.0,0.0,0.0,0.0,0.0,0.0,0.0,0.0,0.0,0.0,0.0,0.0,0.0,0.0,0.0,0.0,0.0,0.0,0.0,-4.6142,-4.55,0.0,0.0,0.0,0.0,0.0,0.0,0.0,0.0,0.0,0.0,0.0,-4.6651,-4.707,0.0,0.0,0.0,0.0,0.0,0.0,0.0,0.0,0.0,0.0,0.0,0.0,-4.6292,-4.8386,-5.3054,-5.6466,-5.8381,-5.865,-5.856,-5.8112,-5.5807,-5.2067,-4.68,0.0,0.0,0.0,0.0,0.0,0.0,0.0,0.0,0.0,0.0,0.0,0.0,0.0,0.0,0.0,0.0,0.0,0.0,0.0,0.0,0.0,0.0,0.0,0.0,0.0,-3.6088,0.0,0.0,0.0,0.0,0.0,0.0,0.0,0.0,0.0,0.0,0.0,-4.8207,-5.1439,-5.3982,-5.6555,-5.9368,-6.1104,-6.2181,0.0,0.0,0.0,0.0,0.0,0.0,0.0,0.0,0.0,0.0,0.0,0.0,0.0,0.0,-5.8022,-5.2546,-5.084,-5.0242,-5.0242,0.0,0.0,0.0,0.0,0.0,0.0,0.0,0.0,0.0,0.0,0.0,0.0,0.0,0.0,-4.7608,-4.701,-4.677,0.0,0.0,0.0,0.0,0.0,0.0,0.0,0.0,-4.7908,-4.8207,-4.8027,-4.8656,-4.8027,-4.6381,-4.6561,-4.5095,0.0,0.0,0.0,0.0,0.0,0.0,0.0,0.0,-4.6292,-4.8386,-5.2606,-5.5807,-5.7663,-5.7752,-5.7782,-5.7723,-5.4999,-5.1259,-4.6471,-4.3599,-4.1085,0.0,0.0,0.0,0.0,0.0,0.0,0.0,0.0,0.0,0.0,0.0,0.0,0.0,0.0,0.0,0.0,0.0,0.0,0.0,0.0,0.0,0.0,0.0,-3.6926,0.0,0.0,0.0,0.0,0.0,0.0,0.0,0.0,0.0,-4.4689,-4.6388,-4.8899,-5.2655,-5.4164,-5.6108,-5.9349,0.0,0.0,0.0,0.0,0.0,0.0,0.0,-5.856,-5.877,-5.7214,-5.5777,-5.5299,-5.7393,-5.8895,-5.8261,0.0,0.0,-5.6196,-5.4581,-5.4042,-5.4251,-5.4102,-5.3982,-5.4221,-5.4461,-5.4521,0.0,0.0,0.0,0.0,-4.9449,0.0,0.0,0.0,-4.9763,-4.9134,0.0,-4.7818,0.0,0.0,0.0,0.0,-4.6369,-4.701,0.0,0.0,-4.9673,-4.9942,-4.9509,-5.0062,-4.9598,-4.8476,-4.906,-4.7938,-4.5364,-4.3519,0.0,0.0,0.0,0.0,0.0,0.0,-4.6352,-4.8416,-5.2247,-5.5149,-5.6974,-5.7064,-5.7034,-5.6885,-5.3892,-5.099,-4.8416,-4.6322,-4.4077,-4.1542,-3.9499,0.0,0.0,0.0,0.0,0.0,0.0,0.0,0.0,0.0,0.0,0.0,0.0,0.0,0.0,0.0,0.0,0.0,0.0,0.0,0.0,-3.905,0.0,0.0,0.0,0.0,0.0,0.0,0.0,0.0,0.0,-4.3918,-4.5813,-4.7125,-4.9563,-5.4124,0.0,0.0,0.0,0.0,-6.0852,-6.1719,-6.1413,-6.1025,-6.0995,-6.0906,-6.0637,-6.0181,0.0,0.0,-5.7752,-5.9458,-6.0595,-5.871,-6.0116,-6.1642,-6.278,-6.0685,-5.9279,-5.9817,-5.853,-5.7603,-5.8141,-5.865,-5.8919,-5.6585,0.0,0.0,0.0,0.0,-5.2115,-5.2725,-5.3773,-5.3563,-5.2845,-5.1738,-5.1079,0.0,0.0,0.0,0.0,0.0,0.0,-4.8865,-5.0361,-5.075,-5.1319,-5.2115,-5.2247,-5.1648,-5.0421,-5.0571,-4.9553,-4.7459,-4.6381,-4.4257,-4.1175,0.0,0.0,0.0,0.0,-4.7698,-4.9733,-5.2665,-5.494,-5.6406,-5.6436,-5.5987,-5.5059,-5.3204,-5.1169,-4.909,-4.707,-4.4796,-4.2231,-4.0636,0.0,0.0,0.0,0.0,0.0,0.0,0.0,0.0,0.0,0.0,0.0,0.0,0.0,0.0,0.0,0.0,0.0,0.0,0.0,-3.8332,-3.9439,-3.954,0.0,0.0,0.0,0.0,0.0,0.0,0.0,0.0,0.0,-4.6818,-4.8234,-4.9881,0.0,0.0,-5.4332,-5.5955,-5.6939,-5.7724,-5.8329,-5.8701,0.0,-5.8997,-5.8139,-5.8175,-6.0119,-6.1605,-6.2241,-6.1493,-6.2361,-6.2989,-6.2361,-6.3169,-6.4036,-6.4246,-6.272,-6.1583,-6.2002,-6.1732,-6.1433,-6.1613,-6.1822,-6.1882,-6.0954,-5.7543,-5.5568,-5.473,-5.473,-5.473,-5.5508,-5.6705,-5.6166,-5.5478,-5.464,-5.3503,-5.1828,-4.9793,-4.8865,0.0,0.0,0.0,-5.0631,-5.2007,-5.2276,-5.2665,-5.3174,-5.3473,-5.3025,-5.2007,-5.1468,-5.0601,-4.9434,-4.8536,-4.6621,-4.3808,0.0,-4.3658,-4.3599,-4.6022,-4.8386,-5.0554,-5.2725,-5.4551,-5.6188,-5.6218,-5.5418,-5.3862,-5.3025,-5.1558,-4.9389,-4.7878,-4.5873,-4.3279,-4.1931,-4.0277,0.0,0.0,0.0,0.0,0.0,0.0,0.0,0.0,0.0,0.0,0.0,-3.6285,-3.5866,0.0,0.0,0.0,-3.775,-3.831,-3.9282,-3.9576,0.0,0.0,0.0,0.0,0.0,0.0,0.0,-4.3172,-4.3993,-4.5106,-4.6834,-4.8368,-4.9854,-5.1483,-5.1863,-5.2674,-5.4699,0.0,-5.5998,-5.6886,-5.7555,-5.8103,-5.8279,-5.7729,-5.802,-6.0445,-6.232,-6.3416,-6.3505,-6.398,-6.4395,-6.4455,-6.4755,-6.5114,-6.5353,-6.4425,-6.3647,-6.3827,-6.3857,-6.3857,-6.3857,-6.3857,-6.3857,-6.4994,-6.2989,-5.9219,-5.7543,-5.7423,-5.7423,-5.8112,-5.9159,-5.7962,-5.7363,-5.7124,-5.5329,-5.3713,-5.2276,-5.1063,0.0,-5.2276,-5.2276,-5.2606,-5.3294,-5.3922,-5.3892,-5.3384,-5.4012,-5.3922,-5.3204,-5.2037,-5.1409,-5.1289,-5.0122,-4.8865,-4.7608,-4.5723,-4.5005,-4.5514,-4.683,-4.8775,-5.1259,-5.2546,-5.4181,-5.6098,-5.6128,-5.5229,-5.3324,-5.3204,-5.2025,-4.9509,-4.8716,-4.716,-4.4575,-4.317,-4.1547,-3.9593,0.0,0.0,0.0,0.0,0.0,0.0,0.0,0.0,0.0,0.0,0.0,0.0,0.0,0.0,0.0,-3.8434,0.0,-4.0886,-3.9892,0.0,0.0,0.0,-4.0518,-4.0463,-4.2051,-4.2943,-4.2406,0.0,0.0,-4.6376,-4.7807,-4.9555,-5.1683,-5.0724,-5.1288,-5.5223,-5.4997,-5.5078,-5.6305,-5.714,-5.7752,-5.8052,-5.8355,-5.9063,-6.0546,-6.2558,-6.3544,-6.3696,-6.4211,-6.4724,-6.4964,-6.4994,-6.5263,-6.5921,-6.5981,-6.5892,-6.5263,-6.5173,-6.5173,-6.5173,-6.5203,-6.5173,-6.6191,-6.5144,-6.3169,-6.1493,-6.0146,-6.0176,-6.0356,-6.0595,-6.0296,-5.9578,-5.856,-5.7603,-5.5927,-5.3713,-5.3414,-5.3144,-5.2965,-5.2935,-5.3324,-5.3952,-5.4132,-5.4371,-5.47,-5.488,-5.461,-5.3952,-5.3653,-5.3234,-5.2695,-5.1887,-5.1079,-5.0272,-4.9269,-4.8177,-4.695,-4.8626,-5.0285,-5.1947,-5.2785,-5.3922,-5.5359,-5.5418,-5.497,-5.3982,-5.3443,-5.2187,-5.0092,-4.9374,-4.8057,-4.592,-4.4104,-4.2239,-4.0379,-3.7787,0.0,0.0,0.0,0.0,0.0,0.0,0.0,0.0,0.0,-3.5162,-3.4175,0.0,-3.5997,0.0,-4.0239,-4.2268,-4.248,-4.3006,0.0,0.0,-4.3103,-4.3291,-4.3697,-4.4491,-4.5109,-4.5279,-4.6135,-4.6954,-4.7456,-4.8259,-4.9166,-5.0117,-5.0256,-5.0814,-5.2282,-5.2664,-5.2966,-5.3747,-5.4113,-5.4464,-5.5711,-5.7277,-5.8506,-5.8841,-6.0346,-6.1565,-6.2231,-6.2793,-6.3686,-6.4948,-6.529,-6.5689,-6.6516,-6.6759,-6.67,-6.655,-6.652,-6.652,-6.652,-6.652,-6.652,-6.7148,-6.5922,-6.4874,-6.3647,-6.2391,-6.2121,-6.2002,-6.1972,-6.1672,-6.1134,-6.0356,-5.9129,-5.7573,-5.5957,-5.5628,-5.5119,-5.4521,-5.4521,-5.4581,-5.464,-5.464,-5.485,-5.5179,-5.5209,-5.4999,-5.464,-5.4371,-5.4012,-5.3623,-5.2965,-5.2456,-5.2067,-5.1738,-5.099,-4.9972,-5.0076,-5.087,-5.2187,-5.3443,-5.4461,-5.5179,-5.5091,-5.4395,-5.301,-5.1906,-5.0151,-4.7818,-4.711,-4.5872,-4.3944,-4.2594,-4.1299,-3.9939,-3.7749,-3.6175,0.0,0.0,0.0,0.0,0.0,0.0,0.0,0.0,0.0,0.0,0.0,-3.7338,-3.8847,-4.1523,-4.3118,-4.3057,-4.3833,-4.4517,-4.4947,-4.523,-4.5731,-4.6535,-4.7078,-4.7481,-4.7769,-4.8259,-4.8711,-4.8987,-4.954,-4.9992,-5.0318,-5.082,-5.1297,-5.1599,-5.1925,-5.2302,-5.2829,-5.2861,-5.3344,-5.4518,-5.6375,-5.7784,-5.8159,-5.9521,-6.0725,-6.1181,-6.183,-6.2585,-6.3505,-6.4374,-6.5042,-6.5702,-6.6508,-6.6969,-6.6999,-6.6999,-6.6999,-6.6999,-6.6999,-6.6999,-6.7867,-6.6071,-6.5323,-6.4695,-6.4066,-6.3378,-6.3137,-6.3019,-6.2361,-6.2032,-6.1852,-6.0116,-5.8949,-5.8201,-5.7633,-5.6944,-5.6368,-5.6338,-5.5987,-5.5448,-5.5418,-5.5448,-5.5448,-5.5418,-5.5448,-5.5388,-5.485,-5.4581,-5.4551,-5.3982,-5.3653,-5.3563,-5.3563,-5.3533,-5.3354,-5.1738,-5.1409,-5.2456,-5.4251,-5.5149,-5.4958,-5.465,-5.3341,-5.0955,-4.9395,-4.731,-4.4624,-4.3889,-4.2768,-4.106,-4.0417,-3.9858,-3.9228,-3.7883,-3.7125,0.0,-3.6468,0.0,0.0,0.0,0.0,0.0,0.0,0.0,0.0,-3.9025,-3.9653,-4.1497,-4.2695,-4.3462,-4.3691,-4.4206,-4.5146,-4.6652,-4.7255,-4.7958,-4.8962,-4.9515,-4.9816,-4.9816,-5.0218,-5.0519,-5.0519,-5.0971,-5.1272,-5.1373,-5.1699,-5.2051,-5.2201,-5.2226,-5.2427,-5.2879,-5.298,-5.3406,-5.4351,-5.5759,-5.6881,-5.7487,-5.8516,-5.9869,-5.9762,-6.0335,-6.0877,-6.128,-6.2446,-6.3608,-6.3858,-6.522,-6.6302,-6.6304,-6.6365,-6.6516,-6.6878,-6.6999,-6.6999,-6.8136,-6.67,-6.5533,-6.4964,-6.4725,-6.3588,-6.3137,-6.3049,-6.2391,-6.1792,-6.1283,-6.0894,-6.0057,-5.8919,-5.877,-5.8052,-5.6944,-5.6915,-5.6855,-5.6735,-5.6735,-5.6735,-5.6735,-5.6735,-5.6735,-5.6735,-5.6615,-5.6555,-5.6555,-5.6406,-5.6107,-5.5679,-5.5649,-5.5329,-5.482,0.0,0.0,0.0,-5.473,-5.4788,-5.382,-5.2752,-5.0681,-4.7808,-4.7415,0.0,-4.3304,-4.3052,-4.2558,-4.1658,-4.0491,0.0,0.0,0.0,0.0,0.0,0.0,0.0,0.0,0.0,0.0,0.0,-4.0108,-3.9372,-3.9042,-4.0083,-4.1504,-4.3208,-4.4742,-4.6059,-4.6935,-4.7894,-4.8812,-4.954,-4.9741,-5.0067,-5.072,-5.0896,-5.0971,-5.0971,-5.1046,-5.1122,-5.1147,-5.1222,-5.1473,-5.19,-5.2051,-5.2277,-5.2703,-5.2729,-5.2804,-5.2929,-5.3231,-5.3582,-5.3808,-5.4547,-5.5234,-5.5264,-5.5406,-5.604,-5.6625,-5.6808,-5.7446,-5.8644,-5.9725,-6.07,-6.1449,-6.2434,-6.3457,-6.408,-6.4293,-6.4833,-6.6546,-6.6969,-6.6999,-6.7897,-6.6879,-6.5562,-6.5024,0.0,-6.3647,-6.3137,-6.3049,-6.272,-6.2391,-6.2061,-6.1732,-6.1044,-6.0057,-5.9398,-5.8381,-5.7094,-5.6795,-5.6645,-5.6645,-5.6645,-5.6795,-5.7094,-5.7094,-5.7094,-5.7094,-5.7094,-5.7094,-5.7094,-5.7094,-5.6944,-5.6615,-5.6645,-5.6466,-5.6166,-5.6001,-5.5519,-5.4773,-5.5056,-5.4732,-5.3695,-5.2923,-5.1148,-4.8326,-4.7142,0.0,0.0,0.0,0.0,0.0,0.0,0.0,0.0,-3.9902,-3.9575,-4.0453,-4.0277,-4.0551,-4.163,-4.1982,-4.2836,-4.4443,-4.4844,-4.4192,-4.2283,-4.4141,-4.5773,-4.6577,-4.7682,-4.856,-4.9113,-4.9941,-5.0645,-5.1172,-5.1247,-5.1473,-5.1975,-5.2101,-5.2076,-5.2101,-5.2101,-5.2076,-5.2101,-5.2101,-5.2201,-5.2452,-5.2503,-5.2603,-5.2785,-5.2861,-5.2861,-5.2861,-5.313,-5.3406,-5.3658,-5.3909,-5.426,-5.4461,-5.4561,-5.4774,-5.5101,-5.5172,-5.5497,-5.6418,-5.7554,-5.8602,-5.9172,-6.0569,-6.2091,-6.284,-6.3486,-6.427,-6.571,-6.6011,-6.6011,-6.7567,-6.6879,-6.5712,-6.5203,-6.5114,-6.3917,-6.3348,-6.3228,-6.3139,0.0,0.0,-6.245,-6.1852,-6.1044,-5.9967,-5.874,-5.7453,-5.6944,-5.6705,-5.6705,-5.6675,-5.6944,-5.7453,-5.7453,-5.7453,-5.7453,-5.7453,-5.7453,-5.7453,-5.7453,-5.7453,-5.7453,-5.7573,-5.764,-5.7523,-5.7013,-5.6332,-5.5467,-5.5204,-5.4597,-5.3613,-5.3123,-5.1659,-4.9093,-4.7096,-4.5337,-4.3882,-4.2866,-4.2112,-4.1645,-4.1389,-4.1542,-4.2155,-4.2178,-4.2534,-4.3344,-4.374,-4.4443,-4.5447,-4.5949,-4.6828,-4.8259,-4.9389,-4.8987,-4.6527,-4.8435,-4.9791,-4.9891,-5.0393,-5.0745,-5.0845,-5.1373,-5.1925,-5.2477,-5.2452,-5.2578,-5.298,-5.2886,-5.281,-5.2861,-5.2879,-5.2861,-5.281,-5.281,-5.2861,-5.2861,-5.281,-5.2861,-5.2861,-5.2861,-5.2861,-5.2861,-5.2911,-5.3105,-5.3432,-5.3557,-5.3758,-5.411,-5.421,-5.4285,-5.4285,-5.4285,-5.4285,-5.4371,-5.565,-5.6599,-5.7006,-5.8724,-6.0773,-6.1656,-6.2521,-6.3376,-6.4189,-6.4368,-6.4517,-6.7567,-6.6939,-6.6191,-6.5892,-6.5802,-6.5084,-6.4425,-6.3827,-6.3318,-6.275,-6.2271,-6.275,-6.2241,-6.1104,-6.0924,-6.0086,-5.883,-5.874,-5.868,-5.871,-5.868,-5.874,-5.883,-5.883,-5.883,-5.883,-5.883,-5.883,-5.883,-5.883,-5.883,-5.889,-5.9368,-5.9521,-5.9182,-5.8057,-5.6996,-5.6052,-5.4813,-5.3626,-5.2516,-5.0956,-4.8866,-4.6482,-4.5659,-4.4519,-4.3219,-4.3012,-4.2861,-4.2785,-4.3129,-4.3803,-4.4893,-4.5355,-4.6276,-4.7682,-4.7908,-4.8234,-4.8837,-4.8987,-4.9314,-5.0042,-5.1096,-5.1172,-4.9891,-5.0067,-5.0494,-5.0996,-5.1548,-5.2076,-5.2528,-5.3005,-5.3507,-5.4034,-5.3758,-5.3507,-5.3557,-5.3206,-5.2886,-5.2861,-5.2861,-5.2861,-5.2861,-5.2861,-5.2861,-5.2861,-5.2861,-5.2861,-5.2861,-5.2861,-5.2861,-5.2861,-5.2861,-5.2886,-5.308,-5.3055,-5.3155,-5.313,-5.3231,-5.3306,-5.3306,-5.3306,-5.3281,-5.3206,-5.4057,-5.4686,-5.5267,-5.612,-5.7704,-5.9046,-5.9827,-6.0356,-6.2083,-6.244,-6.2883,-6.7059,-6.643,-6.6131,-6.5802,-6.5443,-6.4755,-6.4096,-6.3498,-6.3199,-6.2929,-6.266,-6.2959,-6.254,-6.1613,-6.0864,-6.0027,-5.9069,-5.8351,-5.8201,-5.856,-5.859,-5.877,-5.9099,-5.9099,-5.9099,-5.9099,-5.9099,-5.9279,-5.9608,-5.9638,-5.9817,-6.0176,-6.0505,-6.0166,-5.9124,-5.8288,-5.7209,-5.5842,-5.4683,-5.3592,-5.2543,-5.1654,-5.0471,-4.8833,-4.8212,-4.7622,-4.7029,-4.6728,-4.6577,-4.6577,-4.6803,-4.7179,-4.7682,-4.8234,-4.8887,-4.9615,-4.9967,-5.0243,-5.0494,-5.0795,-5.1197,-5.1749,-5.2251,-5.2352,-5.1825,-5.1774,-5.1875,-5.2176,-5.2653,-5.3055,-5.3331,-5.3833,-5.4285,-5.4607,-5.431,-5.4059,-5.3758,-5.3507,-5.3231,-5.298,-5.2861,-5.2861,-5.2861,-5.2861,-5.2861,-5.2861,-5.2861,-5.2861,-5.2861,-5.2861,-5.2861,-5.2861,-5.2861,-5.2861,-5.2861,-5.2861,-5.2861,-5.2861,-5.2861,-5.2861,-5.2861,-5.2861,-5.2861,-5.2929,-5.3179,-5.3657,-5.4376,-5.522,-5.6574,-5.8376,-5.9341,-6.0352,-6.185,-6.241,-6.2822,-6.67,-6.6221,-6.6221,-6.5862,-6.5203,-6.4695,-6.4006,-6.3318,-6.3288,-6.3199,-6.3079,-6.3137,-6.272,-6.2002,-6.0835,-5.9967,-5.9219,-5.8082,-5.7842,-5.8321,-5.8351,-5.862,-5.9099,-5.9249,-5.9308,-5.9338,-5.9488,-5.9817,-6.0266,-6.0326,-6.0655,-6.1197,-6.1145,-6.0528,-5.9362,-5.839,-5.7149,-5.5841,-5.4589,-5.3531,-5.277,-5.2642,-5.2221,-5.149,-5.0896,-5.0619,-5.0594,-5.0193,-4.9967,-4.9992,-5.0092,-5.0167,-5.0193,-5.0695,-5.0996,-5.1021,-5.1398,-5.1649,-5.1674,-5.2051,-5.2477,-5.281,-5.2861,-5.298,-5.308,-5.3105,-5.3105,-5.3155,-5.3557,-5.3934,-5.411,-5.4461,-5.4787,-5.4913,-5.4813,-5.4587,-5.416,-5.3884,-5.3557,-5.3155,-5.3005,-5.2861,-5.2861,-5.2861,-5.2861,-5.2861,-5.2861,-5.2861,-5.2861,-5.2861,-5.2861,-5.2861,-5.2861,-5.2861,-5.2861,-5.2861,-5.2861,-5.2861,-5.2861,-5.2861,-5.2861,-5.2861,-5.2861,-5.2929,-5.2929,-5.3247,-5.3929,-5.502,-5.6482,-5.8222,-5.9403,-6.0865,-6.2204,-6.2817,-6.3079,-6.6939,-6.6909,-6.6849,-6.652,-6.5892,-6.5772,-6.4994,-6.3947,-6.3917,-6.3588,-6.3166,-6.3137,-6.272,-6.2061,-6.1343,-6.0655,-5.9967,-5.9249,-5.8949,-5.9009,-5.9009,-5.9069,-5.9219,-5.9727,-5.9997,-6.0057,-6.0595,-6.0864,-6.1014,-6.1044,-6.1373,-6.1885,-6.1401,-6.1145,-6.0992,-5.855,-5.6956,-5.639,-5.418,-5.2959,-5.2866,-5.2412,-5.2093,-5.2026,-5.1498,-5.1197,-5.1222,-5.1147,-5.1122,-5.1172,-5.1599,-5.185,-5.19,-5.2377,-5.261,-5.2653,-5.2729,-5.2779,-5.2754,-5.2829,-5.2854,-5.2861,-5.2955,-5.3155,-5.3557,-5.3632,-5.3632,-5.3758,-5.416,-5.4662,-5.5164,-5.5265,-5.5491,-5.5842,-5.5566,-5.529,-5.5064,-5.431,-5.3683,-5.3658,-5.3206,-5.2861,-5.2861,-5.2861,-5.2861,-5.2861,-5.2861,-5.2861,-5.2861,-5.2861,-5.2861,-5.2861,-5.2861,-5.2861,-5.2861,-5.2861,-5.2861,-5.2861,-5.2861,-5.2861,-5.2861,-5.2861,-5.2929,-5.3136,-5.2998,-5.3247,-5.4174,-5.5286,-5.6612,-5.806,-5.9403,-6.0624,-6.1613,-6.2556,-6.3081,-6.6759,-6.646,-6.6819,-6.637,-6.5443,-6.4994,-6.4306,-6.3498,-6.3468,-6.3288,-6.3109,-6.3137,-6.2929,-6.266,-6.2002,-6.1313,-6.0655,-5.9997,-5.9697,-5.9668,-5.9668,-5.9877,-6.0296,-6.0535,-6.0685,-6.0715,-6.0984,-6.1313,-6.1702,-6.2091,-6.2249,-6.2111,-6.182,-6.1586,-6.1226,-5.9896,-5.869,-5.7706,-5.5959,-5.4686,-5.381,-5.302,-5.2603,-5.2578,-5.2377,-5.2251,-5.2251,-5.2251,-5.2251,-5.2277,-5.2477,-5.2578,-5.2603,-5.2804,-5.2861,-5.2861,-5.2861,-5.2861,-5.2861,-5.2861,-5.2861,-5.2861,-5.3231,-5.3482,-5.3708,-5.431,-5.4687,-5.4737,-5.4913,-5.5164,-5.539,-5.5666,-5.5968,-5.6143,-5.5993,-5.5742,-5.539,-5.4687,-5.411,-5.3733,-5.3256,-5.2861,-5.2861,-5.2861,-5.2861,-5.2861,-5.2861,-5.2861,-5.2929,-5.2861,-5.2861,-5.2861,-5.2861,-5.2861,-5.2861,-5.2861,-5.2861,-5.2861,-5.2861,-5.2861,-5.2861,-5.2861,-5.2998,-5.3452,-5.3452,-5.3929,-5.5113,-5.5683,-5.6704,-5.8459,-6.0534,-6.2028,-6.241,-6.3116,-6.3558,-6.6729,-6.637,-6.661,-6.6071,-6.4994,-6.4276,-6.3647,-6.3166,-6.3137,-6.3137,-6.3137,-6.3137,-6.3137,-6.2989,-6.2391,-6.1822,-6.1343,-6.0685,-6.0386,-6.0386,-6.0356,-6.0625,-6.1104,-6.1313,-6.1373,-6.1403,-6.1583,-6.1912,-6.2361,-6.281,-6.2817,-6.241,-6.2175,-6.191,-6.1584,-6.0865,-5.9863,-5.8843,-5.7167,-5.5631,-5.4485,-5.3452,-5.2861,-5.2861,-5.2861,-5.2861,-5.2861,-5.2861,-5.2861,-5.2861,-5.2861,-5.2861,-5.2861,-5.2861,-5.2861,-5.2861,-5.2861,-5.2861,-5.2861,-5.2861,-5.2861,-5.2886,-5.3406,-5.3783,-5.4059,-5.4838,-5.5415,-5.5591,-5.5616,-5.5616,-5.5666,-5.5968,-5.6194,-5.6219,-5.6219,-5.6018,-5.5641,-5.5139,-5.4587,-5.4009,-5.3532,-5.308,-5.2955,-5.2861,-5.2861,-5.2861,-5.2861,-5.303,-5.3105,-5.3155,-5.3206,-5.3331,-5.3281,-5.308,-5.2911,-5.2861,-5.2861,-5.2861,-5.2861,-5.2861,-5.2861,-5.2861,-5.3136,-5.3589,-5.3861,-5.4552,-5.5789,-5.6444,-5.7898,-6.0426,-6.241,-6.3471,-6.365,-6.4066,-6.4216,-6.6969,-6.6819,-6.6281,-6.5652,-6.4964,-6.4276,-6.3647,-6.3137,-6.3137,-6.3137,-6.3137,-6.3137,-6.3137,-6.3107,-6.245,-6.2091,-6.1942,-6.1373,-6.1074,-6.1074,-6.1074,-6.1104,-6.1164,-6.1732,-6.2061,-6.2091,-6.257,-6.2869,-6.2989,-6.3049,-6.3079,-6.3021,-6.241,-6.241,-6.2585,-6.0897,-5.9711,-5.9436,-5.7048,-5.5274,-5.4485,-5.3521,-5.2861,-5.2861,-5.2861,-5.2861,-5.2861,-5.2861,-5.2861,-5.2861,-5.2861,-5.2861,-5.2861,-5.2861,-5.2861,-5.2861,-5.2861,-5.2861,-5.2861,-5.2861,-5.2861,-5.3005,-5.3457,-5.3934,-5.4436,-5.5064,-5.5616,-5.6118,-5.6093,-5.6118,-5.6118,-5.6143,-5.6219,-5.6219,-5.6219,-5.6194,-5.6143,-5.5591,-5.5139,-5.4536,-5.3909,-5.3381,-5.2911,-5.2861,-5.298,-5.3005,-5.2911,-5.3155,-5.3582,-5.3683,-5.3884,-5.411,-5.3959,-5.3507,-5.308,-5.2861,-5.2861,-5.2861,-5.2861,-5.2861,-5.2861,-5.2998,-5.341,-5.3887,-5.4344,-5.5165,-5.6379,-5.8071,-6.0171,-6.2195,-6.3623,-6.4516,-6.4455,-6.4814,-6.4994,-6.6729,-6.6311,-6.5652,-6.4994,-6.4306,-6.3677,-6.3288,-6.3137,-6.3137,-6.3137,-6.3137,-6.3137,-6.3137,-6.3049,-6.2839,-6.248,-6.2091,-6.1852,-6.1762,-6.1732,-6.1732,-6.1972,-6.2391,-6.263,-6.272,-6.278,-6.2959,-6.3137,-6.3137,-6.3137,-6.3137,-6.3021,-6.241,-6.241,-6.2759,-6.1821,-6.1226,-6.0897,-5.8446,-5.6726,-5.5933,-5.4013,-5.2861,-5.2861,-5.2861,-5.2861,-5.2861,-5.2861,-5.2861,-5.2861,-5.2861,-5.2861,-5.2861,-5.2861,-5.2861,-5.2861,-5.2861,-5.2861,-5.2861,-5.2861,-5.2861,-5.2936,-5.3758,-5.431,-5.4662,-5.5365,-5.5993,-5.6168,-5.6219,-5.6219,-5.6219,-5.6219,-5.6219,-5.6219,-5.6219,-5.6219,-5.6118,-5.5717,-5.5164,-5.4587,-5.3808,-5.313,-5.313,-5.3206,-5.3406,-5.3457,-5.3733,-5.4009,-5.4185,-5.426,-5.4361,-5.4486,-5.4411,-5.4185,-5.4059,-5.3306,-5.2929,-5.2861,-5.2861,-5.298,-5.298,-5.3262,-5.3605,-5.5442,-5.5735,-5.7085,-5.8732,-6.0614,-6.2601,-6.3139,-6.4545,-6.5203,-6.5024,-6.5443,-6.5622,-6.661,-6.5951,-6.5293,-6.4635,-6.3947,-6.3348,-6.3137,-6.3137,-6.3137,-6.3137,-6.3137,-6.3137,-6.2959,-6.2839,-6.2959,-6.272,-6.2181,-6.2301,-6.2391,-6.2421,-6.2421,-6.266,-6.3077,-6.3137,-6.3137,-6.3137,-6.3137,-6.3137,-6.3137,-6.3137,-6.3137,-6.3079,-6.2643,-6.2643,-6.2963,-6.2643,-6.2292,-6.1405,-5.9284,-5.756,-5.6493,-5.419,-5.2861,-5.2929,-5.3247,-5.3247,-5.2929,-5.2861,-5.2861,-5.2861,-5.2861,-5.2861,-5.2861,-5.2861,-5.2861,-5.2861,-5.2861,-5.2861,-5.2861,-5.2861,-5.2861,-5.298,-5.3909,-5.4561,-5.4637,-5.5566,-5.6118,-5.6219,-5.6219,-5.6219,-5.6219,-5.6219,-5.6219,-5.6219,-5.6219,-5.6219,-5.6194,-5.5892,-5.544,-5.4888,-5.411,-5.3582,-5.3482,-5.3783,-5.3959,-5.3984,-5.4361,-5.4587,-5.4787,-5.4838,-5.4938,-5.5039,-5.4963,-5.4863,-5.4662,-5.411,-5.3733,-5.3658,-5.3532,-5.3406,-5.3514,-5.3746,-5.4679,-5.6545,-5.8215,-5.9651,-6.132,-6.3211,-6.3997,-6.4298,-6.5138,-6.6041,-6.6011,-6.6071,-6.6191,-6.658,-6.5892,-6.5293,-6.4575,-6.3887,-6.3318,-6.3137,-6.3137,-6.3137,-6.3049,-6.3017,-6.3077,-6.263,-6.2301,-6.26,-6.26,-6.2271,-6.263,-6.2899,-6.2959,-6.3047,-6.3077,-6.3137,-6.3137,-6.3137,-6.3137,-6.3137,-6.3137,-6.3137,-6.3137,-6.3137,-6.3079,-6.3079,-6.3021,-6.3137,-6.3021,-6.241,-6.1077,-5.9161,-5.746,-5.6052,-5.4039,-5.2998,-5.3179,-5.3903,-5.3971,-5.3042,-5.2998,-5.2998,-5.2929,-5.2861,-5.2861,-5.2861,-5.2861,-5.2861,-5.2861,-5.2861,-5.2861,-5.2861,-5.2861,-5.2861,-5.308,-5.3934,-5.4561,-5.4712,-5.5566,-5.6219,-5.6365,-5.6292,-5.6219,-5.6292,-5.6219,-5.6219,-5.6219,-5.6219,-5.6219,-5.6194,-5.6194,-5.5968,-5.539,-5.4737,-5.4561,-5.4536,-5.4536,-5.4561,-5.4587,-5.4712,-5.4938,-5.5315,-5.539,-5.5616,-5.5867,-5.5691,-5.5415,-5.5214,-5.4963,-5.4834,-5.4632,-5.4456,-5.4306,-5.467,-5.4967,-5.6306,-5.8076,-6.061,-6.2062,-6.325,-6.4924,-6.5407,-6.5768,-6.649,-6.667,-6.664,-6.661,-6.6729,-6.5922,-6.5263,-6.4605,-6.3947,-6.3378,-6.3139,-6.3137,-6.3137,-6.3137,-6.2839,-6.245,-6.2391,-6.2032,-6.1553,-6.1642,-6.1852,-6.2091,-6.2331,-6.263,-6.3077,-6.3137,-6.3137,-6.3137,-6.3137,-6.3137,-6.3137,-6.3137,-6.3137,-6.3137,-6.3137,-6.3137,-6.3137,-6.3137,-6.3137,-6.3137,-6.3079,-6.2643,-6.1584,-5.9284,-5.756,-5.6558,-5.4216,-5.3427,-5.45,-5.4593,-5.4485,-5.4608,-5.4216,-5.3632,-5.2929,-5.2861,-5.2861,-5.2861,-5.2861,-5.2861,-5.2861,-5.2861,-5.2861,-5.2861,-5.2861,-5.2861,-5.313,-5.3959,-5.4486,-5.4687,-5.5566,-5.6387,-5.6776,-5.6558,-5.634,-5.6776,-5.6485,-5.6292,-5.6219,-5.6219,-5.6219,-5.6241,-5.5892,-5.5591,-5.539,-5.4913,-5.4612,-5.4662,-5.4838,-5.5211,-5.5236,-5.5487,-5.5814,-5.594,-5.6037,-5.5968,-5.6143,-5.5968,-5.6012,-5.5908,-5.5998,-5.6183,-5.5929,-5.5583,-5.5669,-5.5989,-5.6885,-5.8146,-6.0104,-6.2612,-6.4155,-6.5369,-6.6036,-6.6429,-6.661,-6.6789,-6.6909,-6.6969,-6.6999,-6.6999,-6.5473,-6.4605,-6.4186,-6.3647,-6.3166,-6.3137,-6.3137,-6.3019,-6.281,-6.248,-6.2121,-6.1822,-6.1373,-6.0894,-6.0984,-6.1343,-6.1732,-6.1972,-6.245,-6.2989,-6.3137,-6.3137,-6.3137,-6.3137,-6.3137,-6.3137,-6.3137,-6.3137,-6.3137,-6.3137,-6.3137,-6.3137,-6.3137,-6.3137,-6.3137,-6.3079,-6.2759,-6.1791,-5.9436,-5.7687,-5.6688,-5.4727,-5.4013,-5.4968,-5.5696,-5.5894,-5.5736,-5.5683,-5.4801,-5.3298,-5.2861,-5.2861,-5.2861,-5.2861,-5.2861,-5.2861,-5.2861,-5.2861,-5.2861,-5.2861,-5.2861,-5.3105,-5.3934,-5.4607,-5.4834,-5.5782,-5.6823,-5.7138,-5.721,-5.7138,-5.7184,-5.6921,-5.651,-5.6219,-5.6219,-5.6365,-5.6435,-5.6327,-5.6175,-5.6074,-5.5846,-5.5501,-5.5336,-5.5749,-5.6053,-5.6175,-5.662,-5.7138,-5.7065,-5.6895,-5.6776,-5.6703,-5.67,-5.6674,-5.6653,-5.6942,-5.7446,-5.7235,-5.6926,-5.7221,-5.7608,-5.8936,-6.0328,-6.2744,-6.515,-6.5453,-6.6486,-6.6637,-6.6849,-6.6969,-6.6999,-6.6999,-6.6999,-6.6999,-6.6999,-6.5203,-6.4036,-6.3947,-6.3588,-6.3166,-6.3137,-6.3019,-6.2957,-6.2421,-6.2061,-6.1792,-6.1283,-6.0685,-6.0296,-6.0565,-6.0924,-6.1224,-6.1702,-6.2361,-6.2899,-6.3137,-6.3137,-6.3137,-6.3137,-6.3137,-6.3137,-6.3137,-6.3137,-6.3137,-6.3137,-6.3137,-6.3137,-6.3137,-6.3137,-6.3137,-6.3137,-6.2759,-6.185,-5.947,-5.7878,-5.7048,-5.5565,-5.482,-5.5087,-5.7184,-5.8007,-5.719,-5.7204,-5.6065,-5.3518,-5.3155,-5.3181,-5.308,-5.2961,-5.313,-5.3155,-5.303,-5.3099,-5.3074,-5.3204,-5.3366,-5.3724,-5.4423,-5.4799,-5.5426,-5.6667,-5.7498,-5.7687,-5.7999,-5.8141,-5.7713,-5.7426,-5.7138,-5.6631,-5.6558,-5.6703,-5.7282,-5.7303,-5.7251,-5.7205,-5.7256,-5.7112,-5.6406,-5.6938,-5.7466,-5.761,-5.8018,-5.8302,-5.8515,-5.8089,-5.7615,-5.7544,-5.7615,-5.7876,-5.7992,-5.8674,-5.9166,-5.9478,-5.9126,-5.928,-5.9735,-6.1024,-6.2249,-6.4745,-6.6453,-6.6786,-6.6969,-6.6999,-6.6999,-6.6999,-6.6999,-6.6999,-6.6999,-6.6999,-6.6999,-6.4784,-6.3977,-6.3498,-6.3228,-6.3137,-6.3137,-6.278,-6.2361,-6.2181,-6.1523,-6.0775,-6.0446,-5.9997,-5.9428,-5.9578,-6.0146,-6.0984,-6.1313,-6.2032,-6.3017,-6.3137,-6.3137,-6.3137,-6.3137,-6.3137,-6.3137,-6.3137,-6.3137,-6.3137,-6.3137,-6.3137,-6.3137,-6.3137,-6.3137,-6.3137,-6.3137,-6.2789,-6.1969,-6.0202,-5.8411,-5.7176,-5.6623,-5.6623,-5.7231,-5.8954,-5.9962,-5.9767,-5.8298,-5.6448,-5.4416,-5.4135,-5.4135,-5.4059,-5.4059,-5.4104,-5.4124,-5.4195,-5.4268,-5.4329,-5.4431,-5.4961,-5.6132,-5.6148,-5.6764,-5.7916,-5.8026,-5.8515,-5.8779,-5.8779,-5.8779,-5.8824,-5.8541,-5.847,-5.8771,-5.7992,-5.7544,-5.8141,-5.8141,-5.7999,-5.7498,-5.7927,-5.783,-5.7733,-5.8347,-5.9236,-5.9166,-5.9236,-5.9236,-5.9584,-5.8982,-5.8373,-5.8586,-5.8797,-5.9096,-5.9558,-6.036,-6.1043,-6.1718,-6.1702,-6.1741,-6.2313,-6.3261,-6.4252,-6.5576,-6.6419,-6.6969,-6.6999,-6.6999,-6.6999,-6.6999,-6.6999,-6.6999,-6.6999,-6.6999,-6.6999,-6.4485,-6.3588,-6.3228,-6.3137,-6.3137,-6.3137,-6.272,-6.2121,-6.1762,-6.1104,-6.0206,-5.9787,-5.9458,-5.9129,-5.9129,-5.9847,-6.0984,-6.1104,-6.1852,-6.2957,-6.3137,-6.3137,-6.3137,-6.3137,-6.3137,-6.3137,-6.3137,-6.3137,-6.3137,-6.3137,-6.3137,-6.3137,-6.3137,-6.3137,-6.3137,-6.3079,-6.2905,-6.2204,-6.0627,-5.8849,-5.756,-5.7588,-5.7715,-5.8491,-6.02,-6.1845,-6.1867,-5.9693,-5.7546,-5.6011,-5.5076,-5.4561,-5.4561,-5.4561,-5.4703,-5.5031,-5.5146,-5.5245,-5.565,-5.6086,-5.6597,-5.717,-5.7429,-5.8016,-5.8552,-5.904,-5.9873,-6.015,-6.0468,-6.0784,-6.0688,-6.0276,-6.0276,-6.0798,-6.0181,-5.9793,-6.0234,-5.9916,-5.9681,-5.9611,-5.9542,-5.9542,-5.9139,-6.036,-6.0729,-6.0729,-6.1002,-6.1097,-6.1165,-6.007,-5.9584,-6.0139,-6.0483,-6.0934,-6.1314,-6.1986,-6.2783,-6.3468,-6.3923,-6.3988,-6.421,-6.4944,-6.5543,-6.6198,-6.6661,-6.6999,-6.6999,-6.6999,-6.6999,-6.6999,-6.6999,-6.6999,-6.6999,-6.6999,-6.6999,-6.4246,-6.3137,-6.3137,-6.3137,-6.3079,-6.2989,-6.254,-6.1912,-6.1283,-6.0595,-5.9937,-5.9338,-5.9189,-5.9099,-5.9129,-5.9847,-6.1104,-6.1104,-6.1942,-6.272,-6.3137,-6.3137,-6.3137,-6.3137,-6.3137,-6.3137,-6.3137,-6.3137,-6.3137,-6.3137,-6.3137,-6.3137,-6.3137,-6.3137,-6.3137,-6.3137,-6.3137,-6.2643,-6.0957,-5.956,-5.8752,-5.8864,-5.9109,-5.9253,-6.1866,-6.3456,-6.3226,-6.1585,-5.9629,-5.8079,-5.593,-5.5168,-5.5001,-5.5118,-5.5612,-5.6313,-5.6539,-5.6505,-5.7209,-5.8094,-5.8429,-5.8254,-5.913,-5.9372,-5.9588,-6.0743,-6.1559,-6.1626,-6.2962,-6.3028,-6.2773,-6.2253,-6.2358,-6.2849,-6.2915,-6.3112,-6.2943,-6.2175,-6.1801,-6.2547,-6.184,-6.1706,-6.1852,-6.2292,-6.2679,-6.2547,-6.2773,-6.284,-6.2707,-6.1947,-6.1947,-6.2508,-6.2745,-6.2943,-6.3272,-6.372,-6.4496,-6.5227,-6.5731,-6.5856,-6.5513,-6.6011,-6.6538,-6.6999,-6.6999,-6.6999,-6.6999,-6.6999,-6.6999,-6.6999,-6.6999,-6.6999,-6.6999,-6.6999,-6.6999,-6.4246,-6.3137,-6.3137,-6.3137,-6.2989,-6.251,-6.1942,-6.1313,-6.0625,-5.9997,-5.9398,-5.9159,-5.9099,-5.9099,-5.9159,-5.9847,-6.1014,-6.1224,-6.1822,-6.3017,-6.3137,-6.3137,-6.3137,-6.3137,-6.3137,-6.3137,-6.3137,-6.3137,-6.3137,-6.3137,-6.3137,-6.3137,-6.3137,-6.3137,-6.3137,-6.3137,-6.3137,-6.2817,-6.1524,-6.0505,-6.0194,-6.0688,-6.1003,-6.1074,-6.3698,-6.5468,-6.5692,-6.4364,-6.2895,-6.1292,-5.8437,-5.6647,-5.7403,-5.7197,-5.7851,-5.9177,-5.8731,-5.8503,-5.9413,-5.9968,-6.0524,-6.1296,-6.1688,-6.2656,-6.3658,-6.315,-6.3357,-6.3357,-6.3712,-6.4009,-6.3879,-6.4303,-6.4467,-6.4787,-6.5324,-6.5856,-6.5731,-6.4396,-6.3328,-6.3037,-6.3103,-6.3131,-6.2717,-6.3988,-6.4339,-6.4368,-6.4432,-6.4496,-6.4081,-6.3598,-6.3887,-6.4303,-6.4496,-6.4531,-6.4723,-6.5036,-6.5543,-6.6073,-6.66,-6.6999,-6.6661,-6.66,-6.6846,-6.6999,-6.6999,-6.6999,-6.6999,-6.6999,-6.6999,-6.6999,-6.6999,-6.6999,-6.6999,-6.6999,-6.6999,-6.4276,-6.3166,-6.3137,-6.3137,-6.2959,-6.2391,-6.1732,-6.1074,-6.0386,-5.9727,-5.9219,-5.9099,-5.9099,-5.9099,-5.9159,-5.9847,-6.1044,-6.1822,-6.2391,-6.2989,-6.3137,-6.3137,-6.3137,-6.3137,-6.3137,-6.3137,-6.3137,-6.3137,-6.3137,-6.3137,-6.3137,-6.3137,-6.3137,-6.3137,-6.3137,-6.3137,-6.3137,-6.2817,-6.1791,-6.1044,-6.1149,-6.1649,-6.2927,-6.364,-6.5438,-6.667,-6.6725,-6.5232,-6.4217,-6.3018,-6.0675,-5.8929,-5.9531,-5.9462,-6.0333,-6.1433,-6.1363,-6.1036,-6.1789,-6.2499,-6.2958,-6.3308,-6.3814,-6.4208,-6.4758,-6.4554,-6.4653,-6.4746,-6.5065,-6.5383,-6.5383,-6.5698,-6.6136,-6.6198,-6.66,-6.6999,-6.6723,-6.5572,-6.4717,-6.4531,-6.4688,-6.4752,-6.5071,-6.5543,-6.5416,-6.5163,-6.5668,-6.5731,-6.529,-6.4944,-6.5353,-6.5698,-6.5948,-6.6073,-6.6136,-6.6322,-6.6476,-6.6723,-6.6785,-6.6999,-6.6846,-6.6846,-6.6999,-6.6999,-6.6999,-6.6999,-6.6999,-6.6999,-6.6999,-6.6999,-6.6999,-6.6999,-6.6999,-6.6999,-6.6999,-6.4156,-6.3137,-6.3137,-6.3137,-6.2959,-6.2271,-6.1613,-6.1044,-6.0266,-5.9578,-5.9189,-5.9099,-5.9099,-5.9099,-5.9099,-5.9877,-6.1134,-6.2391,-6.3019,-6.3107,-6.3137,-6.3137,-6.3137,-6.3137,-6.3137,-6.3137,-6.3137,-6.3137,-6.3137,-6.3137,-6.3137,-6.3137,-6.3137,-6.3137,-6.3137,-6.3137,-6.3137,-6.2963,-6.1969,-6.1668,-6.2011,-6.2424,-6.3703,-6.5588,-6.6398,-6.6909,-6.6785,-6.5702,-6.4758,-6.4503,-6.315,-6.2225,-6.169,-6.1489,-6.2424,-6.3178,-6.3018,-6.3084,-6.3736,-6.4538,-6.4793,-6.4232,-6.5036,-6.5227,-6.4938,-6.5256,-6.5572,-6.5886,-6.6198,-6.6661,-6.6999,-6.6846,-6.6846,-6.6937,-6.6937,-6.6999,-6.6846,-6.6136,-6.6073,-6.6384,-6.6011,-6.5823,-6.6198,-6.66,-6.6228,-6.6011,-6.66,-6.6846,-6.6322,-6.6073,-6.6352,-6.6476,-6.6538,-6.66,-6.6661,-6.6661,-6.6937,-6.6999,-6.6999,-6.6999,-6.6999,-6.6999,-6.6999,-6.6999,-6.6999,-6.6999,-6.6999,-6.6999,-6.6999,-6.6999,-6.6999,-6.6999,-6.6999,-6.6999,-6.6999,-6.3737,-6.3137,-6.3137,-6.3137,-6.2899,-6.1822,-6.1253,-6.0924,-5.9817,-5.9219,-5.9129,-5.9099,-5.9099,-5.9099,-5.9099,-5.9877,-6.1164,-6.2421,-6.3137,-6.3137,-6.3137,-6.3137,-6.3137,-6.3137,-6.3137,-6.3137,-6.3137,-6.3137,-6.3137,-6.3137,-6.3137,-6.3137,-6.3137,-6.3137,-6.3137,-6.3137,-6.3137,-6.3051,-6.2351,-6.2469,-6.3238,-6.3858,-6.4658,-6.6549,-6.6909,-6.6969,-6.6999,-6.6723,-6.6322,-6.5823,-6.5981,-6.5576,-6.4723,-6.3439,-6.3923,-6.5071,-6.4624,-6.4332,-6.51,-6.529,-6.5353,-6.5446,-6.6011,-6.66,-6.6476,-6.6538,-6.6538,-6.66,-6.6723,-6.6999,-6.6999,-6.6999,-6.6999,-6.6999,-6.6999,-6.6999,-6.6937,-6.6785,-6.6661,-6.6908,-6.6785,-6.6661,-6.6846,-6.6999,-6.6723,-6.6476,-6.6723,-6.6999,-6.6723,-6.66,-6.6723,-6.6846,-6.6937,-6.6937,-6.6937,-6.6908,-6.6999,-6.6999,-6.6999,-6.6999,-6.6999,-6.6999,-6.6999,-6.6999,-6.6999,-6.6999,-6.6999,-6.6999,-6.6999,-6.6999,-6.6999,-6.6999,-6.6999,-6.6999,-6.6999,-6.3647,-6.3137,-6.3137,-6.3137,-6.2839,-6.1672,-6.1104,-6.0924,-5.9727,-5.9099,-5.9099,-5.9099,-5.9099,-5.9099,-5.9099,-5.9877,-6.1194,-6.248,-6.3077,-6.3137,-6.3137,-6.3137,-6.3137,-6.3137,-6.3137,-6.3137,-6.3137,-6.3137,-6.3137,-6.3137,-6.3137,-6.3137,-6.3137,-6.3137,-6.3137,-6.3137,-6.3137,-6.2993,-6.2853,-6.3269,-6.4516,-6.5082,-6.6218,-6.6637,-6.6999,-6.6999,-6.6999,-6.6999,-6.6846,-6.66,-6.6785,-6.6814,-6.626,-6.5794,-6.548,-6.6476,-6.6011,-6.5635,-6.6136,-6.6198,-6.626,-6.626,-6.6785,-6.6999,-6.6999,-6.6937,-6.6999,-6.6999,-6.6999,-6.6999,-6.6999,-6.6999,-6.6999,-6.6999,-6.6999,-6.6999,-6.6999,-6.6999,-6.6999,-6.6999,-6.6937,-6.6846,-6.6937,-6.6999,-6.6999,-6.6999,-6.6999,-6.6999,-6.6999,-6.6999,-6.6999,-6.6999,-6.6999,-6.6999,-6.6999,-6.6999,-6.6999,-6.6999,-6.6999,-6.6999,-6.6999,-6.6999,-6.6999,-6.6999,-6.6999,-6.6999,-6.6999,-6.6999,-6.6999,-6.6999,-6.6999,-6.6999,-6.6999,-6.6999,-6.6999,-6.3528,-6.3137,-6.3137,-6.3137,-6.2957,-6.1822,-6.1224,-6.0894,-5.9847,-5.9249,-5.9099,-5.9099,-5.9099,-5.9189,-5.9548,-6.0206,-6.1373,-6.26,-6.3077,-6.3137,-6.3137,-6.3137,-6.3137,-6.3137,-6.3137,-6.3137,-6.3137,-6.3137,-6.3137,-6.3137,-6.3137,-6.3137,-6.3137,-6.3137,-6.3137,-6.3137,-6.3137,-6.3142,-6.3297,-6.3951,-6.5203,-6.6311,-6.6999,-6.6999,-6.6999,-6.6999,-6.6999,-6.6999,-6.6999,-6.6937,-6.6999,-6.6999,-6.6999,-6.6999,-6.6999,-6.6999,-6.6999,-6.6999,-6.6937,-6.6937,-6.6785,-6.6785,-6.6937,-6.6999,-6.6999,-6.6999,-6.6999,-6.6999,-6.6999,-6.6999,-6.6999,-6.6999,-6.6999,-6.6999,-6.6999,-6.6999,-6.6999,-6.6999,-6.6999,-6.6999,-6.6999,-6.6999,-6.6999,-6.6999,-6.6999,-6.6999,-6.6999,-6.6999,-6.6999,-6.6999,-6.6999,-6.6999,-6.6999,-6.6999,-6.6999,-6.6999,-6.6999,-6.6999,-6.6999,-6.6999,-6.6999,-6.6999,-6.6999,-6.6999,-6.6999,-6.6999,-6.6999,-6.6999,-6.6999,-6.6999,-6.6999,-6.6999,-6.6999,-6.6999,-6.6999,-6.3139,-6.3137,-6.3137,-6.3137,-6.2959,-6.2271,-6.1613,-6.1014,-6.0266,-5.9638,-5.9099,-5.9099,-5.9129,-5.9398,-6.0356,-6.1194,-6.2002,-6.266,-6.3137,-6.3137,-6.3137,-6.3137,-6.3137,-6.3137,-6.3137,-6.3137,-6.3137,-6.3137,-6.3137,-6.3137,-6.3137,-6.3137,-6.3137,-6.3137,-6.3137,-6.3137,-6.3137,-6.3169,-6.359,-6.4516,-6.5772,-6.661,-6.6939,-6.6999,-6.6999,-6.6999,-6.6999,-6.6999,-6.6999,-6.6999,-6.6999,-6.6999,-6.6999,-6.6999,-6.6999,-6.6999,-6.6999,-6.6999,-6.6999,-6.6999,-6.6999,-6.6999,-6.6999,-6.6999,-6.6999,-6.6999,-6.6999,-6.6999,-6.6999,-6.6999,-6.6999,-6.6999,-6.6999,-6.6999,-6.6999,-6.6999,-6.6999,-6.6999,-6.6999,-6.6999,-6.6999,-6.6999,-6.6999,-6.6999,-6.6999,-6.6999,-6.6999,-6.6999,-6.6999,-6.6999,-6.6999,-6.6999,-6.6999,-6.6999,-6.6999,-6.6999,-6.6999,-6.6999,-6.6999,-6.6999,-6.6999,-6.6999,-6.6999,-6.6999,-6.6999,-6.6999,-6.6999,-6.6999,-6.6999,-6.6999,-6.6999,-6.6999,-6.6999,-6.6999,-6.6999,-6.3137,-6.3137,-6.3137,-6.3137,-6.2989,-6.2361,-6.1732,-6.1074,-6.0386,-5.9727,-5.9189,-5.9099,-5.9308,-5.9817,-6.0715,-6.1433,-6.2121,-6.278,-6.3079,-6.3137,-6.3137,-6.3137,-6.3137,-6.3137,-6.3137,-6.3137,-6.3137,-6.3137,-6.3137,-6.3137,-6.3137,-6.3137,-6.3137,-6.3137,-6.3137,-6.3137,-6.3137,-6.3348,-6.4066,-6.5233,-6.6281,-6.6819,-6.6999,-6.6999,-6.6999,-6.6999,-6.6999,-6.6999,-6.6999,-6.6999,-6.6999,-6.6999,-6.6999,-6.6999,-6.6999,-6.6999,-6.6999,-6.6999,-6.6999,-6.6999,-6.6999,-6.6999,-6.6999,-6.6999,-6.6999,-6.6999,-6.6999,-6.6999,-6.6999,-6.6999,-6.6999,-6.6999,-6.6999,-6.6999,-6.6999,-6.6999,-6.6999,-6.6999,-6.6999,-6.6999,-6.6999,-6.6999,-6.6999,-6.6999,-6.6999,-6.6999,-6.6999,-6.6999,-6.6999,-6.6999,-6.6999,-6.6999,-6.6999,-6.6999,-6.6999,-6.6999,-6.6999,-6.6999,-6.6999,-6.6999,-6.6999,-6.6999,-6.6999,-6.6999,-6.6999,-6.6999,-6.6999,-6.6999,-6.6999,-6.6999,-6.6999,-6.6999,-6.6999,-6.6999,-6.6999,-6.3137,-6.3137,-6.3137,-6.3137,-6.3107,-6.254,-6.1972,-6.1313,-6.0655,-5.9997,-5.9428,-5.9249,-5.9548,-6.0296,-6.0924,-6.1583,-6.2391,-6.2869,-6.3019,-6.3137,-6.3137,-6.3137,-6.3137,-6.3137,-6.3137,-6.3137,-6.3137,-6.3137,-6.3137,-6.3137,-6.3137,-6.3137,-6.3137,-6.3137,-6.3137,-6.3109,-6.3199,-6.3827,-6.4515,-6.5622,-6.67,-6.6939,-6.6999,-6.6999,-6.6999,-6.6999,-6.6999,-6.6999,-6.6999,-6.6999,-6.6999,-6.6999,-6.6999,-6.6999,-6.6999,-6.6999,-6.6999,-6.6999,-6.6999,-6.6999,-6.6999,-6.6999,-6.6999,-6.6999,-6.6999,-6.6999,-6.6999,-6.6999,-6.6999,-6.6999,-6.6999,-6.6999,-6.6999,-6.6999,-6.6999,-6.6999,-6.6999,-6.6999,-6.6999,-6.6999,-6.6999,-6.6999,-6.6999,-6.6999,-6.6999,-6.6999,-6.6999,-6.6999,-6.6999,-6.6999,-6.6999,-6.6999,-6.6999,-6.6999,-6.6999,-6.6999,-6.6999,-6.6999,-6.6999,-6.6999,-6.6999,-6.6999,-6.6999,-6.6999,-6.6999,-6.6999,-6.6999,-6.6999,-6.6999,-6.6999,-6.6999,-6.6999,-6.6999,-6.6999,-6.6999,-6.3137,-6.3137,-6.3137,-6.3137,-6.3137,-6.3107,-6.26,-6.1912,-6.1283,-6.0565,-5.9787,-5.9458,-5.9817,-6.0745,-6.1134,-6.1792,-6.2959,-6.3049,-6.3137,-6.3137,-6.3137,-6.3137,-6.3137,-6.3137,-6.3137,-6.3137,-6.3137,-6.3137,-6.3137,-6.3137,-6.3137,-6.3137,-6.3137,-6.3137,-6.3137,-6.3166,-6.3617,-6.4246,-6.4815,-6.5622,-6.655,-6.6939,-6.6999,-6.6999,-6.6999,-6.6999,-6.6999,-6.6999,-6.6999,-6.6999,-6.6999,-6.6999,-6.6999,-6.6999,-6.6999,-6.6999,-6.6999,-6.6999,-6.6999,-6.6999,-6.6999,-6.6999,-6.6999,-6.6999,-6.6999,-6.6999,-6.6999,-6.6999,-6.6999,-6.6999,-6.6999,-6.6999,-6.6999,-6.6999,-6.6999,-6.6999,-6.6999,-6.6999,-6.6999,-6.6999,-6.6999,-6.6999,-6.6999,-6.6999,-6.6999,-6.6999,-6.6999,-6.6999,-6.6999,-6.6999,-6.6999,-6.6999,-6.6999,-6.6999,-6.6999,-6.6999,-6.6999,-6.6999,-6.6999,-6.6999,-6.6999,-6.6999,-6.6999,-6.6999,-6.6999,-6.6999,-6.6999,-6.6999,-6.6999,-6.6999,-6.6999,-6.6999,-6.6999,-6.6999,-6.6999,-6.3137,-6.3137,-6.3137,-6.3137,-6.3137,-6.3137,-6.269,-6.2061,-6.1403,-6.0475,-5.9488,-5.9279,-5.9847,-6.0805,-6.1194,-6.1822,-6.2929,-6.3137,-6.3137,-6.3137,-6.3137,-6.3137,-6.3137,-6.3137,-6.3137,-6.3137,-6.3137,-6.3137,-6.3137,-6.3137,-6.3137,-6.3137,-6.3137,-6.3137,-6.3137,-6.3166,-6.3647,-6.4276,-6.4844,-6.5533,-6.6191,-6.6819,-6.6999,-6.6999,-6.6999,-6.6999,-6.6999,-6.6999,-6.6999,-6.6999,-6.6999,-6.6999,-6.6999,-6.6999,-6.6999,-6.6999,-6.6999,-6.6999,-6.6999,-6.6999,-6.6999,-6.6999,-6.6999,-6.6999,-6.6999,-6.6999,-6.6999,-6.6999,-6.6999,-6.6999,-6.6999,-6.6999,-6.6999,-6.6999,-6.6999,-6.6999,-6.6999,-6.6999,-6.6999,-6.6999,-6.6999,-6.6999,-6.6999,-6.6999,-6.6999,-6.6999,-6.6999,-6.6999,-6.6999,-6.6999,-6.6999,-6.6999,-6.6999,-6.6999,-6.6999,-6.6999,-6.6999,-6.6999,-6.6999,-6.6999,-6.6999,-6.6999,-6.6999,-6.6999,-6.6999,-6.6999,-6.6999,-6.6999,-6.6999,-6.6999,-6.6999,-6.6999,-6.6999,-6.6999,-6.6999,-6.3137,-6.3137,-6.3137,-6.3137,-6.3137,-6.3137,-6.269,-6.2061,-6.1403,-6.0356,-5.9159,-5.9308,-6.0027,-6.0894,-6.1403,-6.1972,-6.2839,-6.3137,-6.3137,-6.3137,-6.3137,-6.3137,-6.3137,-6.3137,-6.3137,-6.3137,-6.3137,-6.3137,-6.3137,-6.3137,-6.3137,-6.3137,-6.3137,-6.3137,-6.3137,-6.3166,-6.3378,-6.4006,-6.4695,-6.5353,-6.6011,-6.664,-6.6999,-6.6999,-6.6999,-6.6999,-6.6999,-6.6999,-6.6999,-6.6999,-6.6999,-6.6999,-6.6999,-6.6999,-6.6999,-6.6999,-6.6999,-6.6999,-6.6999,-6.6999,-6.6999,-6.6999,-6.6999,-6.6999,-6.6999,-6.6999,-6.6999,-6.6999,-6.6999,-6.6999,-6.6999,-6.6999,-6.6999,-6.6999,-6.6999,-6.6999,-6.6999,-6.6999,-6.6999,-6.6999,-6.6999,-6.6999,-6.6999,-6.6999,-6.6999,-6.6999,-6.6999,-6.6999,-6.6999,-6.6999,-6.6999,-6.6999,-6.6999,-6.6999,-6.6999,-6.6999,-6.6999,-6.6999,-6.6999,-6.6999,-6.6999,-6.6999,-6.6999,-6.6999,-6.6999,-6.6999,-6.6999,-6.7029,-6.6999,-6.6999,-6.7029,-6.7059,-6.6999,-6.6999,-6.6999,-6.3137,-6.3137,-6.3049,-6.3049,-6.2989,-6.3079,-6.266,-6.2032,-6.1313,-6.0356,-5.9338,-5.9757,-6.0416,-6.1164,-6.1732,-6.2361,-6.2899,-6.3137,-6.3137,-6.3137,-6.3137,-6.3137,-6.3137,-6.3137,-6.3137,-6.3137,-6.3137,-6.3137,-6.3137,-6.3137,-6.3137,-6.3137,-6.3137,-6.3137,-6.3137,-6.3137,-6.3408,-6.3977,-6.4635,-6.5323,-6.5892,-6.658,-6.6939,-6.6999,-6.6999,-6.6999,-6.6999,-6.6999,-6.6999,-6.6999,-6.6999,-6.6999,-6.6999,-6.6999,-6.6999,-6.6999,-6.6999,-6.6999,-6.6999,-6.6999,-6.6999,-6.6999,-6.6999,-6.6999,-6.6999,-6.6999,-6.6999,-6.6999,-6.6999,-6.6999,-6.6999,-6.6999,-6.6999,-6.6999,-6.6999,-6.6999,-6.6999,-6.6999,-6.6999,-6.6999,-6.6999,-6.6999,-6.6999,-6.6999,-6.6999,-6.6999,-6.6999,-6.6999,-6.6999,-6.6999,-6.6999,-6.6999,-6.6999,-6.6999,-6.6999,-6.6999,-6.6999,-6.6999,-6.6999,-6.6999,-6.6999,-6.6999,-6.6999,-6.6999,-6.7029,-6.7029,-6.7059,-6.7059,-6.7358,-6.7627,-6.7238,-6.7148,-6.7059,-6.7178,-6.7418,-6.3137,-6.3049,-6.26,-6.2421,-6.2421,-6.2421,-6.2271,-6.1912,-6.0954,-6.0176,-5.9847,-6.0027,-6.0745,-6.1553,-6.2002,-6.248,-6.3047,-6.3137,-6.3137,-6.3137,-6.3137,-6.3137,-6.3137,-6.3137,-6.3137,-6.3137,-6.3137,-6.3137,-6.3137,-6.3137,-6.3137,-6.3137,-6.3137,-6.3137,-6.3137,-6.3137,-6.3228,-6.3558,-6.4366,-6.5173,-6.5503,-6.637,-6.6999,-6.6999,-6.6999,-6.6999,-6.6999,-6.6999,-6.6999,-6.6999,-6.6999,-6.6999,-6.6999,-6.6999,-6.6999,-6.6999,-6.6999,-6.6999,-6.6999,-6.6999,-6.6999,-6.6999,-6.6999,-6.6999,-6.6999,-6.6999,-6.6999,-6.6999,-6.6999,-6.6999,-6.6999,-6.6999,-6.6999,-6.6999,-6.6999,-6.6999,-6.6999,-6.6999,-6.6999,-6.6999,-6.6999,-6.6999,-6.6999,-6.6999,-6.6999,-6.6999,-6.6999,-6.6999,-6.6999,-6.6999,-6.6999,-6.6999,-6.6999,-6.6999,-6.6999,-6.6999,-6.6999,-6.6999,-6.6999,-6.6999,-6.6999,-6.7029,-6.7089,-6.7148,-6.7119,-6.7089,-6.7448,-6.7807,-6.8196,-6.8315,-6.7986,-6.7717,-6.7687,-6.7986,-6.8435,-6.272,-6.266,-6.2032,-6.1762,-6.1762,-6.1762,-6.1642,-6.1253,-6.0266,-5.9847,-6.0086,-6.0326,-6.1014,-6.1882,-6.2361,-6.257,-6.3137,-6.3137,-6.3137,-6.3137,-6.3137,-6.3137,-6.3137,-6.3137,-6.3137,-6.3137,-6.3137,-6.3137,-6.3137,-6.3137,-6.3137,-6.3137,-6.3137,-6.3137,-6.3137,-6.3137,-6.3079,-6.3498,-6.4276,-6.5054,-6.5473,-6.6161,-6.6969,-6.6999,-6.6999,-6.6999,-6.6999,-6.6999,-6.6999,-6.6999,-6.6999,-6.6999,-6.6999,-6.6999,-6.6999,-6.6999,-6.6999,-6.6999,-6.6999,-6.6999,-6.6999,-6.6999,-6.6999,-6.6999,-6.6999,-6.6999,-6.6999,-6.6999,-6.6999,-6.6999,-6.6999,-6.6999,-6.6999,-6.6999,-6.6999,-6.6999,-6.6999,-6.6999,-6.6999,-6.6999,-6.6999,-6.6999,-6.6999,-6.6999,-6.6999,-6.6999,-6.6999,-6.6999,-6.6999,-6.6999,-6.6999,-6.6999,-6.6999,-6.6999,-6.6999,-6.6999,-6.6999,-6.6999,-6.7029,-6.7089,-6.7148,-6.7208,-6.7238,-6.7418,-6.7747,-6.8046,-6.8286,-6.8615,-6.8824,-6.8944,-6.8854,-6.8615,-6.8405,-6.8704,-6.9153,-6.2061,-6.1972,-6.1373,-6.1104,-6.1074,-6.1014,-6.0655,-6.0027,-5.9398,-5.9518,-6.0176,-6.0835,-6.1493,-6.2181,-6.278,-6.3019,-6.3079,-6.3137,-6.3137,-6.3137,-6.3137,-6.3137,-6.3137,-6.3137,-6.3137,-6.3137,-6.3137,-6.3137,-6.3137,-6.3137,-6.3137,-6.3137,-6.3137,-6.3137,-6.3137,-6.3137,-6.3137,-6.3438,-6.4306,-6.4934,-6.5293,-6.6281,-6.6879,-6.6999,-6.6999,-6.6999,-6.6999,-6.6999,-6.6999,-6.6999,-6.6999,-6.6999,-6.6999,-6.6999,-6.6999,-6.6999,-6.6999,-6.6999,-6.6999,-6.6999,-6.6999,-6.6999,-6.6999,-6.6999,-6.6999,-6.6999,-6.6999,-6.6999,-6.6999,-6.6999,-6.6999,-6.6999,-6.6999,-6.6999,-6.6999,-6.6999,-6.6999,-6.6999,-6.6999,-6.6999,-6.6999,-6.6999,-6.6999,-6.6999,-6.6999,-6.6999,-6.6999,-6.6999,-6.6999,-6.6999,-6.6999,-6.6999,-6.6999,-6.6999,-6.6999,-6.6999,-6.6999,-6.6999,-6.7208,-6.7298,-6.7358,-6.7567,-6.7867,-6.8196,-6.8675,-6.8944,-6.9064,-6.9153,-6.9243,-6.9363,-6.9632,-6.9393,-6.9153,-6.9243,-6.9572,-6.1403,-6.1313,-6.0685,-6.0386,-6.0296,-5.9877,-5.9548,-5.9338,-5.9159,-5.9697,-6.0835,-6.1014,-6.1672,-6.278,-6.2989,-6.3107,-6.3137,-6.3137,-6.3137,-6.3137,-6.3137,-6.3137,-6.3137,-6.3137,-6.3137,-6.3137,-6.3137,-6.3137,-6.3137,-6.3137,-6.3137,-6.3137,-6.3137,-6.3137,-6.3137,-6.3137,-6.3137,-6.3378,-6.4366,-6.4814,-6.5323,-6.6251,-6.6729,-6.6969,-6.6999,-6.6999,-6.6999,-6.6999,-6.6999,-6.6999,-6.6999,-6.6999,-6.6999,-6.6999,-6.6999,-6.6999,-6.6999,-6.6999,-6.6999,-6.6999,-6.6999,-6.6999,-6.6999,-6.6999,-6.6999,-6.6999,-6.6999,-6.6999,-6.6999,-6.6999,-6.6999,-6.6999,-6.6999,-6.6999,-6.6999,-6.6999,-6.6999,-6.6999,-6.6999,-6.6999,-6.6999,-6.6999,-6.6999,-6.6999,-6.6999,-6.6999,-6.6999,-6.6999,-6.6999,-6.6999,-6.6999,-6.6999,-6.6999,-6.6999,-6.7029,-6.7029,-6.6999,-6.7029,-6.7358,-6.7687,-6.7867,-6.8166,-6.8525,-6.8944,-6.9393,-6.9602,-6.9692,-6.9812,-6.9931,-7.026,-7.047,-7.0171,-6.9961,-6.9991,-7.0081,-6.0715,-6.0625,-5.9967,-5.9697,-5.9638,-5.9279,-5.9099,-5.9099,-5.9099,-5.9727,-6.0655,-6.0984,-6.1702,-6.257,-6.2899,-6.3137,-6.3137,-6.3137,-6.3137,-6.3137,-6.3137,-6.3137,-6.3137,-6.3137,-6.3137,-6.3137,-6.3137,-6.3137,-6.3137,-6.3137,-6.3137,-6.3137,-6.3137,-6.3137,-6.3137,-6.3137,-6.3137,-6.3408,-6.3977,-6.4635,-6.5353,-6.6071,-6.655,-6.6969,-6.6999,-6.6999,-6.6999,-6.6999,-6.6999,-6.6999,-6.6999,-6.6999,-6.6999,-6.6999,-6.6999,-6.6999,-6.6999,-6.6999,-6.6999,-6.6999,-6.6999,-6.6999,-6.6999,-6.6999,-6.6999,-6.6999,-6.6999,-6.6999,-6.6999,-6.6999,-6.6999,-6.6999,-6.6999,-6.6999,-6.6999,-6.6999,-6.6999,-6.6999,-6.6999,-6.6999,-6.6999,-6.6999,-6.6999,-6.6999,-6.6999,-6.6999,-6.6999,-6.6999,-6.6999,-6.6999,-6.6999,-6.6999,-6.6999,-6.6999,-6.7059,-6.7208,-6.7388,-6.7597,-6.8046,-6.8345,-6.8465,-6.8854,-6.9363,-6.9752,-7.0111,-7.0201,-7.026,-7.05,-7.0709,-7.0919,-7.0919,-7.0649,-7.044,-7.053,-7.0649,-5.9997,-5.9967,-5.9338,-5.9159,-5.9129,-5.9129,-5.9099,-5.9099,-5.9099,-5.9488,-6.0176,-6.0835,-6.1493,-6.2271,-6.278,-6.3107,-6.3137,-6.3137,-6.3137,-6.3137,-6.3137,-6.3137,-6.3137,-6.3137,-6.3137,-6.3137,-6.3137,-6.3137,-6.3137,-6.3137,-6.3137,-6.3137,-6.3137,-6.3137,-6.3137,-6.3137,-6.3137,-6.3286,-6.3677,-6.4246,-6.5024,-6.5712,-6.6311,-6.6879,-6.6999,-6.6999,-6.6999,-6.6999,-6.6999,-6.6999,-6.6999,-6.6999,-6.6999,-6.6999,-6.6999,-6.6999,-6.6999,-6.6999,-6.6999,-6.6999,-6.6999,-6.6999,-6.6999,-6.6999,-6.6999,-6.6999,-6.6999,-6.6999,-6.6999,-6.6999,-6.6999,-6.6999,-6.6999,-6.6999,-6.6999,-6.6999,-6.6999,-6.6999,-6.6999,-6.6999,-6.6999,-6.6999,-6.6999,-6.6999,-6.6999,-6.6999,-6.6999,-6.6999,-6.6999,-6.6999,-6.7029,-6.7029,-6.6999,-6.7089,-6.7358,-6.7567,-6.7897,-6.8226,-6.8704,-6.8974,-6.9093,-6.9602,-7.0231,-7.041,-7.053,-7.0679,-7.0799,-7.0919,-7.0919,-7.0919,-7.0919,-7.0919,-7.0889,-7.0919,-7.0889,-5.9338,-5.9338,-5.9159,-5.9099,-5.9099,-5.9099,-5.9099,-5.9099,-5.9099,-5.9458,-6.0116,-6.0805,-6.1433,-6.2032,-6.275,-6.3137,-6.3137,-6.3137,-6.3137,-6.3137,-6.3137,-6.3137,-6.3137,-6.3137,-6.3137,-6.3137,-6.3137,-6.3137,-6.3137,-6.3137,-6.3137,-6.3137,-6.3137,-6.3137,-6.3137,-6.3137,-6.3137,-6.3166,-6.3408,-6.4066,-6.4964,-6.5682,-6.6311,-6.6789,-6.6999,-6.6999,-6.6999,-6.6999,-6.6999,-6.6999,-6.6999,-6.6999,-6.6999,-6.6999,-6.6999,-6.6999,-6.6999,-6.6999,-6.6999,-6.6999,-6.6999,-6.6999,-6.6999,-6.6999,-6.6999,-6.6999,-6.6999,-6.6999,-6.6999,-6.6999,-6.6999,-6.6999,-6.6999,-6.6999,-6.6999,-6.6999,-6.6999,-6.6999,-6.6999,-6.6999,-6.6999,-6.6999,-6.6999,-6.6999,-6.6999,-6.6999,-6.6999,-6.6999,-6.6999,-6.6999,-6.7119,-6.7119,-6.7059,-6.7178,-6.7508,-6.8046,-6.8465,-6.8854,-6.9333,-6.9542,-6.9722,-7.0141,-7.059,-7.0739,-7.0859,-7.0919,-7.0919,-7.0919,-7.0919,-7.0919,-7.0949,-7.0949,-7.1009,-7.1038,-7.0979,-5.9099,-5.9099,-5.9099,-5.9099,-5.9099,-5.9099,-5.9099,-5.9099,-5.9099,-5.9308,-5.9787,-6.0625,-6.1343,-6.1852,-6.263,-6.3137,-6.3137,-6.3137,-6.3137,-6.3137,-6.3137,-6.3137,-6.3137,-6.3137,-6.3137,-6.3137,-6.3137,-6.3137,-6.3137,-6.3137,-6.3137,-6.3137,-6.3137,-6.3137,-6.3137,-6.3137,-6.3137,-6.3137,-6.3288,-6.4036,-6.4964,-6.5473,-6.6131,-6.664,-6.6999,-6.6999,-6.6999,-6.6999,-6.6999,-6.6999,-6.6999,-6.6999,-6.6999,-6.6999,-6.6999,-6.6999,-6.6999,-6.6999,-6.6999,-6.6999,-6.6999,-6.6999,-6.6999,-6.6999,-6.6999,-6.6999,-6.6999,-6.6999,-6.6999,-6.6999,-6.6999,-6.6999,-6.6999,-6.6999,-6.6999,-6.6999,-6.6999,-6.6999,-6.6999,-6.6999,-6.6999,-6.6999,-6.6999,-6.6999,-6.6999,-6.6999,-6.6999,-6.6999,-6.6999,-6.7148,-6.7208,-6.7388,-6.7448,-6.7478,-6.7777,-6.8465,-6.9153,-6.9572,-6.9931,-7.0171,-7.035,-7.062,-7.0889,-7.0919,-7.0919,-7.0919,-7.0919,-7.0919,-7.0919,-7.0919,-7.0949,-7.1009,-7.1128,-7.1368,-7.1487,-5.9099,-5.9099,-5.9099,-5.9099,-5.9099,-5.9099,-5.9099,-5.9099,-5.9099,-5.9099,-5.9308,-6.0416,-6.0924,-6.1523,-6.2301,-6.278,-6.3079,-6.3137,-6.3137,-6.3137,-6.3137,-6.3137,-6.3137,-6.3137,-6.3137,-6.3137,-6.3137,-6.3137,-6.3137,-6.3137,-6.3137,-6.3137,-6.3137,-6.3137,-6.3137,-6.3137,-6.3137,-6.3228,-6.3588,-6.4276,-6.4755,-6.5144,-6.5981,-6.661,-6.6999,-6.6999,-6.6999,-6.6999,-6.6999,-6.6999,-6.6999,-6.6999,-6.6999,-6.6999,-6.6999,-6.6999,-6.6999,-6.6999,-6.6999,-6.6999,-6.6999,-6.6999,-6.6999,-6.6999,-6.6999,-6.6999,-6.6999,-6.6999,-6.6999,-6.6999,-6.6999,-6.6999,-6.6999,-6.6999,-6.6999,-6.6999,-6.6999,-6.6999,-6.6999,-6.6999,-6.6999,-6.6999,-6.6999,-6.6999,-6.6999,-6.6999,-6.6999,-6.6999,-6.7059,-6.7328,-6.7508,-6.7897,-6.8226,-6.8256,-6.8375,-6.8854,-6.9692,-7.0081,-7.041,-7.0709,-7.0919,-7.0919,-7.0919,-7.0919,-7.0919,-7.0919,-7.0919,-7.0919,-7.0919,-7.1068,-7.1218,-7.1427,-7.1876,-7.2086,-7.2295,-5.9099,-5.9099,-5.9099,-5.9099,-5.9099,-5.9099,-5.9099,-5.9099,-5.9099,-5.9099,-5.9308,-5.9877,-6.0535,-6.1134,-6.1882,-6.251,-6.3137,-6.3137,-6.3137,-6.3137,-6.3137,-6.3137,-6.3137,-6.3137,-6.3137,-6.3137,-6.3137,-6.3137,-6.3137,-6.3137,-6.3137,-6.3137,-6.3137,-6.3137,-6.3137,-6.3137,-6.3166,-6.3288,-6.3767,-6.4425,-6.5024,-6.5533,-6.6221,-6.67,-6.6999,-6.6999,-6.6999,-6.6999,-6.6999,-6.6999,-6.6999,-6.6999,-6.6999,-6.6999,-6.6999,-6.6999,-6.6999,-6.6999,-6.6999,-6.6999,-6.6999,-6.6999,-6.6999,-6.6999,-6.6999,-6.6999,-6.6999,-6.6999,-6.6999,-6.6999,-6.6999,-6.6999,-6.6999,-6.6999,-6.6999,-6.6999,-6.6999,-6.6999,-6.6999,-6.6999,-6.6999,-6.6999,-6.6999,-6.6999,-6.6999,-6.6999,-6.6999,-6.6999,-6.7059,-6.7388,-6.7777,-6.8315,-6.8824,-6.9363,-6.9632,-6.9512,-7.0081,-7.05,-7.0769,-7.0859,-7.0919,-7.0919,-7.0919,-7.0919,-7.0919,-7.0919,-7.0919,-7.1098,-7.1368,-7.1577,-7.1667,-7.1936,-7.2415,-7.2774,-7.2954]},{"header":{"parameterUnit":"m.s-1","parameterCategory":1,"la1":31.0,"la2":29.5877,"lo1":-88.7671,"lo2":-86.6584,"dy":0.0162,"dx":0.0185,"nx":115,"ny":88,"refTime":"2024-04-27T00:00:00:Z","depth":0,"parameterNumber":3,"parameterNumberName":"V-component_of_WINDS"},"data":[0.0,0.0,0.0,0.0,0.0,0.0,0.0,0.0,0.0,0.0,0.0,0.0,0.0,0.0,0.0,0.0,0.0,0.0,0.0,0.0,0.0,0.0,0.0,0.0,0.0,0.0,0.0,0.0,0.0,0.0,0.0,0.0,0.0,0.0,0.0,0.0,0.0,0.0,0.0,0.0,0.0,0.0,0.0,0.0,0.0,0.0,0.0,0.0,0.0,0.0,0.0,0.0,0.0,0.0,0.0,0.0,0.0,0.0,0.0,0.0,0.0,0.0,0.0,0.0,0.0,0.0,0.0,0.0,0.0,0.0,0.0,0.0,0.0,0.0,0.0,0.0,0.0,0.0,0.0,0.0,0.0,0.0,0.0,0.0,0.0,0.0,0.0,0.0,0.0,0.0,0.0,0.0,0.0,0.0,0.0,0.0,0.0,0.0,0.0,0.0,0.0,0.0,0.0,0.0,0.0,0.0,0.0,0.0,0.0,0.0,0.0,0.0,0.0,0.0,0.0,0.0,0.0,0.0,0.0,0.0,0.0,0.0,0.0,0.0,0.0,0.0,0.0,0.0,0.0,0.0,0.0,0.0,0.0,0.0,0.0,0.0,0.0,0.0,0.0,0.0,0.0,0.0,0.0,0.0,0.0,0.0,0.0,0.0,0.0,0.0,0.0,0.0,0.0,0.0,0.0,0.0,0.0,0.0,0.0,0.0,0.0,0.0,0.0,0.0,0.0,0.0,0.0,0.0,0.0,0.0,0.0,0.0,0.0,0.0,0.0,0.0,0.0,0.0,0.0,0.0,0.0,0.0,0.0,0.0,0.0,0.0,0.0,0.0,0.0,0.0,0.0,0.0,0.0,0.0,0.0,0.0,0.0,0.0,0.0,0.0,0.0,0.0,0.0,0.0,0.0,0.0,0.0,0.0,0.0,0.0,0.0,0.0,0.0,0.0,0.0,0.0,0.0,0.0,0.0,0.0,0.0,0.0,0.0,0.0,0.0,0.0,0.0,0.0,0.0,0.0,0.0,0.0,0.0,0.0,0.0,0.0,0.0,0.0,0.0,0.0,0.0,0.0,0.0,0.0,0.0,0.0,0.0,0.0,0.0,0.0,0.0,0.0,0.0,0.0,0.0,0.0,0.0,0.0,0.0,0.0,0.0,0.0,0.0,0.0,0.0,0.0,0.0,0.0,0.0,0.0,0.0,0.0,0.0,0.0,0.0,0.0,0.0,0.0,0.0,0.0,0.0,0.0,0.0,0.0,0.0,0.0,0.0,0.0,0.0,0.0,0.0,0.0,0.0,0.0,0.0,0.0,0.0,0.0,0.0,0.0,0.0,0.0,0.0,0.0,0.0,0.0,0.0,0.0,0.0,0.0,0.0,0.0,0.0,0.0,0.0,0.0,0.0,0.0,0.0,0.0,0.0,0.0,0.0,0.0,0.0,0.0,0.0,0.0,0.0,0.0,0.0,0.0,0.0,0.0,0.0,0.0,0.0,0.0,0.0,0.0,0.0,0.0,0.0,0.0,0.0,0.0,0.0,0.0,0.0,0.0,0.0,0.0,0.0,0.0,0.0,0.0,0.0,0.0,0.0,0.0,0.0,0.0,0.0,0.0,0.0,0.0,0.0,0.0,0.0,0.0,0.0,0.0,0.0,0.0,0.0,0.0,0.0,0.0,0.0,0.0,0.0,0.0,0.0,0.0,0.0,0.0,0.0,0.0,0.0,0.0,0.0,0.0,0.0,0.0,0.0,0.0,0.0,0.0,0.0,0.0,0.0,0.0,0.0,0.0,0.0,0.0,0.0,0.0,0.0,0.0,0.0,0.0,0.0,0.0,0.0,0.0,0.0,0.0,0.0,0.0,0.0,0.0,0.0,0.0,0.0,0.0,0.0,0.0,0.0,0.0,0.0,0.0,0.0,0.0,0.0,0.0,0.0,0.0,0.0,0.0,0.0,0.0,0.0,0.0,0.0,0.0,0.0,0.0,0.0,0.0,0.0,0.0,0.0,0.0,0.0,0.0,0.0,0.0,0.0,0.0,0.0,0.0,0.0,0.0,0.0,0.0,0.0,0.0,0.0,0.0,0.0,0.0,0.0,0.0,0.0,0.0,0.0,0.0,0.0,0.0,0.0,0.0,0.0,0.0,0.0,0.0,0.0,0.0,0.0,0.0,0.0,0.0,0.0,0.0,0.0,0.0,0.0,0.0,0.0,0.0,0.0,0.0,0.0,0.0,0.0,0.0,0.0,0.0,0.0,0.0,0.0,0.0,0.0,0.0,0.0,0.0,0.0,0.0,0.0,0.0,0.0,0.0,0.0,0.0,0.0,0.0,0.0,0.0,0.0,0.0,0.0,0.0,0.0,0.0,0.0,0.0,0.0,0.0,0.0,0.0,0.0,0.0,0.0,0.0,0.0,0.0,0.0,0.0,0.0,0.0,0.0,0.0,0.0,0.0,0.0,0.0,0.0,0.0,0.0,0.0,0.0,0.0,0.0,0.0,0.0,0.0,0.0,0.0,0.0,0.0,0.0,0.0,0.0,0.0,0.0,0.0,0.0,0.0,0.0,0.0,0.0,0.0,0.0,0.0,0.0,0.0,0.0,0.0,0.0,0.0,0.0,0.0,0.0,0.0,0.0,0.0,0.0,0.0,0.0,0.0,0.0,0.0,0.0,0.0,0.0,0.0,0.0,0.0,0.0,0.0,0.0,0.0,0.0,0.0,0.0,0.0,0.0,0.0,0.0,0.0,0.0,0.0,0.0,0.0,0.0,0.0,0.0,0.0,0.0,0.0,0.0,0.0,0.0,0.0,0.0,0.0,0.0,0.0,0.0,0.0,0.0,0.0,0.0,0.0,0.0,0.0,0.0,0.0,0.0,0.0,0.0,0.0,0.0,0.0,0.0,0.0,0.0,0.0,0.0,0.0,0.0,0.0,0.0,0.0,0.0,0.0,0.0,0.0,0.0,0.0,0.0,0.0,0.0,0.0,0.0,0.0,0.0,0.0,0.0,0.0,0.0,0.0,0.0,0.0,0.0,0.0,0.0,0.0,0.0,0.0,0.0,0.0,0.0,0.0,0.0,0.0,0.0,0.0,0.0,0.0,0.0,0.0,0.0,0.0,0.0,0.0,0.0,0.0,0.0,0.0,0.0,0.0,0.0,0.0,0.0,0.0,0.0,0.0,0.0,0.0,0.0,0.0,0.0,0.0,0.0,0.0,0.0,0.0,0.0,0.0,0.0,0.0,0.0,0.0,0.0,0.0,0.0,0.0,0.0,0.0,0.0,0.0,0.0,0.0,0.0,0.0,0.0,0.0,0.0,0.0,0.0,0.0,0.0,0.0,0.0,0.0,0.0,0.0,0.0,0.0,0.0,0.0,0.0,0.0,0.0,0.0,0.0,0.0,0.0,0.0,0.0,0.0,0.0,0.0,0.0,0.0,0.0,0.0,0.0,0.0,0.0,0.0,0.0,0.0,0.0,0.0,0.0,0.0,0.0,0.0,0.0,0.0,0.0,0.0,0.0,0.0,0.0,0.0,0.0,0.0,0.0,0.0,0.0,0.0,0.0,0.0,0.0,0.0,0.0,0.0,0.0,0.0,0.0,0.0,0.0,0.0,0.0,0.0,0.0,0.0,0.0,0.0,0.0,0.0,0.0,0.0,0.0,0.0,0.0,0.0,0.0,0.0,0.0,0.0,0.0,0.0,0.0,0.0,0.0,0.0,0.0,0.0,0.0,0.0,0.0,0.0,0.0,0.0,0.0,0.0,0.0,0.0,0.0,0.0,0.0,0.0,0.0,0.0,0.0,0.0,0.0,0.0,0.0,0.0,0.0,0.0,0.0,0.0,0.0,0.0,0.0,0.0,0.0,0.0,0.0,0.0,0.0,0.0,0.0,0.0,0.0,0.0,0.0,0.0,0.0,0.0,0.0,0.0,0.0,0.0,0.0,0.0,0.0,0.0,0.0,0.0,0.0,0.0,0.0,0.0,0.0,0.0,0.0,0.0,0.0,0.0,0.0,0.0,0.0,0.0,0.0,0.0,0.0,0.0,0.0,0.0,0.0,0.0,0.0,0.0,0.0,0.0,0.0,0.0,0.0,0.0,0.0,0.0,0.0,0.0,0.0,0.0,0.0,0.0,0.0,0.0,0.0,0.0,0.0,0.0,0.0,0.0,0.0,0.0,0.0,0.0,0.0,0.0,0.0,0.0,0.0,0.0,0.0,0.0,0.0,0.0,0.0,0.0,0.0,0.0,0.0,0.0,0.0,0.0,0.0,0.0,2.6953,0.0,0.0,0.0,0.0,0.0,0.0,0.0,0.0,0.0,0.0,0.0,0.0,0.0,0.0,0.0,0.0,0.0,0.0,0.0,0.0,0.0,0.0,0.0,0.0,0.0,0.0,0.0,0.0,0.0,0.0,0.0,0.0,0.0,0.0,0.0,0.0,0.0,0.0,0.0,0.0,0.0,0.0,0.0,0.0,0.0,0.0,0.0,0.0,0.0,0.0,0.0,0.0,0.0,0.0,0.0,0.0,0.0,0.0,0.0,0.0,0.0,0.0,0.0,0.0,0.0,0.0,0.0,0.0,0.0,0.0,0.0,0.0,0.0,0.0,0.0,0.0,0.0,0.0,0.0,0.0,0.0,0.0,0.0,0.0,0.0,0.0,0.0,0.0,0.0,0.0,0.0,0.0,0.0,0.0,0.0,0.0,0.0,0.0,0.0,0.0,0.0,0.0,0.0,0.0,0.0,0.0,0.0,0.0,0.0,0.0,2.8301,2.8281,2.7943,2.7461,2.7031,0.0,0.0,0.0,0.0,0.0,0.0,0.0,0.0,0.0,0.0,0.0,0.0,0.0,0.0,0.0,0.0,0.0,0.0,0.0,0.0,0.0,0.0,0.0,0.0,0.0,0.0,0.0,0.0,0.0,0.0,0.0,0.0,0.0,0.0,0.0,0.0,0.0,0.0,0.0,0.0,0.0,0.0,0.0,0.0,0.0,0.0,0.0,0.0,0.0,0.0,0.0,0.0,0.0,0.0,0.0,0.0,0.0,0.0,0.0,0.0,0.0,0.0,0.0,0.0,0.0,0.0,0.0,0.0,0.0,0.0,0.0,0.0,0.0,0.0,0.0,0.0,0.0,0.0,0.0,0.0,0.0,0.0,0.0,0.0,0.0,0.0,0.0,0.0,0.0,0.0,0.0,0.0,0.0,0.0,0.0,0.0,0.0,0.0,0.0,0.0,0.0,0.0,0.0,0.0,0.0,0.0,0.0,0.0,0.0,0.0,0.0,0.0,2.8418,2.7988,2.7461,0.0,0.0,0.0,0.0,0.0,0.0,0.0,0.0,0.0,0.0,0.0,0.0,0.0,0.0,0.0,0.0,0.0,0.0,0.0,0.0,0.0,0.0,0.0,0.0,0.0,0.0,0.0,0.0,0.0,0.0,0.0,0.0,0.0,0.0,0.0,0.0,0.0,0.0,0.0,0.0,0.0,0.0,0.0,0.0,0.0,0.0,0.0,0.0,0.0,0.0,0.0,0.0,0.0,0.0,0.0,0.0,0.0,0.0,0.0,0.0,0.0,0.0,0.0,0.0,0.0,0.0,0.0,0.0,0.0,0.0,0.0,0.0,0.0,0.0,0.0,0.0,0.0,0.0,0.0,0.0,0.0,0.0,0.0,0.0,0.0,0.0,0.0,0.0,0.0,0.0,0.0,0.0,0.0,0.0,0.0,0.0,0.0,0.0,0.0,0.0,0.0,0.0,0.0,0.0,0.0,0.0,0.0,0.0,0.0,0.0,2.8848,2.998,2.998,0.0,2.875,0.0,0.0,0.0,0.0,0.0,0.0,0.0,0.0,0.0,0.0,0.0,0.0,0.0,0.0,0.0,0.0,0.0,0.0,0.0,0.0,0.0,0.0,0.0,0.0,0.0,0.0,0.0,0.0,0.0,0.0,0.0,0.0,0.0,0.0,0.0,0.0,0.0,0.0,0.0,0.0,0.0,0.0,0.0,0.0,0.0,0.0,0.0,0.0,0.0,0.0,0.0,0.0,0.0,0.0,0.0,0.0,0.0,0.0,0.0,0.0,0.0,0.0,0.0,0.0,0.0,0.0,0.0,0.0,0.0,0.0,0.0,0.0,0.0,0.0,0.0,0.0,0.0,0.0,0.0,0.0,0.0,0.0,0.0,0.0,0.0,0.0,0.0,0.0,0.0,0.0,0.0,0.0,0.0,0.0,0.0,0.0,0.0,0.0,0.0,0.0,0.0,0.0,0.0,0.0,0.0,0.0,0.0,0.0,0.0,0.0,2.916,3.0176,2.9707,2.9043,0.0,0.0,0.0,0.0,0.0,0.0,0.0,0.0,0.0,0.0,0.0,0.0,0.0,0.0,0.0,0.0,0.0,0.0,0.0,0.0,0.0,0.0,0.0,0.0,0.0,0.0,0.0,0.0,0.0,0.0,0.0,0.0,0.0,0.0,0.0,0.0,0.0,0.0,0.0,0.0,0.0,0.0,0.0,0.0,0.0,0.0,0.0,0.0,0.0,0.0,0.0,0.0,0.0,0.0,0.0,0.0,0.0,0.0,0.0,0.0,0.0,0.0,0.0,0.0,0.0,0.0,0.0,0.0,0.0,0.0,0.0,0.0,0.0,0.0,0.0,0.0,0.0,0.0,0.0,0.0,0.0,0.0,0.0,0.0,0.0,0.0,0.0,0.0,0.0,0.0,0.0,0.0,0.0,0.0,0.0,0.0,0.0,0.0,0.0,0.0,0.0,0.0,0.0,0.0,0.0,0.0,0.0,0.0,0.0,0.0,2.9199,2.9512,3.0293,2.9434,2.8574,2.7924,0.0,0.0,0.0,0.0,0.0,0.0,0.0,0.0,0.0,0.0,0.0,0.0,0.0,0.0,0.0,0.0,0.0,0.0,0.0,0.0,0.0,0.0,0.0,0.0,0.0,0.0,0.0,0.0,0.0,0.0,0.0,0.0,0.0,0.0,0.0,0.0,0.0,0.0,0.0,0.0,0.0,0.0,0.0,0.0,0.0,0.0,0.0,0.0,0.0,0.0,0.0,0.0,0.0,0.0,0.0,0.0,0.0,0.0,0.0,0.0,0.0,0.0,0.0,0.0,0.0,0.0,0.0,0.0,0.0,0.0,0.0,0.0,0.0,0.0,0.0,0.0,0.0,0.0,0.0,0.0,0.0,0.0,0.0,0.0,0.0,0.0,0.0,0.0,0.0,0.0,0.0,0.0,0.0,0.0,0.0,0.0,0.0,0.0,0.0,0.0,0.0,0.0,0.0,0.0,0.0,0.0,0.0,0.0,3.1758,3.0389,2.9961,3.0781,2.959,2.8711,0.0,0.0,0.0,0.0,0.0,0.0,0.0,0.0,0.0,0.0,0.0,0.0,0.0,0.0,0.0,0.0,0.0,0.0,0.0,0.0,0.0,0.0,0.0,0.0,0.0,0.0,0.0,0.0,0.0,0.0,0.0,0.0,0.0,0.0,0.0,0.0,0.0,0.0,0.0,0.0,0.0,0.0,0.0,0.0,0.0,0.0,0.0,0.0,0.0,0.0,0.0,0.0,0.0,0.0,0.0,0.0,0.0,0.0,0.0,0.0,0.0,0.0,0.0,0.0,0.0,0.0,0.0,0.0,0.0,0.0,0.0,0.0,0.0,0.0,0.0,0.0,0.0,0.0,0.0,0.0,0.0,0.0,0.0,0.0,0.0,0.0,0.0,0.0,0.0,0.0,0.0,0.0,0.0,0.0,0.0,0.0,0.0,0.0,0.0,0.0,0.0,0.0,0.0,0.0,0.0,0.0,0.0,0.0,0.0,2.8828,2.9043,2.957,3.0351,2.8926,2.8184,0.0,0.0,0.0,0.0,0.0,0.0,0.0,0.0,0.0,0.0,0.0,0.0,0.0,0.0,0.0,0.0,0.0,0.0,0.0,0.0,0.0,0.0,0.0,0.0,0.0,0.0,0.0,0.0,0.0,0.0,0.0,0.0,0.0,0.0,0.0,0.0,0.0,0.0,0.0,0.0,0.0,0.0,0.0,0.0,0.0,0.0,0.0,0.0,0.0,0.0,0.0,0.0,0.0,0.0,0.0,0.0,0.0,0.0,0.0,0.0,0.0,0.0,0.0,0.0,0.0,0.0,0.0,0.0,0.0,0.0,0.0,0.0,0.0,0.0,0.0,0.0,0.0,0.0,0.0,0.0,0.0,0.0,0.0,0.0,0.0,0.0,0.0,0.0,0.0,0.0,0.0,0.0,0.0,0.0,0.0,0.0,0.0,0.0,0.0,0.0,0.0,0.0,0.0,0.0,0.0,0.0,0.0,0.0,0.0,2.7656,0.0,2.9707,2.9531,2.834,2.7461,0.0,0.0,0.0,0.0,0.0,0.0,0.0,0.0,0.0,0.0,0.0,0.0,0.0,0.0,0.0,0.0,0.0,0.0,0.0,0.0,0.0,0.0,0.0,0.0,0.0,0.0,0.0,0.0,0.0,0.0,0.0,0.0,0.0,0.0,0.0,0.0,0.0,0.0,0.0,0.0,0.0,0.0,0.0,0.0,0.0,0.0,0.0,0.0,0.0,0.0,0.0,0.0,0.0,0.0,0.0,0.0,0.0,0.0,0.0,0.0,0.0,0.0,0.0,0.0,0.0,0.0,0.0,0.0,0.0,0.0,0.0,0.0,0.0,0.0,0.0,0.0,0.0,0.0,0.0,0.0,0.0,0.0,0.0,0.0,0.0,0.0,0.0,0.0,0.0,0.0,0.0,0.0,0.0,0.0,0.0,0.0,0.0,0.0,0.0,0.0,0.0,0.0,0.0,0.0,0.0,0.0,0.0,0.0,2.7246,2.8828,3.0508,3.041,2.8437,2.791,2.668,0.0,0.0,0.0,0.0,0.0,0.0,0.0,0.0,0.0,0.0,0.0,0.0,0.0,0.0,0.0,0.0,0.0,0.0,0.0,0.0,0.0,0.0,0.0,0.0,0.0,0.0,0.0,0.0,0.0,0.0,0.0,0.0,0.0,0.0,0.0,0.0,0.0,0.0,0.0,0.0,0.0,0.0,0.0,0.0,0.0,0.0,0.0,0.0,0.0,0.0,0.0,0.0,0.0,0.0,0.0,0.0,0.0,0.0,0.0,0.0,0.0,0.0,0.0,0.0,0.0,0.0,0.0,0.0,0.0,0.0,0.0,0.0,0.0,0.0,0.0,0.0,0.0,0.0,0.0,0.0,0.0,0.0,0.0,0.0,0.0,0.0,0.0,0.0,0.0,0.0,0.0,0.0,0.0,0.0,0.0,0.0,0.0,0.0,0.0,0.0,0.0,0.0,0.0,0.0,0.0,0.0,0.0,0.0,0.0,2.7656,2.893,2.998,3.041,2.8086,2.7168,0.0,0.0,0.0,0.0,0.0,0.0,0.0,0.0,0.0,0.0,0.0,0.0,0.0,0.0,0.0,0.0,0.0,0.0,0.0,0.0,0.0,0.0,0.0,0.0,0.0,0.0,0.0,0.0,0.0,0.0,0.0,0.0,0.0,0.0,0.0,0.0,0.0,0.0,0.0,0.0,0.0,0.0,0.0,0.0,0.0,0.0,0.0,0.0,0.0,0.0,0.0,0.0,0.0,0.0,0.0,0.0,0.0,0.0,0.0,0.0,0.0,0.0,0.0,0.0,0.0,0.0,0.0,0.0,0.0,0.0,0.0,0.0,0.0,0.0,0.0,0.0,0.0,0.0,0.0,0.0,0.0,0.0,0.0,0.0,0.0,0.0,0.0,0.0,0.0,0.0,0.0,0.0,0.0,0.0,0.0,0.0,0.0,0.0,0.0,0.0,0.0,0.0,0.0,0.0,0.0,0.0,0.0,0.0,0.0,2.8789,2.9941,3.0723,3.1016,2.8613,2.7578,2.8066,0.0,0.0,0.0,0.0,0.0,0.0,0.0,0.0,0.0,0.0,0.0,0.0,0.0,0.0,0.0,0.0,0.0,0.0,0.0,0.0,0.0,0.0,0.0,0.0,0.0,0.0,0.0,0.0,0.0,0.0,0.0,0.0,0.0,0.0,0.0,0.0,0.0,0.0,0.0,0.0,0.0,0.0,0.0,0.0,0.0,0.0,0.0,0.0,0.0,0.0,0.0,0.0,0.0,0.0,0.0,0.0,0.0,0.0,0.0,0.0,0.0,0.0,0.0,0.0,0.0,0.0,0.0,0.0,0.0,0.0,0.0,0.0,0.0,0.0,0.0,0.0,0.0,0.0,0.0,0.0,0.0,0.0,0.0,0.0,0.0,0.0,0.0,0.0,0.0,0.0,0.0,0.0,0.0,0.0,0.0,0.0,0.0,0.0,0.0,0.0,0.0,0.0,0.0,0.0,0.0,0.0,0.0,0.0,3.166,3.2949,3.2656,3.0625,2.957,2.8086,0.0,0.0,0.0,0.0,0.0,0.0,0.0,0.0,0.0,0.0,0.0,0.0,0.0,0.0,0.0,0.0,0.0,0.0,0.0,0.0,0.0,0.0,0.0,0.0,0.0,0.0,0.0,0.0,0.0,0.0,0.0,0.0,0.0,0.0,0.0,0.0,0.0,0.0,0.0,0.0,0.0,0.0,0.0,0.0,0.0,0.0,0.0,0.0,0.0,0.0,0.0,0.0,0.0,0.0,0.0,0.0,0.0,0.0,0.0,0.0,0.0,0.0,0.0,0.0,0.0,0.0,0.0,0.0,0.0,0.0,0.0,0.0,0.0,0.0,0.0,0.0,0.0,0.0,0.0,0.0,0.0,0.0,0.0,0.0,0.0,0.0,0.0,0.0,0.0,0.0,0.0,0.0,0.0,0.0,0.0,0.0,0.0,0.0,0.0,0.0,0.0,0.0,0.0,0.0,0.0,0.0,0.0,0.0,0.0,3.3398,3.5293,3.5566,3.4043,3.166,3.0117,0.0,0.0,0.0,0.0,0.0,0.0,0.0,0.0,0.0,0.0,0.0,0.0,0.0,0.0,0.0,0.0,0.0,0.0,0.0,0.0,0.0,0.0,0.0,0.0,0.0,0.0,0.0,0.0,0.0,0.0,0.0,0.0,0.0,0.0,0.0,0.0,0.0,0.0,0.0,0.0,0.0,0.0,0.0,0.0,0.0,0.0,0.0,0.0,0.0,0.0,0.0,0.0,0.0,0.0,0.0,0.0,0.0,0.0,0.0,0.0,0.0,0.0,0.0,0.0,0.0,0.0,0.0,0.0,0.0,0.0,0.0,0.0,0.0,0.0,0.0,0.0,0.0,0.0,0.0,0.0,0.0,0.0,0.0,0.0,0.0,0.0,0.0,0.0,0.0,0.0,0.0,0.0,0.0,0.0,0.0,0.0,0.0,0.0,0.0,0.0,0.0,0.0,0.0,0.0,0.0,0.0,0.0,0.0,3.3982,3.5611,3.8343,3.9036,3.7568,3.4595,3.2168,0.0,0.0,0.0,0.0,0.0,0.0,0.0,0.0,0.0,0.0,0.0,0.0,0.0,0.0,0.0,0.0,0.0,0.0,0.0,0.0,0.0,0.0,0.0,0.0,0.0,0.0,0.0,0.0,0.0,0.0,0.0,0.0,0.0,0.0,0.0,0.0,0.0,0.0,0.0,0.0,0.0,0.0,0.0,0.0,0.0,0.0,0.0,0.0,0.0,0.0,0.0,0.0,0.0,0.0,0.0,0.0,0.0,0.0,0.0,0.0,0.0,0.0,0.0,0.0,0.0,0.0,0.0,0.0,0.0,0.0,0.0,0.0,0.0,0.0,0.0,0.0,0.0,0.0,0.0,0.0,0.0,0.0,0.0,0.0,0.0,0.0,0.0,0.0,0.0,0.0,0.0,0.0,0.0,0.0,0.0,0.0,0.0,0.0,0.0,0.0,0.0,0.0,0.0,0.0,0.0,0.0,0.0,0.0,3.6789,3.8408,4.1762,4.271,4.0924,3.7797,3.4152,0.0,0.0,0.0,0.0,0.0,0.0,0.0,0.0,0.0,0.0,0.0,0.0,0.0,0.0,0.0,0.0,0.0,0.0,0.0,0.0,0.0,0.0,0.0,0.0,0.0,0.0,0.0,0.0,0.0,0.0,0.0,0.0,0.0,0.0,0.0,0.0,0.0,0.0,0.0,0.0,0.0,0.0,0.0,0.0,0.0,0.0,0.0,0.0,0.0,0.0,0.0,0.0,0.0,0.0,0.0,0.0,0.0,0.0,0.0,0.0,0.0,0.0,0.0,0.0,0.0,0.0,0.0,0.0,0.0,0.0,0.0,0.0,0.0,0.0,0.0,0.0,0.0,0.0,0.0,0.0,0.0,0.0,0.0,0.0,0.0,0.0,0.0,0.0,0.0,0.0,0.0,0.0,0.0,0.0,0.0,0.0,0.0,0.0,0.0,0.0,0.0,0.0,0.0,0.0,0.0,0.0,0.0,0.0,4.0081,4.237,4.498,4.5733,4.46,3.9605,3.5308,0.0,0.0,0.0,0.0,0.0,0.0,0.0,0.0,0.0,0.0,0.0,0.0,0.0,0.0,0.0,0.0,0.0,0.0,0.0,0.0,0.0,0.0,0.0,0.0,0.0,0.0,0.0,0.0,0.0,0.0,0.0,0.0,0.0,0.0,0.0,0.0,0.0,0.0,0.0,0.0,0.0,0.0,0.0,0.0,0.0,0.0,0.0,0.0,3.1037,0.0,0.0,0.0,0.0,0.0,0.0,0.0,0.0,0.0,0.0,0.0,0.0,0.0,0.0,0.0,0.0,0.0,0.0,0.0,0.0,0.0,0.0,0.0,0.0,0.0,0.0,0.0,0.0,0.0,0.0,0.0,0.0,0.0,0.0,0.0,0.0,0.0,0.0,0.0,0.0,0.0,0.0,0.0,0.0,0.0,0.0,0.0,0.0,0.0,0.0,0.0,0.0,0.0,0.0,0.0,0.0,0.0,0.0,0.0,4.2679,4.5094,4.7656,4.8332,4.6836,4.2772,3.8337,0.0,0.0,0.0,0.0,0.0,0.0,0.0,0.0,0.0,0.0,0.0,0.0,0.0,0.0,0.0,0.0,0.0,0.0,0.0,0.0,0.0,0.0,0.0,0.0,0.0,0.0,0.0,0.0,0.0,0.0,0.0,0.0,0.0,0.0,0.0,0.0,0.0,0.0,0.0,0.0,0.0,0.0,0.0,0.0,0.0,0.0,0.0,0.0,0.0,0.0,0.0,0.0,0.0,0.0,0.0,0.0,0.0,0.0,0.0,0.0,0.0,0.0,0.0,0.0,0.0,0.0,0.0,0.0,0.0,0.0,0.0,0.0,0.0,0.0,0.0,0.0,0.0,0.0,0.0,0.0,0.0,0.0,0.0,0.0,0.0,0.0,0.0,0.0,0.0,0.0,0.0,0.0,0.0,0.0,0.0,0.0,0.0,0.0,0.0,0.0,0.0,0.0,0.0,0.0,0.0,0.0,0.0,4.1245,4.4909,4.7637,5.0093,5.0604,4.8968,4.654,4.2299,3.6121,0.0,0.0,0.0,0.0,0.0,0.0,0.0,0.0,0.0,0.0,0.0,0.0,0.0,0.0,0.0,0.0,0.0,0.0,0.0,0.0,0.0,0.0,0.0,0.0,0.0,0.0,0.0,0.0,0.0,0.0,0.0,0.0,0.0,0.0,0.0,0.0,0.0,0.0,3.3935,3.5617,0.0,0.0,0.0,0.0,0.0,0.0,0.0,0.0,3.5543,0.0,0.0,0.0,0.0,0.0,0.0,0.0,0.0,0.0,0.0,0.0,0.0,0.0,0.0,0.0,0.0,0.0,0.0,0.0,0.0,0.0,0.0,0.0,0.0,0.0,0.0,0.0,0.0,0.0,0.0,0.0,0.0,0.0,0.0,0.0,0.0,0.0,0.0,0.0,0.0,0.0,0.0,0.0,0.0,0.0,0.0,0.0,0.0,0.0,0.0,0.0,0.0,0.0,0.0,0.0,0.0,4.2337,4.373,4.66,5.1135,5.2604,5.2884,5.2109,5.0347,4.6445,4.0232,0.0,0.0,0.0,0.0,0.0,0.0,0.0,0.0,0.0,0.0,0.0,0.0,0.0,0.0,0.0,0.0,0.0,0.0,0.0,0.0,0.0,0.0,0.0,0.0,0.0,0.0,0.0,0.0,0.0,0.0,0.0,0.0,0.0,0.0,0.0,0.0,0.0,0.0,0.0,3.9104,3.9859,0.0,0.0,0.0,0.0,0.0,0.0,0.0,0.0,3.6395,0.0,0.0,0.0,0.0,0.0,0.0,0.0,0.0,0.0,0.0,0.0,0.0,0.0,0.0,0.0,0.0,0.0,0.0,0.0,0.0,0.0,0.0,0.0,0.0,0.0,0.0,0.0,0.0,0.0,0.0,0.0,0.0,0.0,0.0,0.0,0.0,0.0,0.0,0.0,0.0,0.0,0.0,0.0,0.0,0.0,0.0,0.0,0.0,0.0,0.0,0.0,0.0,0.0,0.0,0.0,4.2354,4.502,4.8335,5.2377,5.303,5.3181,5.2854,4.964,4.5874,0.0,0.0,0.0,0.0,0.0,0.0,0.0,0.0,0.0,0.0,0.0,0.0,0.0,0.0,0.0,0.0,0.0,0.0,0.0,0.0,0.0,0.0,0.0,0.0,0.0,0.0,0.0,0.0,0.0,0.0,0.0,0.0,0.0,0.0,0.0,0.0,0.0,0.0,0.0,0.0,4.1096,4.171,4.1915,0.0,0.0,0.0,0.0,0.0,0.0,3.8785,3.8679,0.0,0.0,0.0,0.0,0.0,0.0,0.0,0.0,0.0,0.0,0.0,0.0,0.0,0.0,0.0,0.0,0.0,0.0,0.0,0.0,0.0,0.0,0.0,0.0,0.0,0.0,0.0,0.0,0.0,0.0,0.0,0.0,0.0,0.0,0.0,0.0,0.0,0.0,0.0,0.0,0.0,0.0,0.0,0.0,0.0,0.0,0.0,0.0,0.0,0.0,0.0,0.0,0.0,0.0,0.0,4.153,4.5397,4.9213,5.266,5.2861,5.2879,5.2703,4.846,4.4844,0.0,0.0,0.0,0.0,0.0,0.0,0.0,0.0,0.0,0.0,0.0,0.0,0.0,0.0,0.0,0.0,0.0,0.0,0.0,0.0,0.0,0.0,0.0,0.0,0.0,0.0,0.0,0.0,0.0,0.0,0.0,0.0,0.0,0.0,0.0,0.0,0.0,0.0,0.0,0.0,0.0,4.3489,4.4317,4.3162,0.0,0.0,0.0,0.0,4.1178,4.1279,0.0,0.0,0.0,0.0,0.0,0.0,0.0,0.0,0.0,0.0,0.0,0.0,0.0,0.0,0.0,0.0,0.0,0.0,0.0,0.0,0.0,0.0,0.0,0.0,0.0,0.0,0.0,0.0,0.0,0.0,0.0,0.0,0.0,0.0,0.0,0.0,0.0,0.0,0.0,0.0,0.0,0.0,0.0,0.0,0.0,0.0,0.0,0.0,0.0,0.0,0.0,0.0,0.0,0.0,0.0,0.0,4.1986,4.4493,4.8083,5.2585,5.2861,5.2678,5.2176,4.9715,4.62,0.0,0.0,0.0,0.0,0.0,0.0,0.0,0.0,0.0,0.0,0.0,0.0,0.0,0.0,0.0,0.0,0.0,0.0,0.0,0.0,0.0,0.0,0.0,0.0,0.0,0.0,0.0,0.0,0.0,0.0,0.0,0.0,0.0,0.0,0.0,0.0,0.0,0.0,0.0,0.0,0.0,4.5899,4.4141,4.4543,4.4844,0.0,0.0,4.3413,4.3413,4.384,0.0,0.0,0.0,0.0,0.0,0.0,0.0,0.0,0.0,0.0,0.0,0.0,0.0,0.0,0.0,0.0,0.0,0.0,0.0,0.0,0.0,0.0,0.0,0.0,0.0,0.0,0.0,0.0,0.0,0.0,0.0,0.0,0.0,0.0,0.0,0.0,0.0,0.0,0.0,0.0,0.0,0.0,0.0,0.0,0.0,0.0,0.0,0.0,0.0,0.0,0.0,0.0,0.0,0.0,0.0,3.8417,4.2162,4.5246,4.8686,5.2302,5.2452,5.2201,5.1624,4.7958,4.4217,0.0,0.0,0.0,0.0,0.0,0.0,0.0,0.0,0.0,0.0,0.0,0.0,0.0,0.0,0.0,0.0,0.0,0.0,0.0,0.0,0.0,0.0,0.0,0.0,0.0,0.0,0.0,0.0,0.0,0.0,0.0,0.0,0.0,0.0,0.0,0.0,0.0,0.0,0.0,0.0,0.0,0.0,4.6476,4.5974,0.0,0.0,0.0,4.4869,4.5171,0.0,0.0,0.0,0.0,0.0,0.0,0.0,0.0,0.0,0.0,0.0,0.0,0.0,0.0,0.0,0.0,0.0,0.0,0.0,0.0,0.0,0.0,0.0,0.0,0.0,0.0,0.0,0.0,0.0,0.0,0.0,0.0,0.0,0.0,0.0,0.0,0.0,0.0,0.0,0.0,0.0,0.0,0.0,0.0,0.0,0.0,0.0,0.0,0.0,0.0,0.0,0.0,0.0,0.0,0.0,0.0,0.0,4.2187,4.5949,4.9264,5.2,5.2101,5.1774,5.1021,4.6878,0.0,0.0,0.0,0.0,0.0,0.0,0.0,0.0,0.0,0.0,0.0,0.0,0.0,0.0,0.0,0.0,0.0,0.0,0.0,0.0,0.0,0.0,0.0,0.0,0.0,0.0,0.0,2.9779,0.0,0.0,0.0,0.0,0.0,0.0,0.0,0.0,0.0,0.0,0.0,0.0,0.0,0.0,4.5095,4.8134,4.728,4.6828,0.0,0.0,4.6602,4.6878,4.6577,4.5506,0.0,0.0,0.0,0.0,0.0,0.0,0.0,0.0,0.0,0.0,0.0,0.0,0.0,0.0,0.0,0.0,0.0,0.0,0.0,0.0,0.0,0.0,0.0,0.0,0.0,0.0,0.0,0.0,0.0,0.0,0.0,0.0,0.0,0.0,0.0,0.0,0.0,0.0,0.0,0.0,0.0,0.0,0.0,0.0,0.0,0.0,0.0,0.0,0.0,0.0,0.0,0.0,0.0,0.0,3.8919,4.2213,4.5949,4.9264,5.1975,5.2101,5.1574,5.0469,4.8159,4.4618,0.0,0.0,0.0,0.0,0.0,0.0,0.0,0.0,0.0,0.0,0.0,0.0,0.0,0.0,0.0,0.0,0.0,0.0,0.0,0.0,0.0,0.0,0.0,0.0,0.0,0.0,0.0,0.0,0.0,0.0,0.0,0.0,0.0,0.0,0.0,0.0,0.0,0.0,0.0,0.0,0.0,4.5397,4.7657,4.8309,4.8962,0.0,4.9715,4.9163,4.8686,4.856,4.7456,4.4217,0.0,0.0,0.0,0.0,0.0,0.0,0.0,0.0,0.0,0.0,0.0,0.0,0.0,0.0,0.0,0.0,0.0,0.0,0.0,0.0,0.0,0.0,0.0,0.0,0.0,0.0,0.0,0.0,0.0,0.0,0.0,0.0,0.0,0.0,0.0,0.0,0.0,0.0,0.0,0.0,0.0,0.0,0.0,0.0,0.0,0.0,0.0,0.0,0.0,0.0,0.0,0.0,0.0,3.8994,4.163,4.5472,4.8611,5.0946,5.1071,5.0695,4.9916,4.7456,4.394,0.0,0.0,0.0,0.0,0.0,0.0,0.0,0.0,0.0,0.0,0.0,0.0,0.0,0.0,0.0,0.0,0.0,0.0,0.0,0.0,0.0,0.0,0.0,0.0,0.0,0.0,0.0,0.0,3.0306,3.0432,3.0733,0.0,0.0,0.0,0.0,0.0,0.0,0.0,0.0,0.0,0.0,4.5799,4.9012,4.9665,0.0,0.0,5.1197,5.0695,5.082,4.9364,4.7355,4.4744,4.2836,0.0,0.0,0.0,0.0,0.0,0.0,0.0,0.0,0.0,0.0,0.0,0.0,0.0,0.0,0.0,0.0,0.0,0.0,0.0,0.0,0.0,0.0,0.0,0.0,0.0,0.0,0.0,0.0,0.0,0.0,0.0,0.0,0.0,0.0,0.0,0.0,0.0,0.0,0.0,0.0,0.0,0.0,0.0,0.0,0.0,0.0,0.0,0.0,0.0,0.0,0.0,0.0,3.9019,4.105,4.5012,4.8109,5.0142,5.0343,5.0067,4.9314,4.7004,4.3815,0.0,0.0,0.0,0.0,0.0,0.0,0.0,0.0,0.0,0.0,0.0,0.0,0.0,0.0,0.0,0.0,0.0,0.0,0.0,0.0,0.0,0.0,0.0,0.0,0.0,0.0,0.0,0.0,3.0708,3.0683,3.0884,0.0,0.0,0.0,0.0,0.0,0.0,0.0,0.0,0.0,0.0,4.6677,5.0167,5.082,5.1398,5.2729,5.2,5.1373,5.1574,4.9791,4.7657,4.5472,0.0,0.0,0.0,0.0,0.0,0.0,0.0,0.0,0.0,0.0,0.0,0.0,0.0,0.0,0.0,0.0,0.0,0.0,0.0,0.0,0.0,0.0,0.0,0.0,0.0,0.0,0.0,3.562,0.0,0.0,3.6358,0.0,0.0,0.0,0.0,0.0,0.0,0.0,0.0,0.0,0.0,0.0,0.0,0.0,0.0,0.0,0.0,0.0,0.0,0.0,0.0,0.0,0.0,3.8843,4.0551,4.4811,4.7933,4.9565,5.0117,4.9891,4.8812,4.7154,4.4694,4.1225,0.0,0.0,0.0,0.0,0.0,0.0,0.0,0.0,0.0,0.0,0.0,0.0,0.0,0.0,0.0,0.0,0.0,0.0,0.0,0.0,0.0,0.0,0.0,0.0,0.0,0.0,3.1286,3.0909,3.0407,0.0,0.0,0.0,0.0,0.0,0.0,0.0,0.0,0.0,4.2585,4.5347,4.8083,5.082,5.1699,5.2226,5.2829,5.2,5.1122,5.0619,4.9941,4.8812,0.0,0.0,0.0,0.0,0.0,0.0,0.0,0.0,0.0,0.0,0.0,0.0,0.0,0.0,0.0,0.0,0.0,0.0,0.0,0.0,0.0,0.0,0.0,0.0,0.0,0.0,0.0,3.8291,3.7842,0.0,0.0,0.0,0.0,0.0,0.0,0.0,0.0,0.0,0.0,0.0,3.9145,3.9496,0.0,0.0,0.0,0.0,0.0,0.0,0.0,0.0,0.0,0.0,0.0,0.0,3.8843,4.0601,4.4518,4.738,4.8987,4.9213,4.9138,4.8761,4.6828,4.3689,3.927,0.0,0.0,0.0,0.0,0.0,0.0,0.0,0.0,0.0,0.0,0.0,0.0,0.0,0.0,0.0,0.0,0.0,0.0,0.0,0.0,0.0,0.0,0.0,0.0,0.0,3.0281,0.0,0.0,0.0,0.0,0.0,0.0,0.0,0.0,0.0,0.0,0.0,4.045,4.3162,4.5296,4.7456,4.9816,5.1272,5.2176,0.0,0.0,0.0,0.0,0.0,0.0,0.0,0.0,0.0,0.0,0.0,0.0,0.0,0.0,4.8686,4.4091,4.266,4.2158,4.2158,0.0,0.0,0.0,0.0,0.0,0.0,0.0,0.0,0.0,0.0,0.0,0.0,0.0,0.0,3.9948,3.9446,3.9245,0.0,0.0,0.0,0.0,0.0,0.0,0.0,0.0,4.0199,4.045,4.03,4.0827,4.03,3.8919,3.9069,3.7839,0.0,0.0,0.0,0.0,0.0,0.0,0.0,0.0,3.8843,4.0601,4.4141,4.6828,4.8385,4.846,4.8485,4.8435,4.615,4.3011,3.8994,3.6584,3.4474,0.0,0.0,0.0,0.0,0.0,0.0,0.0,0.0,0.0,0.0,0.0,0.0,0.0,0.0,0.0,0.0,0.0,0.0,0.0,0.0,0.0,0.0,0.0,3.0984,0.0,0.0,0.0,0.0,0.0,0.0,0.0,0.0,0.0,3.8677,4.0592,4.2883,4.517,4.7188,4.8881,5.0021,0.0,0.0,0.0,0.0,0.0,0.0,0.0,4.9138,4.9314,4.8008,4.6803,4.6401,4.8159,4.9529,4.8887,0.0,0.0,4.7154,4.5799,4.5347,4.5522,4.5397,4.5296,4.5497,4.5698,4.5748,0.0,0.0,0.0,0.0,4.1401,0.0,0.0,0.0,4.1756,4.1229,0.0,4.0124,0.0,0.0,0.0,0.0,3.8994,3.9446,0.0,0.0,4.1681,4.1907,4.1451,4.2007,4.171,4.0676,4.1075,4.0224,3.8065,3.6436,0.0,0.0,0.0,0.0,0.0,0.0,3.8894,4.0626,4.384,4.6276,4.7807,4.7883,4.7857,4.7732,4.5221,4.2785,4.0626,3.8868,3.6985,3.4781,3.3144,0.0,0.0,0.0,0.0,0.0,0.0,0.0,0.0,0.0,0.0,0.0,0.0,0.0,0.0,0.0,0.0,0.0,0.0,0.0,0.0,3.2767,0.0,0.0,0.0,0.0,0.0,0.0,0.0,0.0,0.0,4.3252,4.1705,4.4428,4.7136,4.8413,0.0,0.0,0.0,0.0,5.3366,5.2481,5.1875,5.1548,5.1522,5.1447,5.122,5.061,0.0,0.0,4.846,4.9891,5.0845,4.9264,5.0444,5.1724,5.2678,5.0921,4.9741,5.0193,4.9113,4.8335,4.8786,4.9213,4.9439,4.7481,0.0,0.0,0.0,0.0,4.3633,4.4242,4.5121,4.4945,4.4342,4.3413,4.2861,0.0,0.0,0.0,0.0,0.0,0.0,4.1003,4.2258,4.2585,4.3062,4.3633,4.384,4.3338,4.2308,4.2434,4.158,3.9823,3.8919,3.7136,3.455,0.0,0.0,0.0,0.0,4.0023,4.1731,4.4192,4.61,4.733,4.7355,4.6979,4.62,4.4644,4.2936,4.11,3.9496,3.7588,3.5357,3.4098,0.0,0.0,0.0,0.0,0.0,0.0,0.0,0.0,0.0,0.0,0.0,0.0,0.0,0.0,0.0,0.0,0.0,0.0,0.0,3.2164,3.3093,3.3399,0.0,0.0,0.0,0.0,0.0,0.0,0.0,0.0,0.0,4.7643,4.8551,4.9555,0.0,0.0,5.3275,5.3565,5.4627,5.5501,5.5717,5.5949,0.0,5.4895,5.4097,5.3424,5.2839,5.2615,5.2226,5.1599,5.2327,5.2854,5.2327,5.3005,5.3733,5.3909,5.2628,5.1674,5.2026,5.18,5.1548,5.1699,5.1875,5.1925,5.1147,4.8284,4.6627,4.5924,4.5924,4.5924,4.6577,4.7581,4.7129,4.6552,4.5849,4.4895,4.3489,4.1781,4.1003,0.0,0.0,0.0,4.2484,4.3639,4.3865,4.4192,4.4618,4.4869,4.4493,4.3639,4.3187,4.2459,4.148,4.0727,3.912,3.6759,0.0,3.6634,3.6584,3.8617,4.0601,4.2514,4.4242,4.5773,4.7043,4.7068,4.6502,4.5196,4.4493,4.3263,4.1351,4.0174,3.8492,3.6235,3.5107,3.3796,0.0,0.0,0.0,0.0,0.0,0.0,0.0,0.0,0.0,0.0,0.0,3.1196,3.0904,0.0,0.0,0.0,3.414,3.457,3.483,3.5557,0.0,0.0,0.0,0.0,0.0,0.0,0.0,4.5893,4.8326,5.0426,5.2129,5.29,5.3229,5.3079,5.4177,5.5024,5.5178,0.0,5.686,5.7135,5.7681,5.785,5.7396,5.673,5.6151,5.5631,5.4653,5.4043,5.3999,5.4043,5.4034,5.4084,5.4336,5.4637,5.4838,5.4059,5.3406,5.3557,5.3582,5.3582,5.3582,5.3582,5.3582,5.4536,5.2854,4.969,4.8284,4.8184,4.8184,4.8761,4.964,4.8636,4.8134,4.7933,4.6426,4.507,4.3865,4.2942,0.0,4.3865,4.3865,4.4141,4.4719,4.5246,4.5221,4.4794,4.5321,4.5246,4.4644,4.3664,4.3137,4.3037,4.2057,4.1003,3.9948,3.8366,3.7764,3.8191,3.9295,4.0927,4.3011,4.4091,4.5363,4.6968,4.6993,4.624,4.4744,4.4644,4.3557,4.1451,4.0877,3.9572,3.7486,3.6304,3.5017,3.3518,0.0,0.0,0.0,0.0,0.0,0.0,0.0,0.0,0.0,0.0,0.0,0.0,0.0,0.0,0.0,3.8518,0.0,3.9311,3.9546,0.0,0.0,0.0,4.2326,4.3772,4.6396,4.8325,4.9107,0.0,0.0,5.5269,5.6974,5.7385,5.5423,5.6459,5.7212,5.6688,5.745,5.7913,5.7925,5.8146,5.8641,5.9332,5.9253,5.8935,5.8596,5.7198,5.6219,5.6106,5.5695,5.5158,5.4996,5.49,5.5005,5.5437,5.5365,5.529,5.4762,5.4687,5.4687,5.4687,5.4712,5.4687,5.5541,5.4662,5.3005,5.1599,5.0469,5.0494,5.0645,5.0845,5.0594,4.9992,4.9138,4.8335,4.6928,4.507,4.4819,4.4593,4.4443,4.4418,4.4744,4.5271,4.5422,4.5623,4.5899,4.605,4.5824,4.5271,4.502,4.4669,4.4217,4.3539,4.2861,4.2183,4.1433,4.0425,3.9396,4.0802,4.2288,4.3589,4.4292,4.5246,4.6451,4.6502,4.6125,4.5296,4.4844,4.379,4.2032,4.143,4.0325,3.8617,3.7919,3.7206,3.6358,3.4853,0.0,0.0,0.0,0.0,0.0,0.0,0.0,0.0,0.0,3.4328,3.3438,0.0,3.5374,0.0,4.0415,4.2639,4.2759,4.3667,0.0,0.0,4.5421,4.6424,4.9066,5.0398,5.1778,5.3486,5.4859,5.5957,5.6555,5.7513,5.8077,5.8035,5.8842,5.9496,5.9879,6.0583,6.12,6.1557,6.1704,6.1967,6.2009,6.1422,6.085,6.0799,6.0083,5.9453,5.8926,5.907,5.8742,5.7461,5.7132,5.6852,5.6186,5.6018,5.5968,5.5842,5.5817,5.5817,5.5817,5.5817,5.5817,5.6344,5.5315,5.4436,5.3406,5.2352,5.2126,5.2026,5.2,5.1749,5.1297,5.0645,4.9615,4.8309,4.6954,4.6677,4.625,4.5748,4.5748,4.5799,4.5849,4.5849,4.6024,4.6301,4.6326,4.615,4.5849,4.5623,4.5321,4.4995,4.4443,4.4016,4.3689,4.3413,4.2785,4.1932,4.2112,4.2685,4.379,4.4844,4.5698,4.6301,4.6949,4.6561,4.5175,4.5022,4.3884,4.1567,4.0952,3.9876,3.8284,3.81,3.7844,3.7243,3.6374,3.5861,0.0,0.0,0.0,0.0,0.0,0.0,0.0,0.0,0.0,0.0,0.0,3.8664,4.0139,4.4333,4.685,4.6375,4.7731,4.9117,5.0359,5.0787,5.1804,5.4006,5.4878,5.5716,5.6803,5.7513,5.8052,5.8381,5.9039,5.9578,5.9967,6.0565,6.1134,6.1493,6.1882,6.2331,6.2959,6.3137,6.3292,6.3832,6.3301,6.2922,6.3054,6.2312,6.1525,6.1181,6.1026,6.0702,5.9739,5.8859,5.8179,5.7492,5.6678,5.6194,5.6219,5.6219,5.6219,5.6219,5.6219,5.6219,5.6947,5.544,5.4813,5.4285,5.3758,5.3181,5.2861,5.2879,5.2327,5.2051,5.19,5.0444,4.9464,4.8837,4.836,4.7782,4.7193,4.7168,4.6979,4.6527,4.6502,4.6527,4.6527,4.6502,4.6527,4.6476,4.6024,4.5799,4.5773,4.5296,4.502,4.4945,4.4945,4.492,4.4769,4.3413,4.3137,4.4016,4.5522,4.6276,4.632,4.7402,4.6882,4.4686,4.4966,4.3829,4.098,4.0394,3.9362,3.7873,3.8104,3.8239,3.8048,3.7965,3.8109,0.0,3.7929,0.0,0.0,0.0,0.0,0.0,0.0,0.0,0.0,4.2495,4.3085,4.4891,4.9115,5.1339,5.0371,5.1988,5.3803,5.5598,5.6316,5.7154,5.8351,5.9009,5.9368,5.9368,5.9847,6.0206,6.0206,6.0745,6.1104,6.1224,6.1613,6.2032,6.2211,6.2241,6.248,6.3019,6.3139,6.3647,6.4487,6.4569,6.4575,6.4978,6.3999,6.2951,6.2838,6.2342,6.1814,6.1414,6.0172,5.9057,5.8901,5.7449,5.6378,5.6255,5.6182,5.6186,5.6241,5.6219,5.6219,5.7173,5.5968,5.4988,5.4511,5.431,5.3356,5.2861,5.2904,5.2352,5.185,5.1423,5.1096,5.0393,4.9439,4.9314,4.8711,4.7782,4.7757,4.7707,4.7606,4.7606,4.7606,4.7606,4.7606,4.7606,4.7606,4.7506,4.7456,4.7456,4.733,4.7079,4.6617,4.6592,4.6426,4.5999,0.0,0.0,0.0,4.5924,4.6279,4.6272,4.5655,4.4937,4.4096,4.4118,0.0,4.2093,4.1848,4.1458,4.0759,4.0935,0.0,0.0,0.0,0.0,0.0,0.0,0.0,0.0,0.0,0.0,0.0,4.7064,4.5997,4.5611,4.6931,4.8595,5.0478,5.2968,5.477,5.5564,5.6952,5.8171,5.9039,5.9279,5.9668,6.0446,6.0655,6.0745,6.0745,6.0835,6.0924,6.0954,6.1044,6.1343,6.1852,6.2032,6.2301,6.281,6.2839,6.2929,6.3079,6.3438,6.3857,6.4126,6.4576,6.4813,6.4993,6.4872,6.4325,6.3863,6.3648,6.2967,6.1798,6.0645,5.978,5.8954,5.7967,5.7137,5.632,5.6136,5.6111,5.6211,5.6194,5.6219,5.6972,5.6118,5.5013,5.4561,0.0,5.3406,5.2861,5.2904,5.2628,5.2352,5.2076,5.18,5.1222,5.0393,4.9841,4.8987,4.7908,4.7657,4.7531,4.7531,4.7531,4.7657,4.7908,4.7908,4.7908,4.7908,4.7908,4.7908,4.7908,4.7908,4.7782,4.7506,4.7531,4.738,4.7129,4.8467,4.8368,4.678,4.7649,4.8317,4.8773,4.8921,4.8644,4.7906,4.7763,0.0,0.0,0.0,0.0,0.0,0.0,0.0,0.0,4.5902,4.6645,4.8103,4.7894,4.8327,4.9613,5.0032,5.105,5.2965,5.3443,5.2665,5.0391,5.2606,5.4551,5.5508,5.6825,5.7872,5.853,5.9518,6.0356,6.0984,6.1074,6.1343,6.1942,6.2091,6.2061,6.2091,6.2091,6.2061,6.2091,6.2091,6.2211,6.251,6.257,6.269,6.3047,6.3137,6.3137,6.3137,6.3318,6.3647,6.3947,6.4246,6.4665,6.4904,6.5024,6.4845,6.4516,6.4455,6.4124,6.3211,6.2125,6.1083,6.0477,5.9133,5.7648,5.683,5.6167,5.5746,5.5505,5.539,5.539,5.6696,5.6118,5.5139,5.4712,5.4637,5.3632,5.3155,5.3055,5.298,0.0,0.0,5.2402,5.19,5.1222,5.0318,4.9289,4.8209,4.7782,4.7581,4.7581,4.7556,4.7782,4.8209,4.8209,4.8209,4.8209,4.8209,4.8209,4.8209,4.8209,4.8209,4.8209,4.8309,4.8473,4.8913,5.1335,5.1619,4.9724,5.0364,5.1136,5.1886,5.2776,5.2799,5.196,5.1735,5.0796,4.9058,4.8027,4.7286,4.6761,4.7195,4.7788,4.8601,4.9713,5.069,5.1541,5.2127,5.2965,5.4162,5.476,5.5807,5.7513,5.886,5.8381,5.5448,5.7723,5.9338,5.9458,6.0057,6.0475,6.0595,6.1224,6.1882,6.254,6.251,6.266,6.3139,6.3166,6.3077,6.3137,6.3019,6.3137,6.3077,6.3077,6.3137,6.3137,6.3077,6.3137,6.3137,6.3137,6.3137,6.3137,6.3196,6.3288,6.3677,6.3827,6.4066,6.4485,6.4605,6.4695,6.4695,6.4695,6.4695,6.4367,6.3317,6.2311,6.1939,6.015,5.8305,5.737,5.6542,5.5701,5.4822,5.4612,5.4618,5.6696,5.6168,5.5541,5.529,5.5214,5.4612,5.4059,5.3557,5.313,5.2653,5.2251,5.2653,5.2226,5.1272,5.1122,5.0419,4.9364,4.9289,4.9238,4.9264,4.9238,4.9289,4.9364,4.9364,4.9364,4.9364,4.9364,4.9364,4.9364,4.9364,4.9364,4.9414,4.9816,5.0724,5.213,5.3668,5.4681,5.5203,5.4456,5.4096,5.4145,5.2882,5.2174,5.2078,5.1608,5.1101,5.0828,5.0696,5.0517,5.0428,5.1058,5.1972,5.3147,5.3933,5.5149,5.6825,5.7094,5.7483,5.8201,5.8381,5.877,5.9638,6.0894,6.0984,5.9458,5.9668,6.0176,6.0775,6.1433,6.2061,6.26,6.3169,6.3767,6.4395,6.4066,6.3767,6.3827,6.3408,6.3166,6.3137,6.3137,6.3137,6.3137,6.3137,6.3137,6.3137,6.3137,6.3137,6.3137,6.3137,6.3137,6.3137,6.3137,6.3166,6.3258,6.3228,6.3348,6.3318,6.3438,6.3528,6.3528,6.3528,6.3498,6.3408,6.2736,6.2084,6.1515,6.0578,5.9235,5.7897,5.7147,5.653,5.4805,5.4398,5.4423,5.6269,5.5742,5.5491,5.5214,5.4913,5.4336,5.3783,5.3281,5.303,5.2804,5.2578,5.2829,5.2477,5.1699,5.1071,5.0368,4.9565,4.8962,4.8837,4.9138,4.9163,4.9314,4.959,4.959,4.959,4.959,4.959,4.9741,5.0017,5.0042,5.0193,5.0494,5.077,5.2072,5.4296,5.5193,5.6589,5.8588,5.7372,5.6845,5.734,5.6618,5.6424,5.6924,5.6324,5.6006,5.6047,5.5688,5.5508,5.5508,5.5777,5.6226,5.6825,5.7483,5.8261,5.9129,5.9548,5.9877,6.0176,6.0535,6.1014,6.1672,6.2271,6.2391,6.1762,6.1702,6.1822,6.2181,6.275,6.3228,6.3558,6.4156,6.4695,6.4934,6.4725,6.4425,6.4066,6.3767,6.3438,6.3139,6.3137,6.3137,6.3137,6.3137,6.3137,6.3137,6.3137,6.3137,6.3137,6.3137,6.3137,6.3137,6.3137,6.3137,6.3137,6.3137,6.3137,6.3137,6.3137,6.3137,6.3137,6.3137,6.3137,6.3079,6.2817,6.241,6.1732,6.0926,5.9617,5.7742,5.6807,5.5789,5.4241,5.3657,5.3655,5.5968,5.5566,5.5566,5.5265,5.4712,5.4285,5.3708,5.313,5.3105,5.303,5.2929,5.2861,5.2628,5.2026,5.1046,5.0318,4.969,4.8736,4.8535,4.8937,4.8962,4.9188,4.959,4.9715,4.9766,4.9791,4.9916,5.0193,5.0569,5.0619,5.0896,5.1465,5.1648,5.2965,5.5477,5.6387,5.8028,6.0144,5.9704,5.9714,6.0439,6.0291,6.0605,6.1227,6.0655,6.0326,6.0296,5.9817,5.9548,5.9578,5.9697,5.9787,5.9817,6.0416,6.0775,6.0805,6.1253,6.1553,6.1583,6.2032,6.254,6.3077,6.3137,6.3139,6.3258,6.3288,6.3288,6.3348,6.3827,6.4276,6.4485,6.4904,6.5293,6.5443,6.5323,6.5054,6.4545,6.4216,6.3827,6.3348,6.3169,6.3137,6.3137,6.3137,6.3137,6.3137,6.3137,6.3137,6.3137,6.3137,6.3137,6.3137,6.3137,6.3137,6.3137,6.3137,6.3137,6.3137,6.3137,6.3137,6.3137,6.3137,6.3137,6.3079,6.3079,6.2759,6.2175,6.1106,5.965,5.7842,5.6742,5.5286,5.3835,5.3179,5.2929,5.6168,5.6143,5.6093,5.5817,5.529,5.5189,5.4536,5.3658,5.3632,5.3356,5.2886,5.2861,5.2628,5.2076,5.1473,5.0896,5.0318,4.9715,4.9464,4.9515,4.9515,4.9565,4.969,5.0117,5.0343,5.0393,5.0845,5.1071,5.1197,5.1222,5.1498,5.2043,5.2673,5.3505,5.4797,5.7287,5.898,5.9683,6.1645,6.2696,6.2724,6.2187,6.1945,6.2002,6.1373,6.1014,6.1044,6.0954,6.0924,6.0984,6.1493,6.1792,6.1852,6.2421,6.2837,6.275,6.2839,6.2899,6.2869,6.2959,6.2989,6.3137,6.3109,6.3348,6.3827,6.3917,6.3917,6.4066,6.4545,6.5144,6.5742,6.5862,6.6131,6.655,6.6221,6.5892,6.5622,6.4725,6.3977,6.3947,6.3408,6.3137,6.3137,6.3137,6.3137,6.3137,6.3137,6.3137,6.3137,6.3137,6.3137,6.3137,6.3137,6.3137,6.3137,6.3137,6.3137,6.3137,6.3137,6.3137,6.3137,6.3137,6.3079,6.2905,6.3021,6.2759,6.191,6.0865,5.9527,5.806,5.6742,5.5551,5.4511,5.3546,5.3048,5.6018,5.5767,5.6068,5.5691,5.4913,5.4536,5.3959,5.3281,5.3256,5.3105,5.2955,5.2861,5.2804,5.2578,5.2026,5.1448,5.0896,5.0343,5.0092,5.0067,5.0067,5.0243,5.0594,5.0795,5.0921,5.0946,5.1172,5.1448,5.1774,5.2101,5.2581,5.3165,5.3503,5.401,5.4887,5.6221,5.7423,5.8467,6.0141,6.1405,6.2175,6.2491,6.269,6.266,6.2421,6.2271,6.2271,6.2271,6.2271,6.2301,6.254,6.266,6.269,6.2929,6.3137,6.3137,6.3137,6.3137,6.3137,6.3137,6.3137,6.3137,6.3438,6.3737,6.4006,6.4725,6.5173,6.5233,6.5443,6.5742,6.6011,6.634,6.67,6.6909,6.6729,6.643,6.6011,6.5173,6.4485,6.4036,6.3468,6.3137,6.3137,6.3137,6.3137,6.3137,6.3137,6.3137,6.3079,6.3137,6.3137,6.3137,6.3137,6.3137,6.3137,6.3137,6.3137,6.3137,6.3137,6.3137,6.3137,6.3137,6.3021,6.2585,6.2585,6.2175,6.1075,6.0502,5.9493,5.7825,5.5591,5.4039,5.3657,5.3431,5.3331,5.5993,5.5691,5.5892,5.544,5.4536,5.3934,5.3406,5.2886,5.2861,5.2861,5.2861,5.2861,5.2861,5.2854,5.2352,5.1875,5.1473,5.0921,5.067,5.067,5.0645,5.087,5.1272,5.1448,5.1498,5.1523,5.1674,5.195,5.2327,5.2703,5.3179,5.3657,5.3929,5.4174,5.4485,5.5286,5.6313,5.7322,5.894,6.0445,6.1584,6.2585,6.3137,6.3137,6.3137,6.3137,6.3137,6.3137,6.3137,6.3137,6.3137,6.3137,6.3137,6.3137,6.3137,6.3137,6.3137,6.3137,6.3137,6.3137,6.3137,6.3166,6.3647,6.4096,6.4425,6.5353,6.6041,6.6251,6.6281,6.6281,6.634,6.67,6.6969,6.6999,6.6999,6.6759,6.6311,6.5712,6.5054,6.4366,6.3797,6.3258,6.3109,6.3137,6.3137,6.3137,6.3137,6.3199,6.3288,6.3348,6.3408,6.3558,6.3498,6.3258,6.3196,6.3137,6.3137,6.3137,6.3137,6.3137,6.3137,6.3137,6.2905,6.2468,6.2234,6.1524,6.0352,5.974,5.8661,5.6225,5.4372,5.3495,5.3646,5.3758,5.3884,5.6194,5.6068,5.5616,5.5089,5.4511,5.3934,5.3406,5.2861,5.2861,5.2861,5.2861,5.2861,5.2861,5.2836,5.2402,5.2101,5.1975,5.1498,5.1247,5.1247,5.1247,5.1272,5.1322,5.18,5.2076,5.2101,5.2503,5.2754,5.2854,5.2904,5.2929,5.2998,5.3657,5.3657,5.3452,5.5194,5.6417,5.665,5.8946,6.0718,6.1584,6.2526,6.3137,6.3137,6.3137,6.3137,6.3137,6.3137,6.3137,6.3137,6.3137,6.3137,6.3137,6.3137,6.3137,6.3137,6.3137,6.3137,6.3137,6.3137,6.3137,6.3169,6.3707,6.4276,6.4874,6.5622,6.6281,6.6879,6.6849,6.6879,6.6879,6.6909,6.6999,6.6999,6.6999,6.6969,6.6909,6.6251,6.5712,6.4994,6.4246,6.3617,6.3196,6.3137,6.3139,6.3169,6.3196,6.3348,6.3857,6.3977,6.4216,6.4485,6.4306,6.3767,6.3258,6.3137,6.3137,6.3137,6.3137,6.3137,6.3137,6.3021,6.2673,6.2263,6.1968,6.1133,5.9801,5.8325,5.6727,5.5268,5.4821,5.4255,5.4084,5.4386,5.4536,5.5993,5.5641,5.5089,5.4536,5.3959,5.3432,5.3105,5.2861,5.2861,5.2861,5.2861,5.2861,5.2861,5.2904,5.2729,5.2427,5.2101,5.19,5.1825,5.18,5.18,5.2,5.2352,5.2553,5.2628,5.2678,5.2829,5.2861,5.2861,5.2861,5.2861,5.2998,5.3657,5.3657,5.3247,5.4216,5.4887,5.5194,5.756,5.9256,6.0112,6.1998,6.3137,6.3137,6.3137,6.3137,6.3137,6.3137,6.3137,6.3137,6.3137,6.3137,6.3137,6.3137,6.3137,6.3137,6.3137,6.3137,6.3137,6.3137,6.3137,6.3226,6.4066,6.4725,6.5144,6.5981,6.6729,6.6939,6.6999,6.6999,6.6999,6.6999,6.6999,6.6999,6.6999,6.6999,6.6879,6.64,6.5742,6.5054,6.4126,6.3318,6.3318,6.3408,6.3647,6.3707,6.4036,6.4366,6.4575,6.4665,6.4784,6.4934,6.4844,6.4575,6.4425,6.3528,6.3079,6.3137,6.3137,6.3139,6.3139,6.3054,6.2763,6.1305,6.1091,6.0155,5.8604,5.7395,5.5751,5.5616,5.5127,5.4834,5.4561,5.4913,5.5064,5.5892,5.534,5.4787,5.4235,5.3658,5.3155,5.2861,5.2861,5.2861,5.2861,5.2861,5.2861,5.2829,5.2729,5.2829,5.2628,5.2176,5.2277,5.2352,5.2377,5.2377,5.2578,5.281,5.2861,5.2861,5.2861,5.2861,5.2861,5.2861,5.2861,5.2861,5.2929,5.3384,5.3384,5.3067,5.3384,5.3793,5.4686,5.6753,5.8446,5.9532,6.1792,6.3137,6.3079,6.2759,6.2759,6.3079,6.3137,6.3137,6.3137,6.3137,6.3137,6.3137,6.3137,6.3137,6.3137,6.3137,6.3137,6.3137,6.3137,6.3137,6.3139,6.4246,6.5024,6.5114,6.6221,6.6879,6.6999,6.6999,6.6999,6.6999,6.6999,6.6999,6.6999,6.6999,6.6999,6.6969,6.661,6.6071,6.5413,6.4485,6.3857,6.3737,6.4096,6.4306,6.4336,6.4784,6.5054,6.5293,6.5353,6.5473,6.5592,6.5503,6.5383,6.5144,6.4485,6.4036,6.3947,6.3797,6.3647,6.3353,6.3207,6.235,6.077,5.95,5.8619,5.7558,5.6418,5.6,5.5893,5.5756,5.5415,5.539,5.544,5.5541,5.5867,5.529,5.4787,5.4185,5.3607,5.313,5.2861,5.2861,5.2861,5.2904,5.276,5.281,5.2553,5.2277,5.2528,5.2528,5.2251,5.2553,5.2779,5.2829,5.2785,5.281,5.2861,5.2861,5.2861,5.2861,5.2861,5.2861,5.2861,5.2861,5.2861,5.2929,5.2929,5.2998,5.2861,5.2998,5.3657,5.4994,5.6882,5.8599,6.0108,6.2028,6.3021,6.2817,6.2145,6.2087,6.2933,6.3021,6.3021,6.3079,6.3137,6.3137,6.3137,6.3137,6.3137,6.3137,6.3137,6.3137,6.3137,6.3137,6.3137,6.3258,6.4276,6.5024,6.5203,6.6221,6.6999,6.6876,6.6937,6.6999,6.6937,6.6999,6.6999,6.6999,6.6999,6.6999,6.6969,6.6969,6.67,6.6011,6.5233,6.5024,6.4994,6.4994,6.5024,6.5054,6.5203,6.5473,6.5922,6.6011,6.6281,6.658,6.637,6.6041,6.5802,6.5503,6.5203,6.4964,6.4755,6.4576,6.4011,6.3652,6.2261,6.0667,5.853,5.7621,5.7076,5.6065,5.5863,5.58,5.5792,5.5942,5.5917,5.5892,5.5993,5.5315,5.4762,5.421,5.3658,5.3181,5.298,5.2861,5.2861,5.2861,5.2729,5.2402,5.2352,5.2051,5.1649,5.1724,5.19,5.2101,5.2302,5.2553,5.281,5.2861,5.2861,5.2861,5.2861,5.2861,5.2861,5.2861,5.2861,5.2861,5.2861,5.2861,5.2861,5.2861,5.2861,5.2861,5.2929,5.3384,5.4485,5.6753,5.8446,5.947,6.1821,6.2555,6.1466,6.1436,6.1584,6.1318,6.1821,6.238,6.3079,6.3137,6.3137,6.3137,6.3137,6.3137,6.3137,6.3137,6.3137,6.3137,6.3137,6.3137,6.3318,6.4306,6.4934,6.5173,6.6221,6.6755,6.6476,6.6661,6.6846,6.6476,6.6723,6.6937,6.6999,6.6999,6.6999,6.6878,6.661,6.6251,6.6011,6.5443,6.5084,6.5144,6.5353,6.5652,6.5682,6.5981,6.6369,6.6519,6.6488,6.67,6.6909,6.67,6.6458,6.6188,6.5856,6.5492,6.5196,6.508,6.475,6.4266,6.3316,6.1946,6.0104,5.8005,5.6884,5.6326,5.6027,5.5864,5.5892,5.6043,5.6143,5.6194,5.6219,5.6219,5.4938,5.421,5.3858,5.3406,5.2886,5.2861,5.2861,5.2879,5.2703,5.2427,5.2126,5.1875,5.1498,5.1096,5.1172,5.1473,5.18,5.2,5.2402,5.2854,5.2861,5.2861,5.2861,5.2861,5.2861,5.2861,5.2861,5.2861,5.2861,5.2861,5.2861,5.2861,5.2861,5.2861,5.2861,5.2929,5.3247,5.4309,5.665,5.832,5.9346,6.1316,6.1998,6.1048,6.0384,6.0202,6.0295,6.0768,6.1669,6.2819,6.3137,6.3137,6.3137,6.3137,6.3137,6.3137,6.3137,6.3137,6.3137,6.3137,6.3137,6.3288,6.4276,6.4934,6.5203,6.6039,6.6384,6.6165,6.6103,6.6165,6.6073,6.6352,6.6753,6.6999,6.6999,6.6876,6.6663,6.6243,6.6064,6.5945,6.5677,6.556,6.5801,6.5708,6.6066,6.6064,6.6147,6.6165,6.6228,6.6322,6.6476,6.6538,6.6387,6.6357,6.6478,6.6231,6.5794,6.5408,6.5055,6.4535,6.398,6.2651,6.1257,5.8895,5.6759,5.6647,5.616,5.6163,5.6093,5.6194,5.6219,5.6219,5.6219,5.6219,5.6219,5.4712,5.3733,5.3658,5.3356,5.2886,5.2861,5.2879,5.271,5.2377,5.2076,5.185,5.1423,5.0921,5.0594,5.082,5.1122,5.1373,5.1774,5.2327,5.2779,5.2861,5.2861,5.2861,5.2861,5.2861,5.2861,5.2861,5.2861,5.2861,5.2861,5.2861,5.2861,5.2861,5.2861,5.2861,5.2861,5.3247,5.4241,5.6558,5.8131,5.8946,6.0505,6.1286,6.1046,5.9086,5.8388,5.9352,6.0149,6.1318,6.2939,6.3348,6.3378,6.3258,6.3256,6.3318,6.3348,6.3199,6.3141,6.3111,6.2847,6.2761,6.2764,6.3862,6.4875,6.4752,6.5332,6.5853,6.5635,6.5412,6.5285,6.5664,6.5915,6.6165,6.66,6.6661,6.6538,6.604,6.5919,6.586,6.5952,6.6011,6.6136,6.6483,6.608,6.5672,6.5547,6.529,6.5036,6.4845,6.5227,6.5698,6.5761,6.5698,6.5416,6.5261,6.4595,6.4146,6.3643,6.3544,6.3293,6.281,6.1558,6.0376,5.8042,5.6381,5.6289,5.6194,5.6219,5.6219,5.6219,5.6219,5.6219,5.6219,5.6219,5.6219,5.4361,5.3683,5.3281,5.3055,5.2861,5.2861,5.2678,5.2327,5.2176,5.1624,5.0996,5.072,5.0343,4.9866,4.9992,5.0469,5.1172,5.1448,5.2051,5.276,5.2861,5.2861,5.2861,5.2861,5.2861,5.2861,5.2861,5.2861,5.2861,5.2861,5.2861,5.2861,5.2861,5.2861,5.2861,5.2861,5.3273,5.4106,5.5894,5.7651,5.8821,5.9408,5.9408,5.8877,5.7934,5.7401,5.7716,6.0237,6.2554,6.4278,6.4515,6.4515,6.4425,6.4425,6.4336,6.4218,6.3594,6.312,6.2913,6.2204,6.1579,6.1257,6.2771,6.332,6.3066,6.4444,6.4845,6.4711,6.4711,6.4711,6.4618,6.4874,6.4938,6.456,6.5261,6.5761,6.5285,6.5285,6.5412,6.5853,6.5475,6.5509,6.5543,6.4944,6.4081,6.4146,6.4081,6.4081,6.3757,6.4368,6.4973,6.4781,6.4589,6.421,6.3728,6.2915,6.2253,6.1583,6.1433,6.1339,6.0702,5.977,5.8876,5.7635,5.6602,5.6194,5.6219,5.6219,5.6219,5.6219,5.6219,5.6219,5.6219,5.6219,5.6219,5.411,5.3356,5.3055,5.2861,5.2861,5.2861,5.2628,5.2126,5.1825,5.1272,5.0519,5.0167,4.9891,4.9615,4.9615,5.0218,5.1172,5.1272,5.19,5.271,5.2861,5.2861,5.2861,5.2861,5.2861,5.2861,5.2861,5.2861,5.2861,5.2861,5.2861,5.2861,5.2861,5.2861,5.2861,5.2929,5.3136,5.3835,5.5432,5.7204,5.8446,5.8474,5.8732,5.8236,5.7378,5.6299,5.7315,6.0348,6.2663,6.3728,6.4486,6.5024,6.5024,6.5024,6.4905,6.4576,6.3859,6.3412,6.29,6.1881,6.136,6.1576,6.2399,6.2761,6.3064,6.373,6.3647,6.3385,6.3028,6.2669,6.2707,6.3103,6.3103,6.2547,6.3141,6.3562,6.3197,6.3553,6.372,6.3785,6.385,6.385,6.4117,6.2915,6.2613,6.2613,6.2347,6.2309,6.2242,6.33,6.3757,6.3235,6.2906,6.2414,6.1986,6.1314,6.0497,5.9835,5.9349,5.9279,5.9096,5.8347,5.7733,5.704,5.6558,5.6219,5.6219,5.6219,5.6219,5.6219,5.6219,5.6219,5.6219,5.6219,5.6219,5.3909,5.2861,5.2861,5.2861,5.2929,5.2854,5.2477,5.195,5.1423,5.0845,5.0293,4.9791,4.9665,4.959,4.9615,5.0218,5.1272,5.1272,5.1975,5.2628,5.2861,5.2861,5.2861,5.2861,5.2861,5.2861,5.2861,5.2861,5.2861,5.2861,5.2861,5.2861,5.2861,5.2861,5.2861,5.2861,5.2861,5.3384,5.5127,5.652,5.7359,5.7468,5.7833,5.8355,5.6566,5.6141,5.7683,5.9993,6.1613,6.201,6.4058,6.5023,6.5114,6.4964,6.4541,6.393,6.3626,6.3447,6.2707,6.162,6.1303,6.1791,6.1768,6.2292,6.2519,6.2218,6.1963,6.1896,6.0537,6.0468,6.062,6.1043,6.0879,6.0428,6.036,6.0154,6.0387,6.1233,6.1666,6.0798,6.1571,6.1706,6.1449,6.0947,6.0661,6.0798,6.062,6.0551,6.0688,6.1409,6.1409,6.0893,6.0593,6.0387,6.0043,5.9681,5.8841,5.8089,5.7518,5.7374,5.7707,5.7256,5.6703,5.6219,5.6219,5.6219,5.6219,5.6219,5.6219,5.6219,5.6219,5.6219,5.6219,5.6219,5.6219,5.3909,5.2861,5.2861,5.2861,5.2854,5.2452,5.1975,5.1448,5.087,5.0343,4.9841,4.964,4.959,4.959,4.964,5.0218,5.1197,5.1373,5.1875,5.276,5.2861,5.2861,5.2861,5.2861,5.2861,5.2861,5.2861,5.2861,5.2861,5.2861,5.2861,5.2861,5.2861,5.2861,5.2861,5.2861,5.2861,5.3179,5.4552,5.5565,5.6132,5.6346,5.6638,5.7077,5.5985,5.5791,5.6729,5.8464,5.9816,6.1292,6.3913,6.5453,6.4739,6.5077,6.4391,6.2907,6.2844,6.2736,6.1658,6.0625,5.9737,5.9842,5.9832,5.9329,5.9232,6.0058,6.0123,6.0123,5.9804,5.9429,5.9568,5.9052,5.8815,5.8463,5.7921,5.7374,5.7518,5.9008,6.0096,6.0345,6.0276,6.0303,6.0565,5.9279,5.8956,5.8982,5.8912,5.8841,5.9236,5.9697,5.9445,5.9052,5.8841,5.8745,5.8533,5.8302,5.7733,5.7184,5.6631,5.6219,5.6558,5.6631,5.634,5.6219,5.6219,5.6219,5.6219,5.6219,5.6219,5.6219,5.6219,5.6219,5.6219,5.6219,5.6219,5.3934,5.2886,5.2861,5.2861,5.2829,5.2352,5.18,5.1247,5.067,5.0117,4.969,4.959,4.959,4.959,4.964,5.0218,5.1222,5.1875,5.2352,5.2854,5.2861,5.2861,5.2861,5.2861,5.2861,5.2861,5.2861,5.2861,5.2861,5.2861,5.2861,5.2861,5.2861,5.2861,5.2861,5.2861,5.2861,5.3179,5.4309,5.5206,5.5788,5.5876,5.5796,5.5933,5.5766,5.5942,5.6362,5.7966,5.8973,6.0195,6.2557,6.431,6.37,6.3765,6.2887,6.1702,6.1497,6.1436,6.0456,5.9439,5.8838,5.9035,5.8603,5.8578,5.8437,5.8894,5.8727,5.8683,5.8329,5.7973,5.7973,5.7615,5.7112,5.704,5.6631,5.6219,5.6485,5.7759,5.8656,5.8745,5.863,5.856,5.8205,5.7733,5.7876,5.816,5.759,5.7518,5.8018,5.8347,5.7947,5.7615,5.7328,5.7184,5.7112,5.6895,5.6776,5.6485,5.6412,5.6219,5.634,5.634,5.6219,5.6219,5.6219,5.6219,5.6219,5.6219,5.6219,5.6219,5.6219,5.6219,5.6219,5.6219,5.6219,5.3833,5.2861,5.2861,5.2861,5.2829,5.2251,5.1699,5.1222,5.0569,4.9992,4.9665,4.959,4.959,4.959,4.959,5.0243,5.1297,5.2352,5.2879,5.2836,5.2861,5.2861,5.2861,5.2861,5.2861,5.2861,5.2861,5.2861,5.2861,5.2861,5.2861,5.2861,5.2861,5.2861,5.2861,5.2861,5.2861,5.3067,5.4106,5.492,5.5591,5.5715,5.5743,5.577,5.5962,5.6143,5.6412,5.7492,5.8437,5.8719,6.0058,6.1015,6.1556,6.1757,6.0811,6.0085,6.0195,6.0127,5.9435,5.8622,5.834,5.9245,5.8302,5.8089,5.847,5.8115,5.7759,5.74,5.704,5.6558,5.6219,5.634,5.634,5.6292,5.6292,5.6219,5.634,5.7112,5.7184,5.6823,5.7256,5.7472,5.704,5.6631,5.7065,5.7256,5.6631,5.634,5.6895,5.7184,5.6921,5.6776,5.6703,5.6631,5.6558,5.6558,5.6292,5.6219,5.6219,5.6219,5.6219,5.6219,5.6219,5.6219,5.6219,5.6219,5.6219,5.6219,5.6219,5.6219,5.6219,5.6219,5.6219,5.6219,5.6219,5.3482,5.2861,5.2861,5.2861,5.2779,5.1875,5.1398,5.1122,5.0193,4.969,4.9615,4.959,4.959,4.959,4.959,5.0243,5.1322,5.2377,5.2861,5.2861,5.2861,5.2861,5.2861,5.2861,5.2861,5.2861,5.2861,5.2861,5.2861,5.2861,5.2861,5.2861,5.2861,5.2861,5.2861,5.2861,5.2861,5.3023,5.3844,5.4424,5.461,5.5267,5.5835,5.5965,5.6143,5.6194,5.6219,5.6485,5.6895,5.7472,5.7231,5.7635,5.8533,5.9808,5.9349,5.8205,5.8701,5.9079,5.8232,5.8018,5.7947,5.7901,5.7256,5.6631,5.6776,5.6703,5.6703,5.6631,5.6485,5.6219,5.6219,5.6219,5.6219,5.6219,5.6219,5.6219,5.6292,5.6412,5.6558,5.6267,5.6412,5.6558,5.634,5.6219,5.6485,5.6776,5.6485,5.6219,5.6485,5.6631,5.6485,5.634,5.6292,5.6292,5.6292,5.6267,5.6219,5.6219,5.6219,5.6219,5.6219,5.6219,5.6219,5.6219,5.6219,5.6219,5.6219,5.6219,5.6219,5.6219,5.6219,5.6219,5.6219,5.6219,5.6219,5.3406,5.2861,5.2861,5.2861,5.2729,5.1749,5.1272,5.1122,5.0117,4.959,4.959,4.959,4.959,4.959,4.959,5.0243,5.1348,5.2427,5.281,5.2861,5.2861,5.2861,5.2861,5.2861,5.2861,5.2861,5.2861,5.2861,5.2861,5.2861,5.2861,5.2861,5.2861,5.2861,5.2861,5.2861,5.2861,5.3092,5.38,5.4276,5.4255,5.534,5.5933,5.6163,5.6219,5.6219,5.6219,5.6219,5.634,5.6631,5.6412,5.6438,5.6968,5.7446,5.7804,5.6776,5.7256,5.7687,5.7112,5.704,5.6968,5.6968,5.6412,5.6219,5.6219,5.6292,5.6219,5.6219,5.6219,5.6219,5.6219,5.6219,5.6219,5.6219,5.6219,5.6219,5.6219,5.6219,5.6219,5.6219,5.6292,5.634,5.6292,5.6219,5.6219,5.6219,5.6219,5.6219,5.6219,5.6219,5.6219,5.6219,5.6219,5.6219,5.6219,5.6219,5.6219,5.6219,5.6219,5.6219,5.6219,5.6219,5.6219,5.6219,5.6219,5.6219,5.6219,5.6219,5.6219,5.6219,5.6219,5.6219,5.6219,5.6219,5.6219,5.3306,5.2861,5.2861,5.2861,5.271,5.1875,5.1373,5.1096,5.0218,4.9715,4.959,4.959,4.959,4.9665,4.9967,5.0519,5.1498,5.2528,5.281,5.2861,5.2861,5.2861,5.2861,5.2861,5.2861,5.2861,5.2861,5.2861,5.2861,5.2861,5.2861,5.2861,5.2861,5.2861,5.2861,5.2861,5.2861,5.3218,5.3942,5.4499,5.4955,5.5641,5.6219,5.6219,5.6219,5.6219,5.6219,5.6219,5.6219,5.6292,5.6219,5.6219,5.6219,5.6219,5.6219,5.6219,5.6219,5.6219,5.6292,5.6292,5.6412,5.6412,5.6292,5.6219,5.6219,5.6219,5.6219,5.6219,5.6219,5.6219,5.6219,5.6219,5.6219,5.6219,5.6219,5.6219,5.6219,5.6219,5.6219,5.6219,5.6219,5.6219,5.6219,5.6219,5.6219,5.6219,5.6219,5.6219,5.6219,5.6219,5.6219,5.6219,5.6219,5.6219,5.6219,5.6219,5.6219,5.6219,5.6219,5.6219,5.6219,5.6219,5.6219,5.6219,5.6219,5.6219,5.6219,5.6219,5.6219,5.6219,5.6219,5.6219,5.6219,5.6219,5.6219,5.298,5.2861,5.2861,5.2861,5.2829,5.2251,5.1699,5.1197,5.0569,5.0042,4.959,4.959,4.9615,4.9841,5.0645,5.1348,5.2026,5.2578,5.2861,5.2861,5.2861,5.2861,5.2861,5.2861,5.2861,5.2861,5.2861,5.2861,5.2861,5.2861,5.2861,5.2861,5.2861,5.2861,5.2861,5.2861,5.2861,5.3005,5.3596,5.4376,5.5189,5.5892,5.6168,5.6219,5.6219,5.6219,5.6219,5.6219,5.6219,5.6219,5.6219,5.6219,5.6219,5.6219,5.6219,5.6219,5.6219,5.6219,5.6219,5.6219,5.6219,5.6219,5.6219,5.6219,5.6219,5.6219,5.6219,5.6219,5.6219,5.6219,5.6219,5.6219,5.6219,5.6219,5.6219,5.6219,5.6219,5.6219,5.6219,5.6219,5.6219,5.6219,5.6219,5.6219,5.6219,5.6219,5.6219,5.6219,5.6219,5.6219,5.6219,5.6219,5.6219,5.6219,5.6219,5.6219,5.6219,5.6219,5.6219,5.6219,5.6219,5.6219,5.6219,5.6219,5.6219,5.6219,5.6219,5.6219,5.6219,5.6219,5.6219,5.6219,5.6219,5.6219,5.6219,5.2861,5.2861,5.2861,5.2861,5.2854,5.2327,5.18,5.1247,5.067,5.0117,4.9665,4.959,4.9766,5.0193,5.0946,5.1548,5.2126,5.2678,5.2929,5.2861,5.2861,5.2861,5.2861,5.2861,5.2861,5.2861,5.2861,5.2861,5.2861,5.2861,5.2861,5.2861,5.2861,5.2861,5.2861,5.2861,5.2861,5.3155,5.3758,5.4737,5.5616,5.6068,5.6219,5.6219,5.6219,5.6219,5.6219,5.6219,5.6219,5.6219,5.6219,5.6219,5.6219,5.6219,5.6219,5.6219,5.6219,5.6219,5.6219,5.6219,5.6219,5.6219,5.6219,5.6219,5.6219,5.6219,5.6219,5.6219,5.6219,5.6219,5.6219,5.6219,5.6219,5.6219,5.6219,5.6219,5.6219,5.6219,5.6219,5.6219,5.6219,5.6219,5.6219,5.6219,5.6219,5.6219,5.6219,5.6219,5.6219,5.6219,5.6219,5.6219,5.6219,5.6219,5.6219,5.6219,5.6219,5.6219,5.6219,5.6219,5.6219,5.6219,5.6219,5.6219,5.6219,5.6219,5.6219,5.6219,5.6219,5.6219,5.6219,5.6219,5.6219,5.6219,5.6219,5.2861,5.2861,5.2861,5.2861,5.2836,5.2477,5.2,5.1448,5.0896,5.0343,4.9866,4.9715,4.9967,5.0594,5.1122,5.1674,5.2352,5.2754,5.2879,5.2861,5.2861,5.2861,5.2861,5.2861,5.2861,5.2861,5.2861,5.2861,5.2861,5.2861,5.2861,5.2861,5.2861,5.2861,5.2861,5.2955,5.303,5.3557,5.4135,5.5064,5.5968,5.6168,5.6219,5.6219,5.6219,5.6219,5.6219,5.6219,5.6219,5.6219,5.6219,5.6219,5.6219,5.6219,5.6219,5.6219,5.6219,5.6219,5.6219,5.6219,5.6219,5.6219,5.6219,5.6219,5.6219,5.6219,5.6219,5.6219,5.6219,5.6219,5.6219,5.6219,5.6219,5.6219,5.6219,5.6219,5.6219,5.6219,5.6219,5.6219,5.6219,5.6219,5.6219,5.6219,5.6219,5.6219,5.6219,5.6219,5.6219,5.6219,5.6219,5.6219,5.6219,5.6219,5.6219,5.6219,5.6219,5.6219,5.6219,5.6219,5.6219,5.6219,5.6219,5.6219,5.6219,5.6219,5.6219,5.6219,5.6219,5.6219,5.6219,5.6219,5.6219,5.6219,5.6219,5.2861,5.2861,5.2861,5.2861,5.2861,5.2836,5.2528,5.195,5.1423,5.082,5.0167,4.9891,5.0193,5.0971,5.1297,5.185,5.2829,5.2904,5.2861,5.2861,5.2861,5.2861,5.2861,5.2861,5.2861,5.2861,5.2861,5.2861,5.2861,5.2861,5.2861,5.2861,5.2861,5.2861,5.2861,5.2886,5.3381,5.3909,5.4507,5.5064,5.5842,5.6168,5.6219,5.6219,5.6219,5.6219,5.6219,5.6219,5.6219,5.6219,5.6219,5.6219,5.6219,5.6219,5.6219,5.6219,5.6219,5.6219,5.6219,5.6219,5.6219,5.6219,5.6219,5.6219,5.6219,5.6219,5.6219,5.6219,5.6219,5.6219,5.6219,5.6219,5.6219,5.6219,5.6219,5.6219,5.6219,5.6219,5.6219,5.6219,5.6219,5.6219,5.6219,5.6219,5.6219,5.6219,5.6219,5.6219,5.6219,5.6219,5.6219,5.6219,5.6219,5.6219,5.6219,5.6219,5.6219,5.6219,5.6219,5.6219,5.6219,5.6219,5.6219,5.6219,5.6219,5.6219,5.6219,5.6219,5.6219,5.6219,5.6219,5.6219,5.6219,5.6219,5.6219,5.2861,5.2861,5.2861,5.2861,5.2861,5.2861,5.2603,5.2076,5.1523,5.0745,4.9916,4.9741,5.0218,5.1021,5.1348,5.1875,5.2804,5.2861,5.2861,5.2861,5.2861,5.2861,5.2861,5.2861,5.2861,5.2861,5.2861,5.2861,5.2861,5.2861,5.2861,5.2861,5.2861,5.2861,5.2861,5.2886,5.3406,5.3934,5.4411,5.4988,5.5541,5.6068,5.6219,5.6219,5.6219,5.6219,5.6219,5.6219,5.6219,5.6219,5.6219,5.6219,5.6219,5.6219,5.6219,5.6219,5.6219,5.6219,5.6219,5.6219,5.6219,5.6219,5.6219,5.6219,5.6219,5.6219,5.6219,5.6219,5.6219,5.6219,5.6219,5.6219,5.6219,5.6219,5.6219,5.6219,5.6219,5.6219,5.6219,5.6219,5.6219,5.6219,5.6219,5.6219,5.6219,5.6219,5.6219,5.6219,5.6219,5.6219,5.6219,5.6219,5.6219,5.6219,5.6219,5.6219,5.6219,5.6219,5.6219,5.6219,5.6219,5.6219,5.6219,5.6219,5.6219,5.6219,5.6219,5.6219,5.6219,5.6219,5.6219,5.6219,5.6219,5.6219,5.6219,5.2861,5.2861,5.2861,5.2861,5.2861,5.2861,5.2603,5.2076,5.1523,5.0645,4.964,4.9766,5.0368,5.1096,5.1523,5.2,5.2729,5.2861,5.2861,5.2861,5.2861,5.2861,5.2861,5.2861,5.2861,5.2861,5.2861,5.2861,5.2861,5.2861,5.2861,5.2861,5.2861,5.2861,5.2861,5.2886,5.3181,5.3708,5.4285,5.4838,5.539,5.5917,5.6219,5.6219,5.6219,5.6219,5.6219,5.6219,5.6219,5.6219,5.6219,5.6219,5.6219,5.6219,5.6219,5.6219,5.6219,5.6219,5.6219,5.6219,5.6219,5.6219,5.6219,5.6219,5.6219,5.6219,5.6219,5.6219,5.6219,5.6219,5.6219,5.6219,5.6219,5.6219,5.6219,5.6219,5.6219,5.6219,5.6219,5.6219,5.6219,5.6219,5.6219,5.6219,5.6219,5.6219,5.6219,5.6219,5.6219,5.6219,5.6219,5.6219,5.6219,5.6219,5.6219,5.6219,5.6219,5.6219,5.6219,5.6219,5.6219,5.6219,5.6219,5.6219,5.6219,5.6219,5.6219,5.6244,5.6219,5.6219,5.6244,5.6269,5.6219,5.6219,5.6219,5.2861,5.2861,5.2904,5.2904,5.2854,5.2929,5.2578,5.2051,5.1448,5.0645,4.9791,5.0142,5.0695,5.1322,5.18,5.2327,5.2779,5.2861,5.2861,5.2861,5.2861,5.2861,5.2861,5.2861,5.2861,5.2861,5.2861,5.2861,5.2861,5.2861,5.2861,5.2861,5.2861,5.2861,5.2861,5.2861,5.3206,5.3683,5.4235,5.4813,5.529,5.5867,5.6168,5.6219,5.6219,5.6219,5.6219,5.6219,5.6219,5.6219,5.6219,5.6219,5.6219,5.6219,5.6219,5.6219,5.6219,5.6219,5.6219,5.6219,5.6219,5.6219,5.6219,5.6219,5.6219,5.6219,5.6219,5.6219,5.6219,5.6219,5.6219,5.6219,5.6219,5.6219,5.6219,5.6219,5.6219,5.6219,5.6219,5.6219,5.6219,5.6219,5.6219,5.6219,5.6219,5.6219,5.6219,5.6219,5.6219,5.6219,5.6219,5.6219,5.6219,5.6219,5.6219,5.6219,5.6219,5.6219,5.6219,5.6219,5.6219,5.6219,5.6219,5.6219,5.6244,5.6244,5.6269,5.6269,5.652,5.6746,5.642,5.6344,5.6269,5.6369,5.657,5.2861,5.2904,5.2528,5.2377,5.2377,5.2377,5.2251,5.195,5.1147,5.0494,5.0218,5.0368,5.0971,5.1649,5.2026,5.2427,5.2785,5.2861,5.2861,5.2861,5.2861,5.2861,5.2861,5.2861,5.2861,5.2861,5.2861,5.2861,5.2861,5.2861,5.2861,5.2861,5.2861,5.2861,5.2861,5.2861,5.3055,5.3331,5.4009,5.4687,5.4963,5.5691,5.6219,5.6219,5.6219,5.6219,5.6219,5.6219,5.6219,5.6219,5.6219,5.6219,5.6219,5.6219,5.6219,5.6219,5.6219,5.6219,5.6219,5.6219,5.6219,5.6219,5.6219,5.6219,5.6219,5.6219,5.6219,5.6219,5.6219,5.6219,5.6219,5.6219,5.6219,5.6219,5.6219,5.6219,5.6219,5.6219,5.6219,5.6219,5.6219,5.6219,5.6219,5.6219,5.6219,5.6219,5.6219,5.6219,5.6219,5.6219,5.6219,5.6219,5.6219,5.6219,5.6219,5.6219,5.6219,5.6219,5.6219,5.6219,5.6219,5.6244,5.6294,5.6344,5.6319,5.6294,5.6595,5.6897,5.7223,5.7323,5.7047,5.6821,5.6796,5.7047,5.7424,5.2628,5.2578,5.2051,5.1825,5.1825,5.1825,5.1724,5.1398,5.0569,5.0218,5.0419,5.0619,5.1197,5.1925,5.2327,5.2503,5.2861,5.2861,5.2861,5.2861,5.2861,5.2861,5.2861,5.2861,5.2861,5.2861,5.2861,5.2861,5.2861,5.2861,5.2861,5.2861,5.2861,5.2861,5.2861,5.2861,5.2929,5.3281,5.3934,5.4587,5.4938,5.5516,5.6194,5.6219,5.6219,5.6219,5.6219,5.6219,5.6219,5.6219,5.6219,5.6219,5.6219,5.6219,5.6219,5.6219,5.6219,5.6219,5.6219,5.6219,5.6219,5.6219,5.6219,5.6219,5.6219,5.6219,5.6219,5.6219,5.6219,5.6219,5.6219,5.6219,5.6219,5.6219,5.6219,5.6219,5.6219,5.6219,5.6219,5.6219,5.6219,5.6219,5.6219,5.6219,5.6219,5.6219,5.6219,5.6219,5.6219,5.6219,5.6219,5.6219,5.6219,5.6219,5.6219,5.6219,5.6219,5.6219,5.6244,5.6294,5.6344,5.6394,5.642,5.657,5.6846,5.7097,5.7298,5.7575,5.775,5.7851,5.7775,5.7575,5.7399,5.765,5.8027,5.2076,5.2,5.1498,5.1272,5.1247,5.1197,5.0896,5.0368,4.9841,4.9941,5.0494,5.1046,5.1599,5.2176,5.2678,5.2879,5.2929,5.2861,5.2861,5.2861,5.2861,5.2861,5.2861,5.2861,5.2861,5.2861,5.2861,5.2861,5.2861,5.2861,5.2861,5.2861,5.2861,5.2861,5.2861,5.2861,5.2861,5.3231,5.3959,5.4486,5.4787,5.5616,5.6118,5.6219,5.6219,5.6219,5.6219,5.6219,5.6219,5.6219,5.6219,5.6219,5.6219,5.6219,5.6219,5.6219,5.6219,5.6219,5.6219,5.6219,5.6219,5.6219,5.6219,5.6219,5.6219,5.6219,5.6219,5.6219,5.6219,5.6219,5.6219,5.6219,5.6219,5.6219,5.6219,5.6219,5.6219,5.6219,5.6219,5.6219,5.6219,5.6219,5.6219,5.6219,5.6219,5.6219,5.6219,5.6219,5.6219,5.6219,5.6219,5.6219,5.6219,5.6219,5.6219,5.6219,5.6219,5.6219,5.6394,5.647,5.652,5.6696,5.6947,5.7223,5.7625,5.7851,5.7951,5.8027,5.8102,5.8202,5.8428,5.8227,5.8027,5.8102,5.8378,5.1523,5.1448,5.0921,5.067,5.0594,5.0243,4.9967,4.9791,4.964,5.0092,5.1046,5.1197,5.1749,5.2678,5.2854,5.2836,5.2861,5.2861,5.2861,5.2861,5.2861,5.2861,5.2861,5.2861,5.2861,5.2861,5.2861,5.2861,5.2861,5.2861,5.2861,5.2861,5.2861,5.2861,5.2861,5.2861,5.2861,5.3181,5.4009,5.4386,5.4813,5.5591,5.5993,5.6194,5.6219,5.6219,5.6219,5.6219,5.6219,5.6219,5.6219,5.6219,5.6219,5.6219,5.6219,5.6219,5.6219,5.6219,5.6219,5.6219,5.6219,5.6219,5.6219,5.6219,5.6219,5.6219,5.6219,5.6219,5.6219,5.6219,5.6219,5.6219,5.6219,5.6219,5.6219,5.6219,5.6219,5.6219,5.6219,5.6219,5.6219,5.6219,5.6219,5.6219,5.6219,5.6219,5.6219,5.6219,5.6219,5.6219,5.6219,5.6219,5.6219,5.6219,5.6244,5.6244,5.6219,5.6244,5.652,5.6796,5.6947,5.7198,5.7499,5.7851,5.8227,5.8403,5.8478,5.8579,5.8679,5.8956,5.9131,5.888,5.8704,5.873,5.8805,5.0946,5.087,5.0318,5.0092,5.0042,4.9741,4.959,4.959,4.959,5.0117,5.0896,5.1172,5.1774,5.2503,5.2779,5.2861,5.2861,5.2861,5.2861,5.2861,5.2861,5.2861,5.2861,5.2861,5.2861,5.2861,5.2861,5.2861,5.2861,5.2861,5.2861,5.2861,5.2861,5.2861,5.2861,5.2861,5.2861,5.3206,5.3683,5.4235,5.4838,5.544,5.5842,5.6194,5.6219,5.6219,5.6219,5.6219,5.6219,5.6219,5.6219,5.6219,5.6219,5.6219,5.6219,5.6219,5.6219,5.6219,5.6219,5.6219,5.6219,5.6219,5.6219,5.6219,5.6219,5.6219,5.6219,5.6219,5.6219,5.6219,5.6219,5.6219,5.6219,5.6219,5.6219,5.6219,5.6219,5.6219,5.6219,5.6219,5.6219,5.6219,5.6219,5.6219,5.6219,5.6219,5.6219,5.6219,5.6219,5.6219,5.6219,5.6219,5.6219,5.6219,5.6269,5.6394,5.6545,5.6721,5.7097,5.7349,5.7449,5.7775,5.8202,5.8529,5.883,5.8905,5.8956,5.9156,5.9332,5.9508,5.9508,5.9282,5.9106,5.9182,5.9282,5.0343,5.0318,4.9791,4.964,4.9615,4.9615,4.959,4.959,4.959,4.9916,5.0494,5.1046,5.1599,5.2251,5.2678,5.2836,5.2861,5.2861,5.2861,5.2861,5.2861,5.2861,5.2861,5.2861,5.2861,5.2861,5.2861,5.2861,5.2861,5.2861,5.2861,5.2861,5.2861,5.2861,5.2861,5.2861,5.2861,5.2986,5.3432,5.3909,5.4561,5.5139,5.5641,5.6118,5.6219,5.6219,5.6219,5.6219,5.6219,5.6219,5.6219,5.6219,5.6219,5.6219,5.6219,5.6219,5.6219,5.6219,5.6219,5.6219,5.6219,5.6219,5.6219,5.6219,5.6219,5.6219,5.6219,5.6219,5.6219,5.6219,5.6219,5.6219,5.6219,5.6219,5.6219,5.6219,5.6219,5.6219,5.6219,5.6219,5.6219,5.6219,5.6219,5.6219,5.6219,5.6219,5.6219,5.6219,5.6219,5.6219,5.6244,5.6244,5.6219,5.6294,5.652,5.6696,5.6972,5.7248,5.765,5.7876,5.7976,5.8403,5.893,5.9081,5.9182,5.9307,5.9408,5.9508,5.9508,5.9508,5.9508,5.9508,5.9483,5.9508,5.9483,4.9791,4.9791,4.964,4.959,4.959,4.959,4.959,4.959,4.959,4.9891,5.0444,5.1021,5.1548,5.2051,5.2653,5.2861,5.2861,5.2861,5.2861,5.2861,5.2861,5.2861,5.2861,5.2861,5.2861,5.2861,5.2861,5.2861,5.2861,5.2861,5.2861,5.2861,5.2861,5.2861,5.2861,5.2861,5.2861,5.2886,5.3206,5.3758,5.4511,5.5114,5.5641,5.6043,5.6219,5.6219,5.6219,5.6219,5.6219,5.6219,5.6219,5.6219,5.6219,5.6219,5.6219,5.6219,5.6219,5.6219,5.6219,5.6219,5.6219,5.6219,5.6219,5.6219,5.6219,5.6219,5.6219,5.6219,5.6219,5.6219,5.6219,5.6219,5.6219,5.6219,5.6219,5.6219,5.6219,5.6219,5.6219,5.6219,5.6219,5.6219,5.6219,5.6219,5.6219,5.6219,5.6219,5.6219,5.6219,5.6219,5.6319,5.6319,5.6269,5.6369,5.6646,5.7097,5.7449,5.7775,5.8177,5.8353,5.8504,5.8855,5.9232,5.9357,5.9458,5.9508,5.9508,5.9508,5.9508,5.9508,5.9533,5.9533,5.9583,5.9608,5.9558,4.959,4.959,4.959,4.959,4.959,4.959,4.959,4.959,4.959,4.9766,5.0167,5.087,5.1473,5.19,5.2553,5.2861,5.2861,5.2861,5.2861,5.2861,5.2861,5.2861,5.2861,5.2861,5.2861,5.2861,5.2861,5.2861,5.2861,5.2861,5.2861,5.2861,5.2861,5.2861,5.2861,5.2861,5.2861,5.2861,5.3105,5.3733,5.4511,5.4938,5.5491,5.5917,5.6219,5.6219,5.6219,5.6219,5.6219,5.6219,5.6219,5.6219,5.6219,5.6219,5.6219,5.6219,5.6219,5.6219,5.6219,5.6219,5.6219,5.6219,5.6219,5.6219,5.6219,5.6219,5.6219,5.6219,5.6219,5.6219,5.6219,5.6219,5.6219,5.6219,5.6219,5.6219,5.6219,5.6219,5.6219,5.6219,5.6219,5.6219,5.6219,5.6219,5.6219,5.6219,5.6219,5.6219,5.6219,5.6344,5.6394,5.6545,5.6595,5.662,5.6872,5.7449,5.8027,5.8378,5.8679,5.888,5.9031,5.9257,5.9483,5.9508,5.9508,5.9508,5.9508,5.9508,5.9508,5.9508,5.9533,5.9583,5.9684,5.9885,5.9985,4.959,4.959,4.959,4.959,4.959,4.959,4.959,4.959,4.959,4.959,4.9766,5.0695,5.1122,5.1624,5.2277,5.2678,5.2929,5.2861,5.2861,5.2861,5.2861,5.2861,5.2861,5.2861,5.2861,5.2861,5.2861,5.2861,5.2861,5.2861,5.2861,5.2861,5.2861,5.2861,5.2861,5.2861,5.2861,5.3055,5.3356,5.3934,5.4336,5.4662,5.5365,5.5892,5.6219,5.6219,5.6219,5.6219,5.6219,5.6219,5.6219,5.6219,5.6219,5.6219,5.6219,5.6219,5.6219,5.6219,5.6219,5.6219,5.6219,5.6219,5.6219,5.6219,5.6219,5.6219,5.6219,5.6219,5.6219,5.6219,5.6219,5.6219,5.6219,5.6219,5.6219,5.6219,5.6219,5.6219,5.6219,5.6219,5.6219,5.6219,5.6219,5.6219,5.6219,5.6219,5.6219,5.6219,5.6269,5.6495,5.6646,5.6972,5.7248,5.7273,5.7374,5.7775,5.8478,5.8805,5.9081,5.9332,5.9508,5.9508,5.9508,5.9508,5.9508,5.9508,5.9508,5.9508,5.9508,5.9633,5.9759,5.9935,6.0311,6.0487,6.0663,4.959,4.959,4.959,4.959,4.959,4.959,4.959,4.959,4.959,4.959,4.9766,5.0243,5.0795,5.1297,5.1925,5.2452,5.2861,5.2861,5.2861,5.2861,5.2861,5.2861,5.2861,5.2861,5.2861,5.2861,5.2861,5.2861,5.2861,5.2861,5.2861,5.2861,5.2861,5.2861,5.2861,5.2861,5.2886,5.3105,5.3507,5.4059,5.4561,5.4988,5.5566,5.5968,5.6219,5.6219,5.6219,5.6219,5.6219,5.6219,5.6219,5.6219,5.6219,5.6219,5.6219,5.6219,5.6219,5.6219,5.6219,5.6219,5.6219,5.6219,5.6219,5.6219,5.6219,5.6219,5.6219,5.6219,5.6219,5.6219,5.6219,5.6219,5.6219,5.6219,5.6219,5.6219,5.6219,5.6219,5.6219,5.6219,5.6219,5.6219,5.6219,5.6219,5.6219,5.6219,5.6219,5.6219,5.6269,5.6545,5.6872,5.7323,5.775,5.8202,5.8428,5.8328,5.8805,5.9156,5.9382,5.9458,5.9508,5.9508,5.9508,5.9508,5.9508,5.9508,5.9508,5.9659,5.9885,6.006,6.0136,6.0362,6.0763,6.1065,6.1215]}]]